GFSNGP_prec_pwat_057.txt.gz
Precipitable_Water
0.30 0.33 0.33 0.31 0.29 0.30 0.28 0.28 0.22 0.29 0.32 0.39 0.44 0.46 0.51 0.58 0.63 0.63 0.61 0.60 0.62 0.63 0.59 0.57 0.59 0.65 0.67 0.70 0.71 0.70 0.69 0.69 0.73 0.78 0.80 0.82 0.84 0.88 0.89 0.84 0.84 0.83 0.83 0.80
0.28 0.32 0.32 0.29 0.32 0.33 0.32 0.32 0.36 0.38 0.38 0.50 0.53 0.54 0.59 0.63 0.62 0.62 0.61 0.56 0.63 0.59 0.54 0.52 0.58 0.61 0.63 0.65 0.66 0.62 0.63 0.67 0.75 0.77 0.77 0.77 0.81 0.81 0.78 0.82 0.79 0.72 0.80 0.79
0.23 0.31 0.29 0.22 0.27 0.28 0.32 0.39 0.41 0.36 0.45 0.53 0.53 0.56 0.62 0.63 0.63 0.61 0.59 0.57 0.58 0.57 0.55 0.54 0.55 0.59 0.60 0.61 0.62 0.61 0.62 0.70 0.70 0.74 0.75 0.76 0.74 0.77 0.72 0.70 0.68 0.82 0.79 0.80
0.25 0.29 0.17 0.28 0.38 0.42 0.43 0.47 0.50 0.51 0.54 0.59 0.60 0.66 0.67 0.67 0.65 0.62 0.59 0.58 0.60 0.59 0.60 0.60 0.60 0.61 0.66 0.67 0.72 0.70 0.68 0.70 0.71 0.70 0.74 0.77 0.71 0.72 0.69 0.71 0.80 0.77 0.83 0.79
0.25 0.24 0.26 0.32 0.44 0.45 0.46 0.46 0.58 0.56 0.59 0.63 0.66 0.66 0.65 0.70 0.68 0.64 0.62 0.62 0.62 0.62 0.63 0.64 0.65 0.65 0.65 0.68 0.72 0.74 0.75 0.76 0.75 0.76 0.73 0.74 0.72 0.74 0.77 0.81 0.79 0.81 0.80 0.79
0.28 0.22 0.18 0.34 0.49 0.56 0.59 0.43 0.61 0.62 0.62 0.63 0.66 0.51 0.58 0.69 0.68 0.66 0.66 0.66 0.62 0.64 0.64 0.66 0.66 0.69 0.68 0.68 0.69 0.70 0.72 0.72 0.72 0.70 0.68 0.70 0.75 0.78 0.80 0.79 0.80 0.80 0.72 0.64
0.27 0.25 0.26 0.40 0.50 0.61 0.39 0.43 0.64 0.66 0.64 0.65 0.61 0.65 0.69 0.71 0.67 0.68 0.66 0.66 0.66 0.67 0.65 0.66 0.69 0.68 0.66 0.67 0.69 0.70 0.69 0.68 0.69 0.70 0.75 0.79 0.79 0.78 0.78 0.77 0.71 0.59 0.46 0.41
0.31 0.25 0.21 0.50 0.55 0.47 0.54 0.61 0.65 0.66 0.66 0.66 0.70 0.72 0.72 0.70 0.69 0.67 0.66 0.67 0.68 0.66 0.67 0.69 0.69 0.69 0.69 0.69 0.74 0.76 0.76 0.76 0.76 0.77 0.78 0.78 0.77 0.73 0.62 0.47 0.39 0.36 0.34 0.32
0.35 0.33 0.43 0.56 0.59 0.59 0.62 0.60 0.63 0.63 0.69 0.70 0.70 0.73 0.74 0.71 0.70 0.69 0.68 0.68 0.69 0.67 0.69 0.72 0.73 0.73 0.69 0.70 0.74 0.75 0.74 0.74 0.76 0.77 0.74 0.62 0.46 0.38 0.34 0.33 0.31 0.29 0.27 0.25
0.40 0.50 0.55 0.61 0.65 0.66 0.66 0.66 0.64 0.66 0.70 0.70 0.69 0.75 0.75 0.74 0.71 0.69 0.70 0.69 0.70 0.70 0.69 0.69 0.72 0.73 0.73 0.74 0.75 0.74 0.73 0.70 0.60 0.45 0.36 0.33 0.31 0.31 0.30 0.28 0.26 0.24 0.22 0.20
0.42 0.49 0.57 0.61 0.67 0.68 0.68 0.66 0.64 0.68 0.71 0.73 0.72 0.76 0.77 0.76 0.72 0.71 0.70 0.70 0.70 0.69 0.68 0.70 0.73 0.72 0.71 0.70 0.67 0.57 0.48 0.40 0.36 0.33 0.30 0.30 0.31 0.29 0.28 0.26 0.23 0.21 0.20 0.19
0.36 0.50 0.56 0.61 0.67 0.70 0.66 0.62 0.64 0.69 0.72 0.76 0.77 0.78 0.78 0.77 0.76 0.72 0.70 0.68 0.67 0.68 0.67 0.65 0.63 0.62 0.59 0.56 0.52 0.47 0.39 0.35 0.32 0.31 0.30 0.30 0.29 0.28 0.28 0.26 0.25 0.24 0.23 0.21
0.47 0.56 0.60 0.64 0.66 0.69 0.65 0.62 0.64 0.67 0.75 0.75 0.81 0.82 0.80 0.77 0.78 0.77 0.74 0.69 0.67 0.66 0.65 0.59 0.55 0.53 0.51 0.51 0.49 0.40 0.37 0.33 0.31 0.29 0.28 0.27 0.24 0.22 0.19 0.20 0.21 0.21 0.20 0.19
0.62 0.63 0.59 0.63 0.63 0.68 0.66 0.64 0.64 0.67 0.73 0.79 0.82 0.84 0.81 0.77 0.78 0.75 0.73 0.73 0.69 0.66 0.64 0.59 0.53 0.49 0.48 0.47 0.41 0.39 0.35 0.31 0.29 0.28 0.27 0.24 0.21 0.20 0.19 0.17 0.16 0.15 0.17 0.18
0.62 0.66 0.64 0.67 0.68 0.66 0.66 0.62 0.60 0.60 0.66 0.71 0.80 0.81 0.82 0.78 0.78 0.74 0.75 0.72 0.70 0.66 0.62 0.59 0.51 0.47 0.45 0.43 0.40 0.36 0.31 0.29 0.29 0.27 0.24 0.22 0.20 0.19 0.18 0.17 0.15 0.15 0.15 0.15
0.59 0.63 0.65 0.63 0.63 0.64 0.62 0.60 0.60 0.60 0.63 0.71 0.75 0.77 0.80 0.80 0.79 0.76 0.73 0.70 0.69 0.64 0.60 0.60 0.51 0.46 0.46 0.43 0.38 0.32 0.30 0.31 0.28 0.24 0.22 0.20 0.20 0.18 0.17 0.16 0.15 0.15 0.14 0.14
0.52 0.51 0.56 0.59 0.61 0.61 0.61 0.64 0.63 0.63 0.65 0.72 0.74 0.76 0.77 0.78 0.77 0.75 0.72 0.72 0.69 0.68 0.63 0.58 0.50 0.47 0.45 0.40 0.33 0.31 0.31 0.29 0.25 0.22 0.21 0.21 0.20 0.17 0.17 0.16 0.15 0.15 0.15 0.15
0.57 0.58 0.60 0.61 0.63 0.64 0.64 0.65 0.64 0.67 0.70 0.72 0.72 0.74 0.74 0.75 0.74 0.73 0.73 0.72 0.70 0.65 0.59 0.56 0.50 0.47 0.41 0.36 0.33 0.33 0.30 0.26 0.22 0.21 0.21 0.21 0.18 0.18 0.17 0.16 0.16 0.15 0.15 0.14
0.62 0.62 0.64 0.61 0.65 0.68 0.69 0.67 0.67 0.68 0.71 0.71 0.71 0.72 0.73 0.74 0.74 0.73 0.70 0.66 0.65 0.58 0.57 0.52 0.49 0.43 0.37 0.34 0.34 0.31 0.26 0.23 0.22 0.22 0.22 0.20 0.19 0.18 0.18 0.17 0.16 0.16 0.14 0.13
0.65 0.66 0.68 0.67 0.71 0.71 0.67 0.68 0.68 0.71 0.71 0.73 0.73 0.72 0.73 0.74 0.74 0.70 0.69 0.65 0.60 0.58 0.55 0.51 0.45 0.39 0.35 0.35 0.32 0.27 0.25 0.23 0.22 0.22 0.21 0.19 0.19 0.19 0.18 0.17 0.16 0.15 0.14 0.13
0.68 0.71 0.74 0.75 0.74 0.72 0.71 0.71 0.72 0.71 0.74 0.74 0.72 0.73 0.72 0.72 0.69 0.64 0.59 0.54 0.56 0.56 0.51 0.47 0.40 0.36 0.35 0.33 0.29 0.26 0.24 0.23 0.23 0.22 0.20 0.20 0.20 0.19 0.18 0.17 0.16 0.15 0.14 0.13
0.69 0.70 0.72 0.73 0.73 0.73 0.74 0.75 0.75 0.74 0.73 0.73 0.72 0.69 0.65 0.62 0.62 0.61 0.61 0.57 0.53 0.50 0.46 0.41 0.36 0.34 0.33 0.31 0.27 0.26 0.25 0.24 0.23 0.22 0.21 0.21 0.20 0.19 0.18 0.17 0.16 0.15 0.14 0.14
0.68 0.69 0.71 0.73 0.72 0.73 0.74 0.74 0.71 0.69 0.66 0.66 0.63 0.62 0.60 0.59 0.56 0.53 0.49 0.50 0.48 0.47 0.42 0.37 0.34 0.34 0.33 0.29 0.27 0.26 0.25 0.25 0.23 0.22 0.21 0.21 0.20 0.19 0.18 0.16 0.16 0.15 0.14 0.14
0.60 0.60 0.62 0.67 0.71 0.71 0.67 0.72 0.73 0.73 0.68 0.64 0.61 0.63 0.60 0.55 0.53 0.53 0.52 0.50 0.49 0.45 0.39 0.35 0.35 0.35 0.33 0.29 0.27 0.27 0.26 0.25 0.23 0.23 0.22 0.22 0.20 0.19 0.18 0.16 0.15 0.14 0.14 0.14
0.57 0.58 0.58 0.57 0.56 0.57 0.61 0.65 0.67 0.70 0.71 0.70 0.68 0.63 0.61 0.59 0.55 0.54 0.51 0.48 0.48 0.43 0.38 0.37 0.37 0.37 0.32 0.28 0.27 0.27 0.26 0.25 0.23 0.22 0.22 0.21 0.20 0.19 0.18 0.16 0.15 0.14 0.15 0.15
0.53 0.54 0.55 0.57 0.56 0.56 0.56 0.57 0.57 0.60 0.63 0.64 0.65 0.65 0.61 0.58 0.55 0.55 0.54 0.53 0.50 0.43 0.39 0.39 0.38 0.36 0.30 0.28 0.27 0.27 0.26 0.24 0.23 0.23 0.22 0.21 0.20 0.18 0.17 0.16 0.15 0.15 0.15 0.15
0.45 0.50 0.51 0.52 0.55 0.56 0.56 0.56 0.57 0.58 0.61 0.62 0.61 0.62 0.60 0.58 0.56 0.54 0.54 0.55 0.51 0.45 0.41 0.39 0.38 0.35 0.30 0.28 0.28 0.27 0.26 0.24 0.24 0.23 0.23 0.21 0.20 0.18 0.17 0.16 0.16 0.16 0.16 0.17

GFSNGP_prec_pwat_060.txt.gz
Precipitable_Water
0.29 0.32 0.33 0.31 0.30 0.31 0.27 0.28 0.22 0.24 0.27 0.36 0.42 0.46 0.50 0.54 0.61 0.62 0.61 0.60 0.59 0.57 0.57 0.55 0.51 0.52 0.55 0.59 0.60 0.64 0.66 0.68 0.68 0.70 0.70 0.73 0.75 0.76 0.77 0.80 0.81 0.82 0.81 0.78
0.26 0.32 0.32 0.29 0.32 0.32 0.31 0.31 0.29 0.32 0.35 0.47 0.52 0.55 0.54 0.61 0.61 0.59 0.59 0.58 0.57 0.57 0.54 0.54 0.50 0.51 0.53 0.55 0.59 0.63 0.63 0.61 0.63 0.68 0.71 0.75 0.77 0.76 0.80 0.81 0.75 0.83 0.83 0.80
0.23 0.31 0.30 0.23 0.27 0.29 0.31 0.32 0.33 0.33 0.42 0.51 0.53 0.56 0.59 0.60 0.60 0.60 0.59 0.58 0.56 0.58 0.55 0.55 0.54 0.55 0.55 0.58 0.61 0.60 0.62 0.61 0.63 0.69 0.74 0.77 0.75 0.76 0.77 0.79 0.82 0.83 0.80 0.80
0.25 0.27 0.17 0.28 0.37 0.38 0.35 0.41 0.46 0.47 0.51 0.55 0.57 0.63 0.64 0.66 0.63 0.61 0.61 0.60 0.59 0.59 0.60 0.60 0.61 0.61 0.62 0.64 0.67 0.68 0.70 0.67 0.65 0.70 0.71 0.73 0.75 0.74 0.73 0.75 0.77 0.78 0.79 0.77
0.23 0.22 0.26 0.32 0.41 0.40 0.41 0.44 0.55 0.54 0.57 0.60 0.63 0.66 0.63 0.68 0.66 0.64 0.63 0.62 0.63 0.61 0.62 0.63 0.64 0.66 0.66 0.66 0.66 0.66 0.68 0.68 0.69 0.70 0.69 0.74 0.75 0.72 0.74 0.76 0.75 0.76 0.74 0.79
0.26 0.20 0.18 0.31 0.43 0.54 0.56 0.42 0.61 0.61 0.59 0.60 0.63 0.51 0.56 0.68 0.67 0.65 0.64 0.64 0.63 0.63 0.64 0.64 0.66 0.67 0.67 0.67 0.66 0.64 0.66 0.68 0.71 0.73 0.72 0.74 0.74 0.73 0.77 0.74 0.74 0.77 0.75 0.73
0.26 0.23 0.26 0.38 0.48 0.54 0.39 0.43 0.62 0.65 0.63 0.61 0.58 0.65 0.69 0.71 0.68 0.67 0.64 0.64 0.65 0.66 0.66 0.65 0.67 0.67 0.66 0.66 0.66 0.69 0.67 0.69 0.68 0.70 0.70 0.73 0.74 0.74 0.74 0.74 0.72 0.63 0.53 0.47
0.29 0.24 0.21 0.42 0.51 0.46 0.57 0.61 0.62 0.65 0.64 0.64 0.67 0.70 0.72 0.70 0.67 0.67 0.64 0.65 0.67 0.65 0.65 0.68 0.68 0.67 0.65 0.65 0.71 0.73 0.74 0.73 0.74 0.75 0.75 0.75 0.74 0.72 0.60 0.45 0.38 0.35 0.32 0.30
0.32 0.33 0.41 0.50 0.54 0.64 0.63 0.59 0.63 0.62 0.64 0.69 0.66 0.69 0.74 0.70 0.69 0.68 0.66 0.66 0.66 0.66 0.67 0.68 0.69 0.68 0.65 0.68 0.71 0.72 0.72 0.72 0.73 0.73 0.71 0.56 0.39 0.34 0.32 0.31 0.29 0.27 0.25 0.22
0.39 0.46 0.49 0.52 0.63 0.67 0.67 0.64 0.65 0.65 0.66 0.69 0.68 0.70 0.74 0.72 0.70 0.68 0.67 0.66 0.68 0.67 0.67 0.67 0.70 0.70 0.70 0.70 0.72 0.71 0.68 0.64 0.50 0.36 0.32 0.31 0.31 0.31 0.30 0.27 0.24 0.22 0.20 0.19
0.40 0.46 0.50 0.59 0.67 0.72 0.69 0.69 0.65 0.66 0.70 0.71 0.71 0.72 0.76 0.75 0.71 0.70 0.69 0.70 0.70 0.68 0.68 0.68 0.69 0.68 0.68 0.67 0.62 0.54 0.44 0.36 0.33 0.31 0.31 0.30 0.29 0.27 0.25 0.23 0.22 0.20 0.20 0.19
0.33 0.45 0.47 0.53 0.66 0.70 0.67 0.65 0.65 0.63 0.66 0.75 0.74 0.75 0.77 0.78 0.75 0.73 0.69 0.69 0.67 0.67 0.65 0.65 0.64 0.63 0.60 0.55 0.51 0.41 0.35 0.32 0.31 0.30 0.30 0.29 0.28 0.27 0.28 0.26 0.26 0.24 0.23 0.20
0.47 0.55 0.55 0.57 0.66 0.69 0.65 0.66 0.65 0.63 0.67 0.70 0.76 0.80 0.79 0.79 0.78 0.75 0.72 0.69 0.67 0.65 0.64 0.59 0.57 0.55 0.54 0.51 0.45 0.38 0.34 0.31 0.30 0.29 0.28 0.26 0.24 0.21 0.19 0.21 0.22 0.21 0.20 0.19
0.57 0.56 0.53 0.59 0.60 0.68 0.68 0.68 0.68 0.66 0.66 0.70 0.74 0.80 0.83 0.80 0.79 0.76 0.73 0.72 0.71 0.69 0.65 0.58 0.53 0.50 0.51 0.49 0.41 0.38 0.34 0.30 0.29 0.28 0.26 0.23 0.21 0.20 0.19 0.18 0.16 0.15 0.17 0.18
0.56 0.57 0.58 0.64 0.66 0.66 0.69 0.68 0.65 0.63 0.64 0.65 0.70 0.75 0.81 0.80 0.78 0.78 0.76 0.74 0.72 0.72 0.67 0.59 0.51 0.48 0.48 0.46 0.40 0.37 0.32 0.30 0.29 0.28 0.24 0.22 0.21 0.20 0.19 0.17 0.16 0.16 0.16 0.17
0.55 0.58 0.59 0.58 0.62 0.65 0.63 0.64 0.63 0.61 0.63 0.64 0.65 0.71 0.78 0.81 0.79 0.78 0.76 0.74 0.70 0.68 0.65 0.60 0.53 0.49 0.46 0.43 0.40 0.35 0.31 0.31 0.30 0.26 0.23 0.21 0.20 0.19 0.18 0.18 0.17 0.16 0.16 0.16
0.50 0.49 0.52 0.53 0.56 0.60 0.62 0.64 0.63 0.62 0.62 0.66 0.66 0.72 0.78 0.79 0.78 0.76 0.75 0.74 0.71 0.68 0.66 0.63 0.57 0.49 0.45 0.43 0.39 0.34 0.32 0.32 0.28 0.24 0.22 0.21 0.20 0.19 0.19 0.18 0.17 0.17 0.16 0.17
0.56 0.56 0.56 0.56 0.56 0.58 0.61 0.64 0.64 0.63 0.63 0.65 0.71 0.74 0.74 0.75 0.76 0.76 0.76 0.74 0.69 0.69 0.69 0.65 0.58 0.51 0.46 0.43 0.37 0.33 0.32 0.30 0.25 0.22 0.22 0.22 0.20 0.20 0.19 0.19 0.18 0.17 0.17 0.17
0.62 0.60 0.59 0.59 0.61 0.60 0.60 0.63 0.65 0.67 0.65 0.67 0.71 0.72 0.73 0.75 0.76 0.76 0.76 0.72 0.72 0.70 0.68 0.64 0.59 0.50 0.45 0.41 0.35 0.33 0.32 0.27 0.24 0.23 0.23 0.23 0.21 0.21 0.20 0.20 0.18 0.18 0.17 0.16
0.63 0.65 0.65 0.66 0.65 0.63 0.64 0.68 0.69 0.66 0.66 0.67 0.71 0.71 0.71 0.73 0.75 0.75 0.75 0.72 0.73 0.72 0.68 0.62 0.55 0.48 0.44 0.39 0.35 0.33 0.29 0.25 0.24 0.24 0.24 0.22 0.21 0.21 0.21 0.20 0.19 0.18 0.17 0.16
0.63 0.66 0.67 0.67 0.67 0.67 0.68 0.69 0.67 0.65 0.68 0.72 0.70 0.70 0.71 0.72 0.74 0.74 0.71 0.70 0.72 0.69 0.60 0.57 0.52 0.46 0.41 0.36 0.33 0.30 0.27 0.25 0.24 0.24 0.24 0.22 0.21 0.21 0.21 0.20 0.19 0.18 0.17 0.16
0.63 0.64 0.67 0.70 0.70 0.71 0.71 0.70 0.70 0.70 0.72 0.72 0.73 0.71 0.71 0.71 0.72 0.72 0.71 0.69 0.66 0.59 0.59 0.53 0.47 0.43 0.37 0.34 0.31 0.28 0.27 0.25 0.25 0.25 0.23 0.22 0.22 0.21 0.21 0.20 0.18 0.17 0.17 0.16
0.63 0.64 0.66 0.68 0.69 0.71 0.72 0.73 0.73 0.73 0.72 0.72 0.71 0.71 0.71 0.70 0.68 0.64 0.60 0.62 0.60 0.57 0.52 0.48 0.44 0.39 0.35 0.33 0.30 0.28 0.26 0.26 0.26 0.25 0.23 0.22 0.22 0.22 0.21 0.19 0.18 0.17 0.17 0.16
0.63 0.62 0.61 0.63 0.66 0.68 0.66 0.70 0.72 0.70 0.69 0.67 0.66 0.65 0.63 0.60 0.59 0.59 0.58 0.57 0.56 0.53 0.48 0.46 0.42 0.38 0.36 0.33 0.30 0.28 0.26 0.26 0.26 0.25 0.23 0.23 0.23 0.22 0.21 0.20 0.18 0.17 0.17 0.16
0.55 0.57 0.59 0.59 0.57 0.57 0.58 0.63 0.68 0.71 0.71 0.70 0.66 0.64 0.63 0.61 0.57 0.56 0.57 0.56 0.53 0.49 0.46 0.45 0.41 0.38 0.36 0.34 0.30 0.28 0.26 0.26 0.26 0.25 0.24 0.23 0.23 0.22 0.21 0.20 0.18 0.17 0.17 0.16
0.44 0.47 0.50 0.53 0.54 0.56 0.57 0.57 0.56 0.58 0.61 0.64 0.67 0.69 0.69 0.67 0.63 0.58 0.57 0.55 0.53 0.50 0.47 0.46 0.41 0.39 0.37 0.34 0.31 0.28 0.27 0.27 0.27 0.26 0.25 0.25 0.24 0.23 0.21 0.19 0.18 0.17 0.17 0.17
0.34 0.36 0.38 0.43 0.49 0.52 0.54 0.55 0.55 0.55 0.58 0.60 0.61 0.65 0.66 0.65 0.62 0.58 0.61 0.58 0.54 0.53 0.50 0.47 0.44 0.41 0.39 0.35 0.32 0.29 0.28 0.30 0.27 0.26 0.26 0.26 0.24 0.23 0.21 0.19 0.18 0.18 0.19 0.20

GFSNGP_prec_pwat_063.txt.gz
Precipitable_Water
0.29 0.33 0.33 0.31 0.30 0.30 0.27 0.28 0.22 0.24 0.25 0.29 0.36 0.42 0.48 0.53 0.57 0.59 0.59 0.58 0.58 0.58 0.56 0.54 0.53 0.51 0.49 0.49 0.50 0.52 0.55 0.59 0.62 0.64 0.63 0.64 0.65 0.67 0.71 0.71 0.72 0.74 0.72 0.73
0.25 0.31 0.32 0.29 0.32 0.32 0.31 0.30 0.29 0.29 0.28 0.43 0.50 0.54 0.54 0.60 0.60 0.58 0.58 0.58 0.58 0.57 0.55 0.53 0.52 0.50 0.50 0.49 0.52 0.52 0.54 0.57 0.61 0.61 0.63 0.68 0.71 0.74 0.75 0.77 0.77 0.78 0.76 0.75
0.22 0.31 0.31 0.24 0.29 0.30 0.31 0.34 0.33 0.27 0.37 0.46 0.49 0.52 0.57 0.60 0.60 0.59 0.59 0.60 0.58 0.57 0.57 0.58 0.57 0.56 0.53 0.53 0.56 0.58 0.57 0.59 0.58 0.59 0.64 0.72 0.74 0.76 0.79 0.78 0.79 0.78 0.78 0.79
0.26 0.28 0.18 0.29 0.38 0.37 0.33 0.34 0.37 0.42 0.47 0.52 0.55 0.59 0.62 0.65 0.62 0.60 0.60 0.60 0.60 0.60 0.60 0.61 0.61 0.61 0.62 0.60 0.61 0.60 0.61 0.61 0.60 0.61 0.66 0.70 0.72 0.74 0.77 0.77 0.76 0.76 0.77 0.79
0.23 0.22 0.26 0.35 0.41 0.39 0.38 0.41 0.51 0.51 0.54 0.57 0.60 0.63 0.63 0.66 0.66 0.63 0.63 0.63 0.62 0.64 0.62 0.62 0.63 0.65 0.65 0.65 0.65 0.62 0.62 0.62 0.63 0.64 0.64 0.68 0.70 0.73 0.73 0.73 0.74 0.74 0.74 0.73
0.26 0.19 0.17 0.33 0.45 0.53 0.53 0.38 0.60 0.59 0.59 0.58 0.61 0.48 0.57 0.66 0.66 0.64 0.64 0.63 0.65 0.62 0.62 0.62 0.63 0.65 0.66 0.66 0.65 0.64 0.65 0.64 0.66 0.68 0.67 0.68 0.69 0.70 0.73 0.73 0.69 0.71 0.71 0.71
0.25 0.22 0.25 0.38 0.46 0.49 0.35 0.41 0.59 0.62 0.63 0.61 0.57 0.61 0.68 0.70 0.68 0.66 0.65 0.65 0.66 0.65 0.64 0.63 0.66 0.67 0.64 0.66 0.64 0.68 0.69 0.68 0.67 0.69 0.70 0.72 0.72 0.73 0.72 0.71 0.70 0.62 0.54 0.49
0.28 0.24 0.20 0.41 0.48 0.42 0.55 0.61 0.63 0.64 0.64 0.63 0.67 0.67 0.68 0.70 0.67 0.66 0.65 0.65 0.66 0.65 0.64 0.65 0.67 0.65 0.63 0.64 0.69 0.72 0.72 0.71 0.71 0.72 0.73 0.72 0.71 0.63 0.48 0.39 0.34 0.31 0.29 0.27
0.32 0.32 0.42 0.49 0.50 0.58 0.65 0.62 0.64 0.63 0.65 0.67 0.66 0.66 0.70 0.71 0.69 0.67 0.65 0.65 0.67 0.66 0.65 0.67 0.68 0.67 0.64 0.67 0.69 0.70 0.70 0.68 0.69 0.69 0.58 0.38 0.31 0.31 0.31 0.30 0.27 0.24 0.22 0.20
0.38 0.44 0.46 0.49 0.54 0.60 0.69 0.68 0.66 0.66 0.65 0.68 0.67 0.70 0.70 0.72 0.69 0.67 0.67 0.66 0.68 0.67 0.65 0.64 0.67 0.68 0.67 0.67 0.68 0.67 0.64 0.55 0.39 0.32 0.31 0.31 0.31 0.29 0.26 0.23 0.21 0.20 0.19 0.18
0.39 0.44 0.48 0.54 0.59 0.66 0.73 0.71 0.69 0.66 0.64 0.67 0.70 0.69 0.73 0.74 0.69 0.68 0.68 0.69 0.69 0.68 0.66 0.65 0.67 0.66 0.67 0.65 0.59 0.51 0.40 0.33 0.31 0.31 0.29 0.29 0.27 0.25 0.23 0.22 0.21 0.19 0.19 0.18
0.31 0.43 0.43 0.47 0.57 0.62 0.66 0.66 0.66 0.65 0.63 0.69 0.72 0.73 0.77 0.74 0.75 0.72 0.70 0.70 0.68 0.66 0.65 0.65 0.65 0.64 0.58 0.54 0.49 0.38 0.33 0.31 0.31 0.30 0.29 0.28 0.26 0.26 0.27 0.27 0.26 0.24 0.22 0.20
0.44 0.53 0.54 0.56 0.59 0.63 0.66 0.68 0.68 0.66 0.66 0.64 0.71 0.75 0.78 0.78 0.78 0.76 0.73 0.69 0.67 0.66 0.66 0.64 0.59 0.55 0.52 0.49 0.41 0.36 0.33 0.31 0.30 0.29 0.29 0.26 0.24 0.21 0.20 0.22 0.23 0.22 0.21 0.20
0.55 0.54 0.49 0.54 0.53 0.63 0.68 0.69 0.70 0.69 0.70 0.69 0.67 0.71 0.76 0.77 0.81 0.77 0.74 0.73 0.71 0.68 0.63 0.60 0.55 0.53 0.50 0.47 0.40 0.37 0.33 0.31 0.30 0.29 0.26 0.23 0.21 0.20 0.19 0.17 0.17 0.17 0.18 0.19
0.53 0.55 0.54 0.56 0.58 0.62 0.66 0.66 0.66 0.66 0.68 0.69 0.69 0.67 0.70 0.75 0.77 0.78 0.77 0.77 0.74 0.71 0.69 0.61 0.53 0.50 0.51 0.46 0.40 0.37 0.33 0.31 0.31 0.29 0.25 0.23 0.21 0.20 0.19 0.19 0.18 0.18 0.18 0.19
0.54 0.55 0.54 0.54 0.56 0.59 0.62 0.64 0.61 0.63 0.66 0.67 0.68 0.68 0.68 0.73 0.76 0.80 0.79 0.78 0.74 0.71 0.72 0.67 0.56 0.51 0.50 0.46 0.40 0.37 0.33 0.32 0.31 0.28 0.25 0.23 0.21 0.20 0.20 0.19 0.19 0.19 0.18 0.18
0.51 0.48 0.50 0.51 0.52 0.53 0.56 0.62 0.64 0.64 0.64 0.65 0.65 0.69 0.70 0.71 0.74 0.78 0.77 0.77 0.76 0.75 0.75 0.70 0.61 0.55 0.50 0.45 0.41 0.36 0.33 0.32 0.31 0.27 0.25 0.22 0.22 0.20 0.20 0.20 0.20 0.19 0.19 0.19
0.56 0.55 0.55 0.55 0.54 0.53 0.54 0.59 0.62 0.64 0.64 0.66 0.65 0.67 0.68 0.68 0.72 0.76 0.77 0.76 0.74 0.72 0.72 0.72 0.66 0.59 0.51 0.46 0.41 0.37 0.34 0.33 0.30 0.26 0.24 0.23 0.22 0.21 0.21 0.21 0.21 0.20 0.19 0.19
0.59 0.59 0.60 0.60 0.60 0.58 0.57 0.60 0.64 0.65 0.65 0.65 0.65 0.64 0.70 0.74 0.74 0.76 0.76 0.75 0.73 0.71 0.71 0.71 0.67 0.59 0.53 0.47 0.41 0.36 0.34 0.32 0.28 0.26 0.24 0.24 0.23 0.22 0.22 0.22 0.21 0.21 0.20 0.19
0.59 0.62 0.63 0.64 0.65 0.61 0.59 0.61 0.62 0.62 0.67 0.66 0.65 0.65 0.69 0.72 0.73 0.75 0.75 0.73 0.74 0.75 0.74 0.72 0.68 0.60 0.54 0.48 0.42 0.36 0.33 0.31 0.27 0.25 0.24 0.24 0.23 0.22 0.23 0.23 0.22 0.21 0.19 0.18
0.59 0.61 0.62 0.64 0.65 0.65 0.62 0.62 0.64 0.64 0.67 0.67 0.64 0.65 0.68 0.71 0.73 0.73 0.71 0.70 0.74 0.76 0.76 0.74 0.67 0.58 0.53 0.49 0.41 0.34 0.32 0.29 0.26 0.25 0.25 0.25 0.24 0.23 0.23 0.22 0.22 0.20 0.19 0.18
0.60 0.60 0.62 0.64 0.65 0.67 0.69 0.68 0.68 0.67 0.67 0.68 0.69 0.69 0.69 0.69 0.71 0.72 0.74 0.72 0.74 0.75 0.74 0.71 0.61 0.55 0.53 0.46 0.36 0.32 0.30 0.28 0.26 0.26 0.26 0.25 0.24 0.23 0.22 0.22 0.21 0.20 0.19 0.18
0.61 0.62 0.62 0.63 0.64 0.67 0.69 0.70 0.70 0.70 0.69 0.70 0.70 0.71 0.70 0.70 0.72 0.69 0.67 0.73 0.74 0.74 0.70 0.62 0.58 0.54 0.49 0.40 0.34 0.32 0.30 0.28 0.26 0.26 0.26 0.25 0.24 0.24 0.23 0.23 0.22 0.21 0.20 0.18
0.54 0.60 0.62 0.63 0.62 0.63 0.64 0.68 0.69 0.69 0.68 0.70 0.71 0.72 0.71 0.70 0.70 0.72 0.70 0.71 0.70 0.69 0.61 0.57 0.53 0.49 0.46 0.38 0.33 0.32 0.30 0.28 0.26 0.26 0.26 0.26 0.25 0.25 0.25 0.24 0.22 0.21 0.20 0.19
0.45 0.48 0.52 0.55 0.56 0.60 0.60 0.60 0.62 0.67 0.69 0.69 0.68 0.66 0.64 0.64 0.62 0.63 0.63 0.62 0.61 0.58 0.54 0.52 0.49 0.48 0.44 0.37 0.34 0.33 0.31 0.29 0.27 0.26 0.26 0.25 0.26 0.26 0.26 0.25 0.23 0.21 0.20 0.19
0.37 0.37 0.38 0.43 0.47 0.50 0.54 0.57 0.57 0.57 0.58 0.59 0.65 0.68 0.67 0.69 0.65 0.62 0.60 0.59 0.59 0.58 0.54 0.51 0.49 0.48 0.44 0.38 0.35 0.34 0.32 0.30 0.28 0.29 0.29 0.28 0.27 0.28 0.27 0.25 0.23 0.21 0.20 0.20
0.29 0.28 0.27 0.28 0.32 0.38 0.44 0.48 0.50 0.52 0.55 0.57 0.57 0.62 0.66 0.68 0.69 0.67 0.62 0.60 0.59 0.58 0.55 0.52 0.50 0.49 0.46 0.42 0.39 0.36 0.35 0.32 0.33 0.33 0.33 0.30 0.28 0.30 0.29 0.25 0.22 0.21 0.21 0.23

GFSNGP_prec_pwat_069.txt.gz
Precipitable_Water
0.30 0.32 0.33 0.32 0.32 0.34 0.31 0.32 0.26 0.27 0.26 0.28 0.32 0.35 0.39 0.46 0.51 0.55 0.56 0.57 0.58 0.59 0.61 0.61 0.61 0.57 0.55 0.56 0.56 0.55 0.53 0.52 0.53 0.54 0.55 0.56 0.56 0.55 0.56 0.59 0.60 0.63 0.65 0.68
0.26 0.30 0.31 0.29 0.33 0.34 0.33 0.32 0.30 0.29 0.27 0.35 0.37 0.43 0.44 0.49 0.55 0.56 0.57 0.59 0.59 0.61 0.62 0.61 0.61 0.58 0.58 0.58 0.56 0.55 0.54 0.55 0.55 0.55 0.56 0.56 0.56 0.58 0.59 0.61 0.66 0.69 0.70 0.75
0.23 0.29 0.30 0.25 0.29 0.32 0.33 0.34 0.31 0.25 0.31 0.40 0.38 0.42 0.46 0.53 0.57 0.59 0.60 0.60 0.59 0.62 0.64 0.63 0.63 0.61 0.58 0.59 0.59 0.57 0.56 0.57 0.57 0.58 0.56 0.56 0.56 0.57 0.59 0.62 0.67 0.67 0.68 0.69
0.24 0.27 0.19 0.30 0.38 0.38 0.34 0.35 0.38 0.37 0.38 0.41 0.44 0.50 0.55 0.60 0.60 0.61 0.62 0.61 0.61 0.63 0.64 0.64 0.66 0.65 0.63 0.61 0.61 0.60 0.59 0.59 0.58 0.57 0.56 0.56 0.57 0.59 0.61 0.64 0.64 0.64 0.65 0.67
0.21 0.23 0.27 0.32 0.38 0.36 0.34 0.35 0.39 0.37 0.41 0.49 0.53 0.57 0.57 0.64 0.66 0.65 0.64 0.63 0.63 0.65 0.66 0.66 0.63 0.63 0.63 0.63 0.64 0.63 0.61 0.59 0.59 0.59 0.56 0.57 0.57 0.60 0.61 0.63 0.64 0.65 0.65 0.66
0.27 0.21 0.18 0.34 0.46 0.51 0.50 0.33 0.48 0.47 0.49 0.52 0.57 0.45 0.58 0.67 0.67 0.66 0.66 0.65 0.64 0.65 0.65 0.64 0.63 0.64 0.63 0.63 0.64 0.62 0.62 0.62 0.64 0.60 0.60 0.60 0.62 0.63 0.64 0.65 0.65 0.66 0.65 0.63
0.27 0.24 0.26 0.35 0.47 0.50 0.32 0.38 0.54 0.54 0.56 0.57 0.54 0.59 0.66 0.67 0.67 0.68 0.66 0.66 0.66 0.65 0.63 0.64 0.65 0.64 0.64 0.64 0.63 0.67 0.65 0.64 0.62 0.63 0.64 0.64 0.65 0.64 0.62 0.59 0.53 0.39 0.33 0.33
0.26 0.22 0.19 0.40 0.44 0.36 0.51 0.57 0.59 0.59 0.62 0.62 0.65 0.65 0.67 0.68 0.68 0.68 0.65 0.65 0.66 0.65 0.64 0.65 0.65 0.65 0.62 0.63 0.67 0.69 0.68 0.67 0.66 0.67 0.66 0.63 0.51 0.42 0.36 0.32 0.27 0.25 0.23 0.23
0.30 0.30 0.41 0.43 0.48 0.52 0.56 0.58 0.62 0.64 0.67 0.67 0.67 0.66 0.68 0.68 0.70 0.70 0.67 0.66 0.66 0.64 0.64 0.66 0.66 0.65 0.62 0.66 0.69 0.69 0.68 0.66 0.65 0.62 0.42 0.33 0.32 0.30 0.27 0.24 0.22 0.20 0.19 0.18
0.36 0.39 0.41 0.46 0.50 0.54 0.55 0.59 0.66 0.68 0.68 0.67 0.65 0.69 0.68 0.69 0.71 0.69 0.67 0.66 0.67 0.65 0.64 0.62 0.65 0.67 0.68 0.69 0.70 0.67 0.63 0.60 0.43 0.31 0.31 0.31 0.30 0.27 0.24 0.22 0.20 0.19 0.18 0.18
0.38 0.42 0.47 0.49 0.51 0.57 0.58 0.63 0.67 0.71 0.72 0.67 0.67 0.68 0.69 0.70 0.73 0.70 0.68 0.67 0.67 0.65 0.64 0.64 0.67 0.67 0.69 0.66 0.63 0.59 0.50 0.34 0.31 0.31 0.31 0.29 0.26 0.24 0.22 0.23 0.22 0.19 0.19 0.19
0.33 0.42 0.42 0.48 0.55 0.58 0.57 0.58 0.61 0.63 0.71 0.70 0.69 0.67 0.71 0.73 0.75 0.72 0.69 0.67 0.66 0.65 0.64 0.65 0.66 0.64 0.64 0.62 0.58 0.43 0.32 0.32 0.32 0.31 0.32 0.30 0.28 0.26 0.28 0.27 0.24 0.23 0.23 0.22
0.37 0.45 0.46 0.51 0.54 0.57 0.53 0.56 0.60 0.62 0.68 0.69 0.70 0.70 0.70 0.73 0.75 0.75 0.73 0.70 0.68 0.67 0.66 0.66 0.64 0.63 0.62 0.56 0.45 0.34 0.32 0.33 0.33 0.33 0.32 0.30 0.28 0.27 0.25 0.25 0.24 0.23 0.23 0.23
0.47 0.45 0.41 0.47 0.48 0.55 0.56 0.56 0.60 0.64 0.68 0.72 0.71 0.72 0.69 0.70 0.74 0.74 0.73 0.74 0.75 0.71 0.68 0.67 0.67 0.65 0.58 0.51 0.40 0.34 0.34 0.33 0.33 0.33 0.32 0.29 0.26 0.25 0.23 0.21 0.19 0.20 0.23 0.24
0.46 0.49 0.48 0.50 0.51 0.53 0.56 0.55 0.54 0.56 0.60 0.68 0.73 0.72 0.71 0.68 0.68 0.72 0.74 0.77 0.77 0.74 0.72 0.67 0.64 0.61 0.55 0.48 0.39 0.34 0.33 0.33 0.33 0.33 0.31 0.28 0.27 0.25 0.24 0.22 0.20 0.21 0.22 0.24
0.48 0.50 0.49 0.48 0.49 0.51 0.54 0.53 0.51 0.55 0.58 0.62 0.67 0.70 0.71 0.72 0.72 0.71 0.72 0.72 0.74 0.73 0.74 0.72 0.67 0.63 0.57 0.49 0.39 0.37 0.35 0.33 0.32 0.33 0.32 0.29 0.27 0.26 0.25 0.23 0.21 0.22 0.23 0.23
0.44 0.44 0.48 0.49 0.51 0.52 0.53 0.55 0.55 0.55 0.58 0.60 0.64 0.67 0.69 0.69 0.69 0.70 0.70 0.71 0.72 0.75 0.76 0.76 0.73 0.70 0.64 0.58 0.46 0.39 0.37 0.35 0.34 0.33 0.32 0.30 0.28 0.27 0.25 0.23 0.22 0.23 0.24 0.24
0.52 0.52 0.53 0.53 0.53 0.53 0.53 0.56 0.57 0.57 0.56 0.59 0.63 0.65 0.65 0.66 0.66 0.68 0.71 0.70 0.70 0.71 0.76 0.79 0.79 0.74 0.69 0.63 0.53 0.45 0.41 0.37 0.35 0.34 0.33 0.30 0.28 0.27 0.26 0.24 0.23 0.24 0.25 0.25
0.54 0.54 0.55 0.56 0.57 0.56 0.57 0.58 0.58 0.59 0.60 0.60 0.59 0.59 0.63 0.66 0.68 0.69 0.71 0.68 0.69 0.68 0.74 0.80 0.79 0.76 0.71 0.68 0.61 0.51 0.45 0.40 0.36 0.35 0.34 0.31 0.29 0.27 0.25 0.24 0.24 0.26 0.26 0.25
0.54 0.56 0.56 0.57 0.58 0.58 0.59 0.61 0.59 0.57 0.57 0.60 0.61 0.59 0.60 0.63 0.66 0.68 0.69 0.67 0.70 0.75 0.78 0.79 0.78 0.76 0.73 0.70 0.66 0.58 0.48 0.43 0.37 0.36 0.35 0.32 0.29 0.27 0.25 0.25 0.25 0.26 0.26 0.26
0.56 0.57 0.57 0.57 0.58 0.60 0.62 0.63 0.62 0.57 0.57 0.58 0.58 0.59 0.60 0.64 0.66 0.66 0.65 0.65 0.73 0.78 0.79 0.78 0.77 0.76 0.75 0.72 0.68 0.60 0.53 0.48 0.40 0.36 0.37 0.32 0.28 0.27 0.26 0.25 0.25 0.25 0.26 0.26
0.57 0.57 0.58 0.59 0.59 0.60 0.63 0.64 0.65 0.64 0.62 0.59 0.59 0.59 0.58 0.60 0.64 0.67 0.70 0.68 0.73 0.77 0.77 0.77 0.77 0.77 0.75 0.73 0.68 0.59 0.55 0.51 0.41 0.40 0.37 0.31 0.28 0.26 0.26 0.25 0.25 0.26 0.27 0.28
0.54 0.54 0.53 0.56 0.58 0.60 0.62 0.63 0.64 0.65 0.64 0.65 0.65 0.65 0.64 0.65 0.66 0.65 0.64 0.71 0.74 0.75 0.75 0.75 0.75 0.75 0.73 0.71 0.67 0.59 0.57 0.52 0.45 0.40 0.34 0.31 0.29 0.28 0.27 0.26 0.25 0.26 0.27 0.30
0.46 0.47 0.45 0.45 0.48 0.49 0.56 0.61 0.63 0.64 0.65 0.66 0.67 0.68 0.67 0.66 0.68 0.71 0.72 0.73 0.74 0.74 0.74 0.74 0.73 0.72 0.71 0.69 0.67 0.62 0.58 0.52 0.45 0.39 0.34 0.31 0.30 0.29 0.28 0.27 0.26 0.28 0.30 0.32
0.43 0.42 0.39 0.37 0.38 0.37 0.41 0.50 0.58 0.60 0.61 0.65 0.66 0.68 0.69 0.70 0.67 0.69 0.71 0.72 0.73 0.72 0.71 0.72 0.71 0.70 0.69 0.67 0.65 0.61 0.57 0.52 0.45 0.38 0.34 0.32 0.31 0.30 0.29 0.29 0.29 0.30 0.32 0.32
0.36 0.33 0.31 0.30 0.30 0.30 0.32 0.35 0.37 0.47 0.52 0.53 0.59 0.63 0.67 0.69 0.69 0.69 0.68 0.70 0.70 0.71 0.69 0.70 0.69 0.69 0.68 0.67 0.65 0.61 0.52 0.48 0.42 0.38 0.36 0.34 0.33 0.31 0.30 0.32 0.33 0.33 0.32 0.32
0.28 0.25 0.23 0.22 0.23 0.23 0.24 0.24 0.22 0.25 0.34 0.41 0.45 0.51 0.56 0.60 0.63 0.67 0.67 0.65 0.65 0.67 0.67 0.68 0.68 0.68 0.67 0.65 0.61 0.53 0.50 0.47 0.42 0.40 0.39 0.37 0.36 0.34 0.33 0.34 0.34 0.33 0.32 0.31

GFSNGP_prec_pwat_072.txt.gz
Precipitable_Water
0.30 0.32 0.32 0.32 0.33 0.37 0.33 0.34 0.28 0.29 0.28 0.32 0.36 0.36 0.37 0.44 0.47 0.49 0.53 0.55 0.57 0.57 0.59 0.61 0.62 0.61 0.61 0.58 0.57 0.58 0.57 0.55 0.54 0.54 0.55 0.56 0.56 0.55 0.55 0.53 0.54 0.56 0.58 0.62
0.24 0.29 0.29 0.26 0.31 0.33 0.34 0.34 0.34 0.34 0.31 0.35 0.38 0.40 0.41 0.45 0.49 0.54 0.57 0.58 0.59 0.61 0.61 0.61 0.62 0.61 0.62 0.59 0.59 0.60 0.56 0.55 0.57 0.57 0.56 0.55 0.57 0.56 0.56 0.57 0.58 0.59 0.61 0.64
0.23 0.27 0.27 0.22 0.27 0.30 0.33 0.34 0.33 0.28 0.33 0.39 0.38 0.39 0.43 0.46 0.54 0.56 0.58 0.60 0.60 0.60 0.61 0.63 0.64 0.64 0.63 0.61 0.61 0.60 0.58 0.59 0.58 0.59 0.58 0.58 0.56 0.54 0.55 0.56 0.57 0.59 0.61 0.62
0.24 0.25 0.17 0.30 0.38 0.37 0.34 0.36 0.37 0.35 0.37 0.40 0.40 0.43 0.48 0.55 0.56 0.57 0.61 0.62 0.61 0.62 0.64 0.65 0.67 0.66 0.66 0.64 0.62 0.62 0.61 0.60 0.60 0.61 0.58 0.56 0.54 0.54 0.56 0.58 0.58 0.60 0.62 0.63
0.21 0.22 0.27 0.32 0.36 0.35 0.33 0.32 0.39 0.37 0.40 0.42 0.46 0.52 0.53 0.59 0.63 0.64 0.65 0.65 0.64 0.66 0.66 0.67 0.67 0.67 0.64 0.64 0.63 0.62 0.63 0.61 0.62 0.61 0.56 0.55 0.54 0.56 0.59 0.60 0.61 0.61 0.62 0.62
0.26 0.18 0.18 0.35 0.44 0.47 0.46 0.32 0.42 0.41 0.42 0.46 0.53 0.42 0.52 0.67 0.68 0.67 0.67 0.67 0.66 0.66 0.67 0.66 0.66 0.66 0.62 0.62 0.63 0.63 0.63 0.63 0.63 0.61 0.59 0.57 0.58 0.60 0.62 0.62 0.60 0.58 0.49 0.37
0.24 0.23 0.27 0.38 0.47 0.53 0.32 0.37 0.52 0.51 0.52 0.54 0.52 0.58 0.65 0.67 0.66 0.68 0.68 0.68 0.67 0.66 0.64 0.65 0.66 0.66 0.62 0.62 0.63 0.67 0.67 0.64 0.62 0.62 0.61 0.62 0.62 0.62 0.58 0.45 0.34 0.32 0.30 0.29
0.27 0.23 0.19 0.41 0.44 0.35 0.50 0.59 0.59 0.59 0.61 0.61 0.63 0.65 0.65 0.66 0.66 0.67 0.69 0.68 0.67 0.65 0.65 0.67 0.67 0.65 0.63 0.63 0.67 0.69 0.66 0.64 0.63 0.64 0.64 0.62 0.49 0.40 0.34 0.30 0.26 0.24 0.23 0.22
0.28 0.27 0.39 0.45 0.46 0.52 0.56 0.56 0.62 0.62 0.63 0.65 0.65 0.65 0.66 0.66 0.68 0.70 0.70 0.68 0.68 0.66 0.65 0.66 0.67 0.67 0.63 0.65 0.68 0.68 0.66 0.65 0.65 0.64 0.51 0.38 0.33 0.30 0.27 0.25 0.23 0.21 0.20 0.19
0.34 0.39 0.40 0.44 0.51 0.53 0.54 0.54 0.61 0.66 0.67 0.67 0.65 0.67 0.66 0.67 0.69 0.70 0.70 0.68 0.69 0.67 0.65 0.64 0.66 0.66 0.67 0.69 0.71 0.68 0.65 0.64 0.57 0.36 0.31 0.31 0.30 0.27 0.25 0.23 0.21 0.20 0.19 0.18
0.37 0.43 0.45 0.47 0.49 0.54 0.56 0.59 0.61 0.67 0.69 0.69 0.69 0.68 0.68 0.69 0.72 0.74 0.71 0.69 0.68 0.66 0.65 0.64 0.67 0.67 0.70 0.70 0.68 0.64 0.60 0.50 0.33 0.31 0.31 0.30 0.30 0.26 0.25 0.26 0.24 0.21 0.21 0.20
0.35 0.44 0.44 0.48 0.54 0.58 0.55 0.55 0.59 0.59 0.61 0.66 0.72 0.69 0.69 0.70 0.75 0.75 0.73 0.71 0.67 0.67 0.65 0.65 0.67 0.67 0.68 0.67 0.63 0.56 0.48 0.33 0.31 0.32 0.31 0.30 0.29 0.29 0.31 0.28 0.26 0.25 0.24 0.23
0.39 0.47 0.46 0.49 0.52 0.55 0.52 0.54 0.56 0.58 0.59 0.59 0.68 0.73 0.71 0.68 0.74 0.75 0.74 0.73 0.69 0.67 0.66 0.65 0.65 0.64 0.65 0.63 0.58 0.47 0.34 0.32 0.32 0.32 0.33 0.31 0.31 0.30 0.27 0.28 0.27 0.26 0.25 0.24
0.46 0.46 0.40 0.44 0.44 0.51 0.52 0.54 0.57 0.57 0.59 0.63 0.66 0.75 0.73 0.70 0.70 0.74 0.72 0.74 0.75 0.73 0.68 0.68 0.66 0.64 0.67 0.64 0.54 0.39 0.32 0.33 0.32 0.33 0.33 0.32 0.30 0.30 0.29 0.26 0.24 0.24 0.25 0.24
0.46 0.49 0.47 0.49 0.50 0.50 0.51 0.51 0.51 0.52 0.55 0.58 0.64 0.69 0.74 0.71 0.69 0.69 0.74 0.74 0.75 0.75 0.73 0.70 0.68 0.67 0.69 0.62 0.49 0.38 0.34 0.33 0.32 0.33 0.34 0.32 0.29 0.28 0.27 0.25 0.24 0.23 0.24 0.25
0.48 0.48 0.47 0.46 0.47 0.48 0.49 0.49 0.48 0.50 0.53 0.55 0.59 0.62 0.70 0.73 0.73 0.73 0.73 0.72 0.69 0.69 0.75 0.74 0.72 0.69 0.68 0.60 0.51 0.41 0.35 0.34 0.33 0.33 0.33 0.31 0.29 0.28 0.27 0.26 0.25 0.24 0.24 0.24
0.44 0.41 0.44 0.45 0.46 0.48 0.49 0.52 0.53 0.53 0.54 0.54 0.56 0.60 0.63 0.67 0.69 0.69 0.70 0.73 0.72 0.71 0.70 0.74 0.75 0.77 0.72 0.63 0.55 0.46 0.41 0.35 0.33 0.33 0.34 0.32 0.30 0.29 0.28 0.26 0.25 0.25 0.25 0.25
0.51 0.50 0.50 0.49 0.48 0.48 0.51 0.54 0.55 0.55 0.55 0.58 0.59 0.59 0.59 0.62 0.64 0.67 0.69 0.71 0.71 0.72 0.72 0.72 0.73 0.78 0.77 0.71 0.62 0.55 0.48 0.41 0.37 0.34 0.34 0.34 0.32 0.30 0.29 0.27 0.25 0.25 0.25 0.26
0.53 0.51 0.51 0.51 0.52 0.52 0.54 0.55 0.57 0.58 0.57 0.57 0.56 0.56 0.58 0.59 0.64 0.67 0.70 0.69 0.69 0.68 0.72 0.73 0.73 0.73 0.76 0.74 0.70 0.63 0.55 0.48 0.42 0.37 0.36 0.36 0.34 0.32 0.30 0.28 0.26 0.25 0.25 0.26
0.53 0.54 0.53 0.52 0.54 0.54 0.54 0.57 0.58 0.58 0.58 0.57 0.57 0.58 0.58 0.59 0.60 0.63 0.66 0.65 0.69 0.71 0.76 0.74 0.74 0.73 0.75 0.75 0.72 0.68 0.64 0.57 0.49 0.42 0.38 0.37 0.35 0.33 0.32 0.29 0.27 0.25 0.25 0.26
0.54 0.54 0.54 0.55 0.55 0.57 0.58 0.59 0.59 0.59 0.61 0.59 0.56 0.56 0.56 0.59 0.61 0.62 0.61 0.61 0.68 0.73 0.73 0.74 0.74 0.75 0.76 0.75 0.73 0.70 0.67 0.62 0.56 0.47 0.41 0.40 0.37 0.35 0.33 0.29 0.27 0.25 0.25 0.25
0.58 0.57 0.55 0.57 0.57 0.58 0.60 0.61 0.61 0.61 0.63 0.63 0.60 0.58 0.57 0.56 0.60 0.62 0.64 0.64 0.69 0.72 0.73 0.74 0.75 0.76 0.75 0.75 0.74 0.71 0.68 0.65 0.59 0.52 0.51 0.45 0.38 0.38 0.32 0.28 0.27 0.26 0.25 0.25
0.52 0.49 0.48 0.46 0.47 0.51 0.55 0.60 0.61 0.62 0.61 0.62 0.62 0.63 0.62 0.62 0.61 0.59 0.58 0.66 0.70 0.71 0.72 0.73 0.75 0.76 0.75 0.73 0.72 0.71 0.69 0.65 0.59 0.55 0.56 0.45 0.43 0.38 0.32 0.29 0.28 0.27 0.26 0.26
0.47 0.46 0.44 0.41 0.42 0.41 0.39 0.44 0.52 0.61 0.62 0.63 0.64 0.65 0.64 0.63 0.65 0.68 0.69 0.70 0.70 0.71 0.71 0.73 0.74 0.74 0.73 0.72 0.70 0.69 0.67 0.65 0.59 0.59 0.56 0.49 0.41 0.37 0.34 0.31 0.29 0.28 0.28 0.30
0.42 0.40 0.38 0.34 0.32 0.31 0.33 0.36 0.38 0.42 0.51 0.59 0.61 0.64 0.66 0.67 0.64 0.66 0.68 0.68 0.69 0.70 0.70 0.72 0.72 0.72 0.71 0.69 0.68 0.67 0.66 0.64 0.62 0.62 0.56 0.46 0.43 0.40 0.35 0.32 0.31 0.29 0.30 0.32
0.35 0.32 0.30 0.28 0.26 0.26 0.26 0.27 0.27 0.29 0.32 0.36 0.48 0.56 0.58 0.63 0.66 0.67 0.67 0.68 0.69 0.69 0.69 0.70 0.69 0.69 0.68 0.67 0.66 0.65 0.65 0.64 0.63 0.61 0.53 0.47 0.43 0.38 0.35 0.33 0.32 0.32 0.33 0.35
0.32 0.29 0.25 0.22 0.22 0.21 0.20 0.21 0.20 0.20 0.21 0.20 0.24 0.36 0.45 0.50 0.54 0.61 0.64 0.66 0.66 0.67 0.67 0.67 0.68 0.68 0.67 0.65 0.65 0.64 0.64 0.64 0.63 0.58 0.53 0.46 0.42 0.39 0.38 0.38 0.36 0.35 0.36 0.37

GFSNGP_prec_pwat_075.txt.gz
Precipitable_Water
0.31 0.34 0.34 0.33 0.36 0.38 0.36 0.37 0.30 0.33 0.33 0.37 0.38 0.39 0.39 0.43 0.47 0.50 0.52 0.55 0.57 0.58 0.59 0.59 0.60 0.62 0.63 0.63 0.63 0.62 0.59 0.58 0.58 0.58 0.56 0.55 0.55 0.56 0.57 0.57 0.55 0.54 0.55 0.57
0.23 0.28 0.29 0.26 0.31 0.34 0.37 0.38 0.36 0.36 0.33 0.39 0.44 0.44 0.40 0.41 0.45 0.46 0.50 0.57 0.59 0.61 0.62 0.62 0.62 0.63 0.64 0.63 0.63 0.63 0.61 0.59 0.59 0.59 0.58 0.57 0.56 0.57 0.57 0.54 0.54 0.57 0.59 0.61
0.20 0.28 0.26 0.20 0.25 0.28 0.31 0.33 0.34 0.30 0.35 0.40 0.41 0.42 0.42 0.46 0.50 0.50 0.57 0.59 0.61 0.63 0.63 0.64 0.64 0.66 0.65 0.66 0.66 0.62 0.60 0.61 0.62 0.61 0.59 0.58 0.58 0.56 0.52 0.53 0.58 0.57 0.58 0.60
0.22 0.25 0.14 0.28 0.36 0.36 0.32 0.34 0.36 0.36 0.38 0.42 0.43 0.45 0.46 0.50 0.50 0.56 0.61 0.61 0.64 0.66 0.65 0.66 0.67 0.68 0.68 0.66 0.65 0.63 0.62 0.64 0.63 0.62 0.60 0.60 0.56 0.52 0.53 0.56 0.58 0.59 0.60 0.62
0.20 0.21 0.25 0.29 0.34 0.33 0.31 0.30 0.38 0.36 0.38 0.42 0.45 0.45 0.44 0.52 0.59 0.61 0.63 0.66 0.68 0.68 0.68 0.68 0.68 0.69 0.67 0.66 0.65 0.65 0.64 0.64 0.64 0.62 0.60 0.57 0.53 0.54 0.56 0.58 0.59 0.59 0.60 0.59
0.26 0.18 0.16 0.32 0.41 0.45 0.45 0.29 0.44 0.42 0.40 0.42 0.46 0.35 0.43 0.61 0.64 0.67 0.69 0.69 0.68 0.70 0.70 0.69 0.69 0.69 0.66 0.64 0.62 0.62 0.64 0.64 0.64 0.63 0.60 0.58 0.58 0.58 0.60 0.61 0.58 0.51 0.33 0.29
0.25 0.22 0.24 0.38 0.45 0.49 0.30 0.33 0.47 0.43 0.44 0.47 0.45 0.54 0.62 0.66 0.67 0.68 0.68 0.68 0.71 0.70 0.67 0.68 0.69 0.68 0.64 0.63 0.62 0.65 0.66 0.66 0.64 0.63 0.61 0.61 0.62 0.62 0.58 0.45 0.34 0.31 0.29 0.28
0.26 0.21 0.18 0.43 0.44 0.36 0.48 0.57 0.58 0.57 0.55 0.55 0.59 0.63 0.65 0.65 0.64 0.66 0.66 0.69 0.70 0.67 0.67 0.68 0.69 0.67 0.64 0.62 0.66 0.68 0.68 0.65 0.63 0.63 0.63 0.63 0.59 0.44 0.35 0.31 0.27 0.25 0.24 0.24
0.28 0.27 0.38 0.45 0.45 0.54 0.59 0.56 0.61 0.62 0.62 0.64 0.63 0.64 0.65 0.65 0.66 0.67 0.69 0.71 0.70 0.68 0.66 0.67 0.68 0.68 0.64 0.65 0.68 0.68 0.66 0.64 0.64 0.64 0.63 0.48 0.37 0.32 0.28 0.26 0.23 0.22 0.21 0.21
0.35 0.38 0.40 0.45 0.51 0.54 0.55 0.54 0.59 0.63 0.66 0.67 0.64 0.66 0.65 0.66 0.66 0.67 0.69 0.70 0.69 0.68 0.66 0.65 0.68 0.68 0.68 0.68 0.69 0.68 0.66 0.65 0.65 0.61 0.39 0.36 0.32 0.29 0.25 0.23 0.22 0.21 0.22 0.22
0.37 0.42 0.46 0.47 0.51 0.54 0.55 0.58 0.60 0.64 0.66 0.67 0.68 0.68 0.68 0.68 0.69 0.72 0.72 0.72 0.70 0.68 0.67 0.66 0.67 0.67 0.69 0.70 0.70 0.68 0.67 0.65 0.57 0.36 0.32 0.31 0.30 0.27 0.26 0.26 0.24 0.23 0.23 0.23
0.36 0.46 0.46 0.48 0.55 0.58 0.55 0.56 0.58 0.58 0.58 0.62 0.64 0.66 0.71 0.69 0.71 0.74 0.74 0.74 0.72 0.69 0.68 0.67 0.68 0.68 0.70 0.72 0.71 0.66 0.60 0.54 0.37 0.32 0.32 0.32 0.30 0.29 0.31 0.30 0.30 0.29 0.27 0.26
0.41 0.50 0.50 0.53 0.56 0.58 0.54 0.53 0.55 0.56 0.58 0.59 0.62 0.64 0.69 0.72 0.72 0.74 0.76 0.75 0.74 0.70 0.69 0.67 0.67 0.65 0.68 0.67 0.65 0.59 0.54 0.42 0.32 0.32 0.31 0.31 0.30 0.29 0.28 0.30 0.30 0.28 0.27 0.28
0.47 0.46 0.43 0.47 0.44 0.49 0.50 0.52 0.54 0.55 0.57 0.58 0.60 0.65 0.68 0.73 0.74 0.71 0.73 0.75 0.75 0.74 0.72 0.68 0.67 0.66 0.67 0.66 0.61 0.56 0.49 0.36 0.32 0.32 0.32 0.33 0.32 0.31 0.30 0.28 0.26 0.25 0.28 0.28
0.48 0.50 0.48 0.50 0.50 0.50 0.53 0.52 0.49 0.48 0.51 0.54 0.59 0.60 0.65 0.69 0.73 0.73 0.73 0.75 0.75 0.73 0.73 0.74 0.69 0.68 0.70 0.69 0.64 0.55 0.44 0.36 0.33 0.33 0.34 0.34 0.32 0.31 0.30 0.29 0.26 0.24 0.25 0.27
0.49 0.50 0.49 0.47 0.46 0.47 0.48 0.48 0.46 0.47 0.50 0.51 0.54 0.57 0.61 0.65 0.70 0.75 0.75 0.74 0.69 0.69 0.71 0.74 0.75 0.73 0.70 0.69 0.66 0.57 0.45 0.37 0.34 0.33 0.33 0.33 0.32 0.30 0.28 0.28 0.27 0.25 0.25 0.25
0.44 0.43 0.46 0.46 0.46 0.47 0.46 0.49 0.50 0.50 0.52 0.53 0.54 0.57 0.58 0.60 0.62 0.65 0.70 0.72 0.72 0.71 0.72 0.71 0.72 0.78 0.78 0.74 0.66 0.59 0.50 0.42 0.39 0.35 0.32 0.32 0.33 0.31 0.29 0.28 0.28 0.27 0.26 0.26
0.51 0.51 0.52 0.51 0.50 0.48 0.47 0.49 0.50 0.52 0.53 0.56 0.57 0.57 0.57 0.56 0.56 0.60 0.66 0.70 0.70 0.70 0.72 0.74 0.75 0.73 0.72 0.75 0.74 0.68 0.58 0.48 0.44 0.39 0.35 0.34 0.34 0.33 0.31 0.29 0.29 0.28 0.27 0.27
0.54 0.52 0.52 0.51 0.51 0.50 0.50 0.51 0.52 0.54 0.55 0.56 0.55 0.54 0.55 0.57 0.59 0.60 0.63 0.65 0.67 0.67 0.70 0.75 0.77 0.76 0.72 0.70 0.71 0.70 0.67 0.58 0.52 0.47 0.41 0.37 0.35 0.35 0.34 0.31 0.30 0.29 0.28 0.27
0.54 0.54 0.54 0.53 0.53 0.52 0.51 0.53 0.53 0.54 0.56 0.56 0.55 0.55 0.55 0.57 0.60 0.60 0.61 0.59 0.65 0.68 0.73 0.74 0.74 0.75 0.75 0.72 0.70 0.69 0.67 0.65 0.59 0.55 0.49 0.43 0.38 0.35 0.38 0.35 0.31 0.30 0.30 0.27
0.54 0.55 0.54 0.54 0.54 0.55 0.54 0.54 0.53 0.53 0.56 0.58 0.57 0.56 0.56 0.59 0.60 0.59 0.57 0.56 0.62 0.68 0.70 0.72 0.73 0.73 0.74 0.72 0.72 0.70 0.68 0.67 0.63 0.60 0.55 0.51 0.45 0.38 0.39 0.39 0.34 0.33 0.31 0.28
0.57 0.53 0.51 0.50 0.49 0.51 0.53 0.56 0.58 0.58 0.58 0.58 0.60 0.61 0.60 0.58 0.58 0.57 0.60 0.60 0.65 0.67 0.67 0.69 0.72 0.74 0.73 0.73 0.71 0.70 0.69 0.69 0.67 0.64 0.60 0.56 0.52 0.44 0.45 0.44 0.38 0.37 0.32 0.28
0.52 0.49 0.47 0.43 0.41 0.43 0.45 0.46 0.48 0.57 0.59 0.60 0.60 0.61 0.61 0.62 0.62 0.58 0.54 0.61 0.65 0.66 0.67 0.68 0.70 0.72 0.72 0.71 0.71 0.71 0.70 0.69 0.68 0.66 0.63 0.60 0.54 0.55 0.50 0.44 0.43 0.36 0.31 0.29
0.46 0.45 0.42 0.39 0.38 0.35 0.32 0.35 0.37 0.41 0.44 0.57 0.60 0.62 0.61 0.60 0.62 0.65 0.66 0.66 0.67 0.67 0.68 0.69 0.69 0.70 0.70 0.70 0.70 0.70 0.69 0.68 0.67 0.66 0.64 0.61 0.57 0.59 0.50 0.48 0.41 0.35 0.33 0.32
0.40 0.38 0.36 0.33 0.31 0.30 0.29 0.29 0.29 0.30 0.32 0.34 0.40 0.54 0.61 0.63 0.61 0.63 0.65 0.65 0.66 0.67 0.67 0.68 0.69 0.69 0.69 0.69 0.68 0.67 0.67 0.66 0.66 0.64 0.63 0.60 0.61 0.58 0.53 0.45 0.41 0.39 0.36 0.33
0.37 0.34 0.32 0.30 0.27 0.25 0.24 0.25 0.23 0.23 0.22 0.23 0.26 0.32 0.38 0.51 0.58 0.60 0.63 0.65 0.65 0.66 0.66 0.67 0.68 0.68 0.68 0.68 0.67 0.66 0.65 0.64 0.63 0.63 0.62 0.61 0.61 0.58 0.50 0.46 0.43 0.40 0.36 0.34
0.36 0.33 0.29 0.25 0.23 0.21 0.20 0.21 0.20 0.19 0.19 0.18 0.19 0.22 0.24 0.27 0.35 0.46 0.52 0.56 0.62 0.64 0.65 0.66 0.67 0.67 0.67 0.67 0.66 0.65 0.64 0.63 0.63 0.62 0.62 0.61 0.60 0.54 0.50 0.46 0.42 0.39 0.38 0.38

GFSNGP_prec_pwat_078.txt.gz
Precipitable_Water
0.35 0.37 0.38 0.38 0.37 0.39 0.37 0.37 0.30 0.33 0.32 0.36 0.42 0.43 0.45 0.45 0.51 0.53 0.54 0.57 0.58 0.60 0.62 0.62 0.62 0.61 0.62 0.62 0.63 0.62 0.61 0.61 0.59 0.60 0.59 0.59 0.58 0.58 0.58 0.56 0.56 0.58 0.56 0.53
0.25 0.29 0.30 0.27 0.32 0.36 0.37 0.38 0.38 0.37 0.34 0.43 0.46 0.47 0.43 0.44 0.46 0.49 0.51 0.53 0.58 0.62 0.63 0.62 0.63 0.63 0.63 0.63 0.65 0.66 0.63 0.61 0.61 0.62 0.62 0.60 0.59 0.57 0.57 0.58 0.58 0.55 0.53 0.55
0.19 0.27 0.26 0.20 0.23 0.28 0.32 0.37 0.38 0.33 0.37 0.41 0.42 0.43 0.45 0.42 0.44 0.46 0.49 0.53 0.60 0.63 0.65 0.67 0.66 0.65 0.64 0.65 0.68 0.67 0.65 0.63 0.63 0.63 0.63 0.63 0.60 0.58 0.57 0.57 0.54 0.55 0.57 0.58
0.23 0.25 0.14 0.23 0.35 0.33 0.30 0.32 0.36 0.37 0.39 0.41 0.42 0.46 0.48 0.50 0.47 0.50 0.54 0.59 0.63 0.65 0.66 0.69 0.70 0.68 0.69 0.69 0.69 0.67 0.65 0.64 0.65 0.65 0.64 0.63 0.62 0.59 0.57 0.54 0.54 0.56 0.59 0.61
0.21 0.20 0.22 0.26 0.32 0.31 0.29 0.29 0.36 0.35 0.39 0.42 0.46 0.48 0.47 0.53 0.54 0.54 0.60 0.65 0.67 0.69 0.70 0.69 0.69 0.70 0.70 0.69 0.68 0.67 0.66 0.67 0.66 0.66 0.64 0.62 0.59 0.56 0.55 0.54 0.55 0.58 0.60 0.58
0.25 0.18 0.15 0.30 0.39 0.45 0.42 0.25 0.42 0.39 0.39 0.41 0.46 0.34 0.39 0.51 0.53 0.59 0.65 0.68 0.69 0.71 0.71 0.70 0.70 0.71 0.69 0.67 0.66 0.65 0.65 0.67 0.68 0.67 0.65 0.61 0.58 0.57 0.58 0.58 0.58 0.54 0.40 0.32
0.24 0.21 0.23 0.33 0.43 0.47 0.28 0.31 0.46 0.45 0.43 0.42 0.41 0.44 0.52 0.59 0.64 0.68 0.69 0.69 0.71 0.70 0.70 0.71 0.72 0.71 0.68 0.66 0.65 0.66 0.66 0.67 0.66 0.66 0.64 0.62 0.60 0.60 0.59 0.56 0.43 0.31 0.27 0.27
0.25 0.22 0.17 0.41 0.43 0.35 0.46 0.55 0.56 0.50 0.49 0.48 0.51 0.55 0.63 0.64 0.64 0.66 0.66 0.68 0.69 0.70 0.70 0.71 0.72 0.69 0.66 0.65 0.68 0.68 0.67 0.66 0.66 0.65 0.63 0.63 0.61 0.60 0.50 0.36 0.29 0.27 0.26 0.25
0.28 0.27 0.37 0.44 0.44 0.51 0.59 0.56 0.61 0.62 0.63 0.62 0.61 0.62 0.65 0.65 0.66 0.67 0.67 0.68 0.71 0.70 0.68 0.70 0.71 0.69 0.66 0.68 0.69 0.69 0.68 0.66 0.66 0.64 0.64 0.64 0.58 0.38 0.31 0.28 0.25 0.23 0.23 0.23
0.34 0.38 0.39 0.43 0.50 0.56 0.59 0.59 0.60 0.64 0.65 0.68 0.64 0.66 0.65 0.65 0.65 0.66 0.67 0.68 0.70 0.69 0.68 0.68 0.70 0.70 0.70 0.70 0.70 0.69 0.67 0.66 0.65 0.63 0.63 0.53 0.37 0.32 0.28 0.25 0.23 0.22 0.21 0.22
0.37 0.40 0.44 0.47 0.51 0.55 0.56 0.58 0.58 0.62 0.65 0.66 0.68 0.69 0.70 0.68 0.68 0.70 0.72 0.73 0.73 0.70 0.69 0.69 0.70 0.70 0.71 0.71 0.70 0.67 0.67 0.66 0.65 0.65 0.49 0.35 0.32 0.29 0.26 0.26 0.25 0.23 0.23 0.24
0.35 0.46 0.44 0.46 0.53 0.58 0.56 0.57 0.59 0.59 0.59 0.62 0.62 0.62 0.66 0.68 0.71 0.71 0.73 0.75 0.73 0.72 0.70 0.69 0.69 0.69 0.71 0.72 0.71 0.69 0.67 0.67 0.66 0.56 0.35 0.33 0.30 0.29 0.30 0.30 0.29 0.28 0.27 0.26
0.40 0.50 0.52 0.54 0.57 0.59 0.57 0.56 0.55 0.54 0.55 0.54 0.59 0.63 0.64 0.64 0.70 0.73 0.74 0.75 0.75 0.75 0.72 0.70 0.69 0.69 0.71 0.72 0.72 0.70 0.67 0.63 0.56 0.37 0.32 0.32 0.31 0.29 0.27 0.30 0.31 0.30 0.29 0.29
0.48 0.48 0.45 0.50 0.48 0.55 0.53 0.52 0.52 0.52 0.53 0.54 0.56 0.59 0.61 0.64 0.67 0.72 0.73 0.75 0.76 0.76 0.75 0.73 0.70 0.69 0.70 0.70 0.68 0.65 0.61 0.57 0.48 0.32 0.32 0.32 0.32 0.30 0.30 0.28 0.26 0.26 0.29 0.28
0.49 0.51 0.49 0.51 0.51 0.50 0.52 0.52 0.48 0.48 0.49 0.49 0.51 0.54 0.59 0.59 0.63 0.68 0.76 0.77 0.75 0.75 0.74 0.74 0.73 0.69 0.72 0.71 0.67 0.62 0.59 0.56 0.44 0.33 0.32 0.32 0.33 0.32 0.31 0.30 0.28 0.28 0.26 0.28
0.49 0.50 0.50 0.48 0.48 0.49 0.49 0.48 0.45 0.46 0.48 0.49 0.50 0.51 0.53 0.58 0.61 0.65 0.72 0.77 0.73 0.69 0.73 0.73 0.73 0.77 0.75 0.73 0.70 0.66 0.61 0.55 0.43 0.35 0.33 0.33 0.33 0.33 0.31 0.30 0.28 0.27 0.26 0.26
0.45 0.44 0.47 0.47 0.48 0.48 0.48 0.49 0.49 0.47 0.48 0.49 0.51 0.53 0.55 0.55 0.57 0.61 0.64 0.67 0.72 0.73 0.73 0.73 0.74 0.75 0.78 0.77 0.71 0.67 0.64 0.58 0.46 0.38 0.35 0.34 0.33 0.32 0.31 0.29 0.28 0.28 0.27 0.27
0.53 0.51 0.51 0.50 0.49 0.49 0.49 0.50 0.50 0.48 0.47 0.50 0.51 0.52 0.54 0.54 0.53 0.56 0.59 0.63 0.64 0.67 0.71 0.74 0.75 0.75 0.74 0.74 0.74 0.74 0.69 0.63 0.55 0.43 0.38 0.37 0.36 0.35 0.33 0.32 0.31 0.29 0.28 0.29
0.54 0.53 0.53 0.52 0.51 0.50 0.50 0.49 0.50 0.51 0.52 0.52 0.51 0.50 0.52 0.54 0.54 0.57 0.60 0.59 0.58 0.59 0.67 0.72 0.73 0.75 0.74 0.75 0.73 0.71 0.70 0.69 0.65 0.59 0.50 0.44 0.42 0.39 0.36 0.34 0.33 0.31 0.31 0.29
0.54 0.54 0.55 0.54 0.55 0.53 0.51 0.52 0.52 0.51 0.52 0.52 0.53 0.52 0.52 0.53 0.55 0.57 0.59 0.58 0.61 0.62 0.66 0.71 0.74 0.74 0.75 0.76 0.75 0.73 0.71 0.68 0.65 0.62 0.58 0.52 0.49 0.45 0.41 0.37 0.35 0.33 0.35 0.35
0.54 0.55 0.55 0.54 0.53 0.53 0.53 0.53 0.52 0.52 0.52 0.53 0.52 0.52 0.53 0.55 0.56 0.59 0.59 0.57 0.62 0.65 0.65 0.66 0.69 0.71 0.74 0.74 0.73 0.72 0.71 0.69 0.65 0.64 0.62 0.59 0.55 0.52 0.48 0.43 0.39 0.38 0.41 0.38
0.55 0.53 0.52 0.50 0.46 0.45 0.46 0.48 0.47 0.47 0.52 0.55 0.55 0.56 0.56 0.57 0.59 0.60 0.61 0.59 0.61 0.62 0.63 0.64 0.67 0.69 0.70 0.71 0.71 0.71 0.71 0.69 0.67 0.67 0.65 0.63 0.61 0.58 0.53 0.48 0.44 0.41 0.46 0.45
0.54 0.51 0.48 0.44 0.39 0.39 0.39 0.37 0.39 0.41 0.42 0.44 0.54 0.58 0.58 0.59 0.61 0.58 0.57 0.63 0.63 0.62 0.62 0.64 0.67 0.68 0.69 0.68 0.68 0.69 0.69 0.68 0.68 0.67 0.66 0.66 0.64 0.61 0.59 0.56 0.49 0.50 0.50 0.45
0.46 0.44 0.41 0.39 0.37 0.35 0.32 0.33 0.33 0.32 0.33 0.34 0.38 0.41 0.51 0.57 0.59 0.63 0.63 0.64 0.64 0.65 0.65 0.65 0.66 0.67 0.68 0.68 0.68 0.67 0.67 0.67 0.67 0.67 0.66 0.66 0.64 0.63 0.62 0.59 0.56 0.56 0.51 0.51
0.41 0.39 0.37 0.34 0.31 0.29 0.28 0.28 0.28 0.27 0.26 0.24 0.26 0.30 0.35 0.37 0.46 0.58 0.62 0.63 0.64 0.64 0.64 0.66 0.66 0.67 0.67 0.67 0.67 0.66 0.66 0.65 0.65 0.64 0.64 0.63 0.63 0.62 0.61 0.60 0.60 0.56 0.54 0.45
0.41 0.39 0.36 0.34 0.31 0.28 0.26 0.25 0.23 0.23 0.22 0.21 0.21 0.23 0.23 0.28 0.31 0.35 0.47 0.58 0.62 0.63 0.63 0.64 0.65 0.65 0.65 0.65 0.65 0.65 0.65 0.65 0.64 0.64 0.63 0.62 0.62 0.61 0.61 0.60 0.59 0.57 0.49 0.45
0.42 0.38 0.33 0.29 0.27 0.25 0.22 0.19 0.18 0.17 0.18 0.17 0.18 0.20 0.20 0.20 0.22 0.23 0.25 0.30 0.43 0.50 0.58 0.62 0.63 0.64 0.64 0.65 0.64 0.65 0.64 0.64 0.64 0.63 0.62 0.62 0.61 0.61 0.60 0.60 0.59 0.54 0.48 0.43

GFSNGP_prec_pwat_081.txt.gz
Precipitable_Water
0.31 0.33 0.36 0.35 0.34 0.37 0.33 0.33 0.27 0.30 0.30 0.35 0.39 0.40 0.47 0.54 0.60 0.59 0.58 0.57 0.57 0.57 0.60 0.63 0.66 0.68 0.67 0.68 0.67 0.66 0.63 0.62 0.62 0.63 0.63 0.63 0.61 0.60 0.61 0.60 0.59 0.58 0.58 0.58
0.33 0.37 0.36 0.33 0.39 0.40 0.40 0.38 0.36 0.35 0.34 0.43 0.44 0.48 0.50 0.49 0.52 0.52 0.54 0.57 0.59 0.60 0.61 0.62 0.63 0.66 0.66 0.67 0.68 0.68 0.66 0.65 0.64 0.63 0.62 0.61 0.60 0.60 0.59 0.58 0.58 0.59 0.59 0.57
0.21 0.28 0.27 0.21 0.27 0.31 0.34 0.38 0.38 0.32 0.39 0.45 0.42 0.46 0.46 0.46 0.48 0.50 0.53 0.56 0.58 0.59 0.64 0.66 0.66 0.68 0.67 0.67 0.70 0.68 0.66 0.67 0.65 0.64 0.62 0.62 0.62 0.61 0.60 0.60 0.61 0.59 0.57 0.57
0.23 0.26 0.15 0.22 0.34 0.33 0.28 0.30 0.36 0.38 0.41 0.45 0.44 0.45 0.49 0.52 0.51 0.49 0.51 0.54 0.57 0.62 0.67 0.70 0.70 0.70 0.71 0.70 0.70 0.69 0.67 0.67 0.67 0.66 0.64 0.65 0.65 0.63 0.62 0.61 0.58 0.57 0.57 0.60
0.20 0.20 0.22 0.23 0.30 0.31 0.29 0.27 0.36 0.33 0.37 0.42 0.46 0.46 0.47 0.53 0.54 0.53 0.56 0.58 0.61 0.67 0.69 0.70 0.71 0.72 0.71 0.71 0.71 0.69 0.67 0.67 0.68 0.68 0.65 0.65 0.64 0.64 0.62 0.59 0.58 0.57 0.58 0.58
0.26 0.19 0.14 0.27 0.38 0.42 0.40 0.24 0.41 0.38 0.36 0.39 0.44 0.34 0.41 0.54 0.57 0.57 0.58 0.60 0.65 0.70 0.72 0.72 0.71 0.71 0.70 0.69 0.69 0.68 0.68 0.69 0.71 0.71 0.68 0.66 0.65 0.62 0.61 0.59 0.56 0.56 0.52 0.44
0.26 0.22 0.22 0.32 0.41 0.45 0.25 0.29 0.47 0.45 0.41 0.41 0.39 0.43 0.49 0.54 0.55 0.57 0.58 0.66 0.70 0.70 0.70 0.71 0.73 0.73 0.69 0.69 0.68 0.70 0.70 0.70 0.69 0.69 0.67 0.66 0.65 0.63 0.59 0.58 0.55 0.44 0.37 0.33
0.28 0.22 0.17 0.38 0.41 0.30 0.43 0.53 0.53 0.48 0.48 0.44 0.48 0.51 0.53 0.55 0.59 0.65 0.68 0.69 0.70 0.69 0.69 0.72 0.75 0.72 0.70 0.68 0.70 0.70 0.69 0.68 0.66 0.67 0.67 0.66 0.63 0.60 0.59 0.52 0.42 0.35 0.27 0.25
0.28 0.27 0.36 0.44 0.43 0.49 0.56 0.55 0.58 0.59 0.57 0.54 0.52 0.54 0.59 0.62 0.64 0.66 0.68 0.68 0.70 0.70 0.70 0.73 0.73 0.72 0.68 0.69 0.71 0.70 0.68 0.67 0.66 0.66 0.66 0.64 0.61 0.59 0.53 0.43 0.32 0.26 0.23 0.22
0.34 0.38 0.40 0.43 0.47 0.54 0.59 0.61 0.61 0.63 0.66 0.67 0.62 0.64 0.64 0.66 0.66 0.65 0.67 0.67 0.70 0.69 0.68 0.69 0.72 0.73 0.72 0.72 0.72 0.70 0.67 0.67 0.67 0.66 0.63 0.63 0.61 0.54 0.38 0.29 0.25 0.23 0.22 0.21
0.36 0.41 0.44 0.46 0.49 0.54 0.58 0.60 0.60 0.62 0.63 0.65 0.68 0.69 0.71 0.70 0.69 0.68 0.70 0.72 0.73 0.71 0.71 0.69 0.72 0.72 0.73 0.72 0.72 0.69 0.68 0.68 0.67 0.65 0.63 0.62 0.52 0.37 0.30 0.28 0.25 0.22 0.22 0.22
0.33 0.44 0.45 0.45 0.52 0.57 0.56 0.57 0.60 0.60 0.60 0.63 0.63 0.62 0.66 0.65 0.69 0.71 0.71 0.73 0.73 0.74 0.71 0.71 0.72 0.72 0.72 0.73 0.72 0.69 0.67 0.67 0.66 0.65 0.64 0.54 0.37 0.30 0.31 0.28 0.28 0.26 0.25 0.25
0.42 0.47 0.50 0.54 0.58 0.60 0.58 0.59 0.60 0.57 0.55 0.53 0.57 0.58 0.61 0.62 0.66 0.68 0.70 0.72 0.74 0.75 0.76 0.75 0.71 0.70 0.72 0.74 0.72 0.70 0.68 0.67 0.67 0.66 0.63 0.40 0.33 0.30 0.27 0.30 0.31 0.30 0.29 0.28
0.50 0.51 0.48 0.52 0.50 0.59 0.59 0.58 0.56 0.54 0.53 0.52 0.53 0.55 0.56 0.58 0.61 0.64 0.65 0.71 0.76 0.76 0.76 0.76 0.75 0.71 0.73 0.73 0.72 0.71 0.70 0.69 0.68 0.65 0.55 0.34 0.32 0.30 0.29 0.27 0.26 0.27 0.30 0.29
0.49 0.52 0.51 0.53 0.55 0.54 0.55 0.54 0.50 0.49 0.49 0.49 0.52 0.51 0.51 0.51 0.56 0.60 0.66 0.70 0.75 0.76 0.75 0.75 0.74 0.74 0.75 0.74 0.71 0.68 0.66 0.65 0.63 0.57 0.44 0.32 0.32 0.32 0.31 0.30 0.29 0.28 0.28 0.28
0.48 0.50 0.50 0.49 0.50 0.51 0.51 0.51 0.48 0.46 0.48 0.49 0.49 0.50 0.52 0.53 0.53 0.57 0.63 0.66 0.67 0.72 0.75 0.74 0.73 0.75 0.78 0.76 0.73 0.71 0.67 0.63 0.60 0.56 0.43 0.32 0.32 0.32 0.31 0.30 0.30 0.29 0.28 0.27
0.44 0.44 0.46 0.47 0.49 0.50 0.50 0.51 0.51 0.50 0.50 0.48 0.47 0.48 0.49 0.51 0.52 0.54 0.56 0.62 0.65 0.67 0.73 0.76 0.75 0.77 0.77 0.78 0.77 0.73 0.71 0.67 0.63 0.58 0.48 0.36 0.34 0.33 0.32 0.32 0.31 0.30 0.29 0.28
0.52 0.51 0.52 0.52 0.50 0.49 0.50 0.51 0.51 0.51 0.49 0.50 0.50 0.48 0.47 0.47 0.48 0.51 0.53 0.57 0.61 0.62 0.65 0.67 0.73 0.76 0.77 0.76 0.76 0.76 0.72 0.70 0.67 0.63 0.54 0.43 0.37 0.35 0.34 0.34 0.34 0.33 0.30 0.29
0.55 0.53 0.53 0.52 0.52 0.51 0.50 0.49 0.50 0.51 0.51 0.51 0.50 0.49 0.49 0.50 0.50 0.52 0.55 0.56 0.57 0.58 0.61 0.66 0.68 0.70 0.71 0.75 0.76 0.73 0.72 0.71 0.68 0.67 0.64 0.57 0.46 0.42 0.39 0.38 0.38 0.36 0.35 0.32
0.55 0.56 0.55 0.54 0.55 0.54 0.52 0.52 0.52 0.51 0.51 0.51 0.50 0.50 0.49 0.50 0.52 0.52 0.54 0.54 0.57 0.61 0.65 0.66 0.67 0.67 0.70 0.72 0.73 0.72 0.71 0.70 0.69 0.69 0.68 0.64 0.59 0.52 0.47 0.47 0.46 0.44 0.41 0.38
0.54 0.54 0.53 0.50 0.48 0.48 0.48 0.48 0.46 0.44 0.48 0.50 0.51 0.50 0.50 0.51 0.53 0.54 0.52 0.51 0.58 0.64 0.66 0.66 0.65 0.66 0.67 0.69 0.71 0.71 0.71 0.70 0.69 0.69 0.68 0.67 0.65 0.61 0.55 0.50 0.50 0.48 0.44 0.41
0.55 0.54 0.53 0.51 0.45 0.41 0.41 0.39 0.37 0.39 0.39 0.39 0.41 0.48 0.53 0.53 0.54 0.55 0.58 0.57 0.61 0.64 0.64 0.64 0.63 0.64 0.65 0.66 0.67 0.67 0.68 0.68 0.67 0.67 0.67 0.67 0.67 0.65 0.62 0.56 0.56 0.55 0.50 0.46
0.54 0.52 0.48 0.42 0.39 0.40 0.40 0.37 0.35 0.35 0.34 0.33 0.33 0.35 0.37 0.43 0.54 0.55 0.54 0.60 0.63 0.64 0.64 0.64 0.63 0.63 0.63 0.64 0.64 0.66 0.66 0.65 0.65 0.65 0.67 0.67 0.67 0.66 0.65 0.63 0.63 0.62 0.56 0.50
0.46 0.43 0.41 0.40 0.38 0.35 0.32 0.31 0.31 0.31 0.31 0.29 0.29 0.30 0.29 0.28 0.34 0.43 0.54 0.61 0.61 0.62 0.63 0.64 0.64 0.64 0.65 0.65 0.65 0.65 0.65 0.65 0.65 0.64 0.64 0.65 0.65 0.66 0.66 0.65 0.64 0.64 0.62 0.58
0.45 0.43 0.41 0.38 0.35 0.32 0.31 0.29 0.28 0.28 0.26 0.25 0.23 0.25 0.26 0.27 0.26 0.28 0.33 0.37 0.52 0.60 0.61 0.63 0.63 0.64 0.64 0.64 0.63 0.63 0.63 0.64 0.64 0.63 0.63 0.63 0.63 0.63 0.63 0.63 0.63 0.63 0.62 0.61
0.43 0.41 0.39 0.37 0.34 0.32 0.29 0.27 0.24 0.23 0.22 0.18 0.18 0.20 0.20 0.22 0.23 0.23 0.24 0.27 0.30 0.37 0.50 0.59 0.61 0.62 0.62 0.63 0.63 0.63 0.63 0.63 0.63 0.63 0.63 0.63 0.63 0.63 0.62 0.62 0.62 0.62 0.62 0.61
0.44 0.44 0.39 0.34 0.31 0.29 0.26 0.23 0.20 0.17 0.17 0.15 0.14 0.17 0.16 0.17 0.19 0.20 0.21 0.21 0.23 0.23 0.26 0.34 0.45 0.54 0.60 0.61 0.61 0.62 0.62 0.62 0.63 0.62 0.63 0.62 0.62 0.62 0.61 0.61 0.61 0.61 0.61 0.61

GFSNGP_prec_pwat_084.txt.gz
Precipitable_Water
0.36 0.36 0.37 0.34 0.32 0.34 0.31 0.31 0.23 0.23 0.24 0.29 0.33 0.37 0.41 0.48 0.54 0.56 0.60 0.60 0.62 0.61 0.60 0.61 0.62 0.64 0.67 0.70 0.69 0.68 0.65 0.63 0.63 0.64 0.63 0.64 0.64 0.64 0.65 0.63 0.63 0.61 0.60 0.60
0.31 0.35 0.34 0.29 0.33 0.34 0.32 0.30 0.31 0.31 0.28 0.40 0.43 0.44 0.43 0.49 0.55 0.56 0.61 0.65 0.63 0.63 0.63 0.63 0.64 0.64 0.67 0.70 0.71 0.74 0.69 0.67 0.67 0.65 0.64 0.62 0.64 0.65 0.64 0.61 0.60 0.60 0.59 0.58
0.25 0.31 0.30 0.24 0.28 0.32 0.37 0.40 0.36 0.28 0.33 0.42 0.43 0.46 0.45 0.50 0.54 0.56 0.57 0.59 0.61 0.64 0.64 0.65 0.67 0.67 0.66 0.68 0.71 0.70 0.69 0.69 0.69 0.69 0.67 0.65 0.65 0.64 0.62 0.60 0.61 0.58 0.58 0.59
0.26 0.27 0.16 0.24 0.33 0.32 0.29 0.33 0.37 0.36 0.37 0.42 0.47 0.50 0.50 0.52 0.54 0.54 0.55 0.58 0.61 0.64 0.65 0.69 0.71 0.70 0.70 0.71 0.71 0.70 0.70 0.69 0.70 0.71 0.68 0.67 0.65 0.62 0.62 0.61 0.60 0.58 0.59 0.60
0.21 0.20 0.23 0.25 0.29 0.30 0.29 0.27 0.35 0.32 0.33 0.37 0.45 0.50 0.48 0.51 0.56 0.56 0.58 0.60 0.62 0.65 0.66 0.70 0.72 0.72 0.70 0.70 0.70 0.69 0.71 0.69 0.69 0.70 0.68 0.67 0.64 0.63 0.64 0.63 0.62 0.61 0.61 0.60
0.26 0.18 0.14 0.26 0.38 0.41 0.39 0.23 0.41 0.41 0.39 0.38 0.41 0.33 0.40 0.52 0.57 0.58 0.58 0.60 0.61 0.64 0.68 0.70 0.71 0.73 0.70 0.69 0.69 0.69 0.70 0.71 0.72 0.70 0.69 0.67 0.67 0.65 0.65 0.65 0.62 0.60 0.57 0.54
0.24 0.22 0.24 0.31 0.37 0.44 0.24 0.28 0.46 0.45 0.42 0.40 0.37 0.42 0.48 0.55 0.57 0.61 0.63 0.63 0.64 0.67 0.70 0.73 0.73 0.72 0.69 0.69 0.69 0.71 0.72 0.72 0.72 0.70 0.69 0.69 0.70 0.68 0.67 0.64 0.60 0.56 0.50 0.45
0.27 0.23 0.19 0.37 0.39 0.30 0.40 0.51 0.52 0.50 0.48 0.45 0.47 0.51 0.53 0.55 0.57 0.59 0.59 0.63 0.67 0.69 0.68 0.70 0.73 0.71 0.70 0.70 0.72 0.73 0.72 0.71 0.70 0.70 0.69 0.68 0.67 0.66 0.64 0.61 0.55 0.46 0.41 0.36
0.30 0.28 0.37 0.42 0.43 0.48 0.51 0.53 0.56 0.58 0.55 0.53 0.51 0.51 0.54 0.55 0.58 0.61 0.66 0.68 0.71 0.70 0.70 0.72 0.73 0.72 0.69 0.70 0.73 0.72 0.70 0.68 0.68 0.68 0.67 0.67 0.65 0.64 0.62 0.57 0.47 0.40 0.34 0.27
0.35 0.39 0.41 0.44 0.47 0.50 0.56 0.58 0.59 0.61 0.63 0.64 0.59 0.60 0.59 0.61 0.62 0.64 0.66 0.66 0.68 0.68 0.69 0.69 0.71 0.73 0.73 0.74 0.74 0.71 0.69 0.68 0.68 0.67 0.66 0.66 0.65 0.63 0.59 0.50 0.41 0.34 0.27 0.23
0.37 0.41 0.44 0.46 0.48 0.54 0.58 0.59 0.59 0.62 0.63 0.65 0.67 0.68 0.70 0.71 0.72 0.71 0.69 0.69 0.72 0.70 0.71 0.70 0.73 0.73 0.75 0.75 0.74 0.71 0.71 0.70 0.68 0.68 0.67 0.65 0.65 0.62 0.54 0.45 0.35 0.26 0.23 0.22
0.34 0.43 0.43 0.46 0.52 0.57 0.55 0.56 0.60 0.60 0.60 0.62 0.63 0.62 0.66 0.66 0.68 0.69 0.69 0.71 0.71 0.72 0.73 0.74 0.72 0.72 0.74 0.75 0.74 0.71 0.68 0.68 0.68 0.68 0.68 0.66 0.63 0.58 0.46 0.37 0.31 0.29 0.26 0.24
0.44 0.50 0.48 0.51 0.57 0.60 0.58 0.60 0.61 0.60 0.58 0.54 0.56 0.58 0.59 0.59 0.62 0.66 0.68 0.68 0.70 0.72 0.74 0.75 0.76 0.74 0.74 0.74 0.74 0.72 0.69 0.68 0.68 0.68 0.67 0.64 0.62 0.46 0.34 0.32 0.32 0.31 0.29 0.28
0.51 0.52 0.48 0.52 0.50 0.58 0.60 0.61 0.62 0.59 0.56 0.55 0.54 0.55 0.54 0.54 0.56 0.58 0.60 0.66 0.68 0.71 0.75 0.75 0.75 0.75 0.78 0.75 0.73 0.72 0.71 0.70 0.69 0.68 0.67 0.65 0.58 0.39 0.33 0.29 0.27 0.27 0.31 0.30
0.50 0.53 0.53 0.56 0.57 0.57 0.59 0.59 0.55 0.53 0.54 0.52 0.53 0.52 0.52 0.51 0.51 0.53 0.58 0.63 0.64 0.68 0.71 0.76 0.75 0.74 0.77 0.78 0.74 0.71 0.69 0.68 0.69 0.69 0.68 0.67 0.57 0.36 0.32 0.30 0.28 0.27 0.27 0.29
0.49 0.52 0.52 0.51 0.52 0.54 0.55 0.55 0.52 0.52 0.52 0.51 0.50 0.50 0.50 0.50 0.50 0.52 0.55 0.56 0.57 0.59 0.65 0.72 0.75 0.76 0.77 0.76 0.77 0.74 0.71 0.70 0.68 0.66 0.64 0.61 0.51 0.33 0.31 0.30 0.29 0.29 0.28 0.27
0.42 0.44 0.47 0.47 0.49 0.49 0.51 0.53 0.52 0.52 0.52 0.51 0.50 0.50 0.49 0.47 0.47 0.46 0.49 0.53 0.56 0.58 0.63 0.66 0.69 0.76 0.78 0.77 0.75 0.76 0.74 0.73 0.72 0.67 0.61 0.57 0.52 0.37 0.32 0.32 0.31 0.31 0.30 0.30
0.51 0.51 0.51 0.51 0.49 0.49 0.51 0.52 0.52 0.51 0.49 0.50 0.50 0.49 0.48 0.47 0.45 0.46 0.48 0.51 0.54 0.55 0.59 0.63 0.66 0.67 0.68 0.74 0.76 0.74 0.74 0.74 0.73 0.70 0.67 0.62 0.58 0.48 0.37 0.35 0.35 0.34 0.34 0.35
0.56 0.56 0.55 0.53 0.53 0.52 0.52 0.52 0.52 0.52 0.52 0.51 0.49 0.48 0.48 0.48 0.48 0.49 0.51 0.50 0.51 0.52 0.57 0.63 0.66 0.66 0.66 0.67 0.68 0.70 0.72 0.70 0.71 0.71 0.70 0.67 0.65 0.61 0.50 0.40 0.37 0.38 0.38 0.38
0.54 0.56 0.56 0.56 0.56 0.55 0.52 0.52 0.52 0.50 0.49 0.50 0.50 0.50 0.48 0.48 0.49 0.50 0.52 0.51 0.53 0.56 0.60 0.61 0.63 0.64 0.66 0.67 0.67 0.66 0.67 0.68 0.69 0.68 0.68 0.68 0.67 0.64 0.62 0.57 0.47 0.42 0.40 0.40
0.54 0.53 0.51 0.49 0.46 0.46 0.46 0.44 0.40 0.37 0.39 0.38 0.36 0.36 0.43 0.52 0.53 0.53 0.51 0.50 0.54 0.57 0.59 0.60 0.61 0.63 0.64 0.66 0.66 0.65 0.64 0.64 0.65 0.66 0.66 0.67 0.67 0.67 0.66 0.66 0.63 0.57 0.51 0.47
0.53 0.53 0.53 0.52 0.47 0.43 0.42 0.40 0.37 0.36 0.34 0.33 0.33 0.32 0.31 0.32 0.38 0.49 0.55 0.54 0.57 0.58 0.59 0.60 0.61 0.62 0.63 0.64 0.63 0.63 0.62 0.62 0.63 0.63 0.65 0.66 0.66 0.66 0.66 0.66 0.66 0.65 0.63 0.55
0.53 0.53 0.49 0.43 0.38 0.39 0.38 0.37 0.36 0.35 0.33 0.32 0.30 0.30 0.29 0.29 0.29 0.27 0.30 0.42 0.52 0.58 0.59 0.60 0.62 0.62 0.63 0.63 0.62 0.60 0.60 0.60 0.61 0.62 0.63 0.63 0.64 0.65 0.65 0.65 0.66 0.66 0.65 0.63
0.46 0.44 0.43 0.42 0.39 0.38 0.35 0.34 0.33 0.32 0.31 0.30 0.28 0.28 0.26 0.23 0.24 0.30 0.30 0.30 0.32 0.36 0.47 0.59 0.61 0.61 0.62 0.62 0.62 0.61 0.60 0.60 0.60 0.61 0.62 0.62 0.62 0.63 0.62 0.63 0.63 0.64 0.64 0.64
0.47 0.43 0.42 0.42 0.41 0.37 0.34 0.33 0.31 0.29 0.28 0.26 0.24 0.23 0.23 0.22 0.20 0.20 0.22 0.23 0.26 0.26 0.29 0.34 0.45 0.59 0.60 0.60 0.60 0.60 0.60 0.61 0.61 0.61 0.61 0.60 0.61 0.61 0.62 0.62 0.62 0.62 0.62 0.62
0.43 0.43 0.42 0.41 0.38 0.36 0.33 0.31 0.29 0.27 0.23 0.20 0.18 0.18 0.19 0.18 0.18 0.18 0.18 0.19 0.20 0.22 0.23 0.25 0.28 0.33 0.46 0.56 0.58 0.59 0.59 0.60 0.60 0.60 0.60 0.60 0.60 0.60 0.60 0.60 0.61 0.61 0.61 0.62
0.39 0.42 0.41 0.38 0.35 0.32 0.31 0.29 0.26 0.22 0.20 0.18 0.15 0.17 0.17 0.16 0.16 0.16 0.16 0.16 0.17 0.18 0.20 0.22 0.23 0.23 0.25 0.30 0.42 0.53 0.58 0.59 0.59 0.59 0.60 0.60 0.60 0.60 0.60 0.60 0.60 0.60 0.60 0.60

GFSNGP_prec_pwat_087.txt.gz
Precipitable_Water
0.36 0.36 0.37 0.33 0.33 0.37 0.34 0.34 0.27 0.29 0.28 0.29 0.32 0.35 0.35 0.36 0.45 0.50 0.52 0.56 0.59 0.62 0.63 0.64 0.63 0.64 0.67 0.68 0.69 0.68 0.67 0.69 0.68 0.67 0.66 0.66 0.66 0.66 0.67 0.66 0.66 0.65 0.63 0.63
0.34 0.38 0.37 0.32 0.34 0.36 0.35 0.35 0.35 0.33 0.29 0.36 0.39 0.42 0.40 0.40 0.46 0.49 0.53 0.58 0.64 0.68 0.67 0.65 0.66 0.67 0.68 0.68 0.68 0.70 0.68 0.68 0.70 0.71 0.69 0.66 0.65 0.63 0.62 0.63 0.63 0.63 0.62 0.63
0.27 0.34 0.31 0.23 0.27 0.30 0.33 0.36 0.35 0.28 0.33 0.40 0.39 0.40 0.42 0.43 0.47 0.51 0.54 0.59 0.64 0.67 0.68 0.67 0.68 0.69 0.68 0.68 0.70 0.70 0.70 0.71 0.71 0.72 0.72 0.70 0.68 0.66 0.63 0.62 0.62 0.61 0.60 0.62
0.27 0.28 0.16 0.24 0.33 0.32 0.28 0.30 0.36 0.38 0.38 0.38 0.41 0.46 0.49 0.50 0.49 0.53 0.58 0.61 0.63 0.66 0.69 0.70 0.71 0.72 0.71 0.71 0.71 0.70 0.69 0.70 0.72 0.72 0.71 0.70 0.69 0.67 0.67 0.66 0.63 0.62 0.61 0.61
0.24 0.23 0.25 0.27 0.32 0.30 0.28 0.27 0.35 0.35 0.37 0.38 0.40 0.43 0.46 0.53 0.53 0.54 0.60 0.63 0.65 0.68 0.69 0.71 0.71 0.73 0.72 0.72 0.71 0.70 0.69 0.68 0.69 0.71 0.70 0.69 0.67 0.68 0.69 0.68 0.65 0.63 0.61 0.60
0.28 0.20 0.15 0.26 0.37 0.43 0.40 0.25 0.43 0.43 0.40 0.39 0.40 0.29 0.34 0.51 0.54 0.55 0.59 0.61 0.62 0.67 0.68 0.68 0.70 0.75 0.73 0.72 0.72 0.70 0.70 0.70 0.72 0.72 0.70 0.70 0.68 0.68 0.69 0.67 0.64 0.63 0.61 0.61
0.24 0.21 0.23 0.32 0.38 0.43 0.23 0.28 0.47 0.46 0.44 0.41 0.37 0.39 0.45 0.51 0.54 0.58 0.62 0.62 0.64 0.64 0.64 0.67 0.71 0.73 0.71 0.70 0.69 0.72 0.74 0.75 0.73 0.72 0.71 0.70 0.69 0.71 0.69 0.67 0.64 0.61 0.60 0.58
0.24 0.20 0.17 0.38 0.40 0.29 0.39 0.50 0.51 0.51 0.47 0.45 0.47 0.49 0.51 0.53 0.55 0.58 0.61 0.63 0.66 0.65 0.66 0.72 0.75 0.74 0.71 0.70 0.73 0.75 0.74 0.73 0.72 0.72 0.71 0.70 0.69 0.68 0.68 0.66 0.64 0.61 0.56 0.49
0.27 0.26 0.36 0.40 0.43 0.48 0.48 0.49 0.51 0.53 0.55 0.51 0.51 0.51 0.54 0.54 0.57 0.59 0.62 0.62 0.65 0.66 0.69 0.73 0.74 0.73 0.70 0.71 0.73 0.74 0.74 0.72 0.71 0.71 0.71 0.71 0.69 0.67 0.66 0.66 0.62 0.56 0.47 0.40
0.34 0.38 0.41 0.44 0.47 0.48 0.52 0.55 0.57 0.59 0.61 0.62 0.58 0.60 0.59 0.61 0.60 0.61 0.62 0.65 0.68 0.69 0.67 0.69 0.73 0.72 0.73 0.73 0.75 0.74 0.72 0.71 0.71 0.70 0.69 0.69 0.68 0.67 0.65 0.63 0.58 0.47 0.41 0.35
0.38 0.41 0.43 0.47 0.48 0.51 0.57 0.61 0.57 0.60 0.62 0.65 0.66 0.66 0.68 0.67 0.67 0.69 0.71 0.70 0.69 0.70 0.70 0.71 0.73 0.73 0.74 0.75 0.76 0.73 0.72 0.72 0.71 0.71 0.69 0.67 0.67 0.66 0.65 0.64 0.51 0.43 0.37 0.32
0.35 0.44 0.43 0.44 0.53 0.56 0.56 0.57 0.60 0.60 0.61 0.63 0.62 0.61 0.65 0.65 0.68 0.69 0.69 0.70 0.70 0.70 0.71 0.72 0.75 0.74 0.76 0.76 0.75 0.74 0.71 0.70 0.70 0.70 0.69 0.68 0.66 0.65 0.68 0.61 0.53 0.44 0.36 0.29
0.44 0.50 0.50 0.51 0.56 0.60 0.59 0.61 0.62 0.61 0.62 0.57 0.58 0.57 0.57 0.59 0.62 0.63 0.63 0.66 0.67 0.67 0.70 0.72 0.74 0.75 0.79 0.78 0.75 0.73 0.71 0.71 0.70 0.69 0.69 0.68 0.67 0.64 0.60 0.56 0.46 0.38 0.33 0.30
0.49 0.49 0.45 0.53 0.52 0.58 0.61 0.63 0.64 0.63 0.62 0.59 0.56 0.56 0.55 0.54 0.55 0.55 0.55 0.59 0.63 0.65 0.67 0.69 0.73 0.75 0.78 0.79 0.78 0.74 0.72 0.72 0.71 0.70 0.69 0.69 0.67 0.65 0.62 0.44 0.34 0.32 0.33 0.31
0.46 0.51 0.52 0.55 0.58 0.58 0.61 0.60 0.58 0.57 0.57 0.56 0.57 0.54 0.53 0.51 0.50 0.50 0.53 0.56 0.58 0.60 0.62 0.65 0.68 0.74 0.78 0.78 0.76 0.76 0.74 0.72 0.71 0.70 0.70 0.70 0.69 0.67 0.59 0.42 0.35 0.32 0.30 0.31
0.42 0.46 0.53 0.52 0.53 0.55 0.56 0.56 0.55 0.55 0.56 0.56 0.55 0.55 0.54 0.52 0.50 0.49 0.50 0.50 0.50 0.51 0.57 0.60 0.63 0.69 0.76 0.77 0.76 0.75 0.75 0.74 0.73 0.70 0.68 0.67 0.67 0.66 0.60 0.41 0.35 0.32 0.30 0.27
0.43 0.40 0.48 0.49 0.50 0.52 0.52 0.54 0.54 0.54 0.54 0.53 0.52 0.52 0.51 0.49 0.47 0.47 0.48 0.48 0.48 0.50 0.54 0.57 0.59 0.65 0.68 0.72 0.74 0.75 0.74 0.74 0.74 0.72 0.70 0.67 0.65 0.63 0.61 0.45 0.33 0.32 0.30 0.30
0.54 0.51 0.50 0.49 0.48 0.50 0.51 0.52 0.52 0.51 0.50 0.51 0.50 0.49 0.48 0.47 0.46 0.47 0.48 0.50 0.50 0.50 0.53 0.57 0.60 0.62 0.63 0.66 0.66 0.67 0.69 0.72 0.72 0.71 0.71 0.70 0.68 0.65 0.60 0.54 0.41 0.33 0.33 0.33
0.55 0.55 0.55 0.55 0.54 0.52 0.51 0.51 0.52 0.52 0.52 0.52 0.50 0.48 0.49 0.50 0.49 0.48 0.49 0.49 0.49 0.50 0.53 0.58 0.61 0.63 0.63 0.65 0.66 0.66 0.64 0.63 0.64 0.69 0.71 0.70 0.69 0.68 0.66 0.62 0.57 0.46 0.37 0.35
0.54 0.56 0.56 0.55 0.55 0.55 0.53 0.52 0.50 0.46 0.45 0.42 0.38 0.35 0.34 0.40 0.48 0.51 0.51 0.49 0.51 0.53 0.57 0.58 0.60 0.60 0.61 0.63 0.63 0.63 0.63 0.63 0.62 0.61 0.63 0.66 0.68 0.68 0.67 0.67 0.65 0.63 0.57 0.48
0.52 0.53 0.51 0.48 0.45 0.45 0.45 0.41 0.36 0.35 0.36 0.36 0.33 0.31 0.30 0.31 0.32 0.34 0.42 0.48 0.53 0.56 0.56 0.57 0.57 0.58 0.60 0.61 0.62 0.61 0.60 0.59 0.60 0.60 0.60 0.61 0.63 0.65 0.67 0.67 0.67 0.65 0.64 0.63
0.51 0.51 0.52 0.52 0.47 0.44 0.42 0.39 0.37 0.37 0.36 0.35 0.34 0.32 0.31 0.29 0.28 0.28 0.32 0.31 0.36 0.45 0.55 0.57 0.58 0.59 0.60 0.61 0.61 0.60 0.60 0.59 0.59 0.59 0.59 0.60 0.60 0.60 0.61 0.64 0.65 0.66 0.66 0.66
0.51 0.51 0.48 0.43 0.38 0.39 0.40 0.39 0.38 0.37 0.35 0.33 0.30 0.29 0.28 0.27 0.26 0.24 0.22 0.27 0.28 0.29 0.30 0.34 0.44 0.56 0.59 0.60 0.60 0.60 0.60 0.59 0.59 0.58 0.58 0.59 0.59 0.59 0.59 0.60 0.62 0.64 0.64 0.65
0.51 0.50 0.46 0.45 0.44 0.43 0.40 0.38 0.37 0.35 0.33 0.32 0.30 0.28 0.26 0.22 0.21 0.23 0.22 0.21 0.21 0.23 0.24 0.26 0.28 0.31 0.37 0.50 0.58 0.58 0.59 0.59 0.59 0.59 0.59 0.58 0.58 0.59 0.59 0.59 0.60 0.61 0.62 0.62
0.51 0.49 0.45 0.43 0.41 0.38 0.37 0.36 0.35 0.35 0.32 0.30 0.27 0.24 0.23 0.22 0.18 0.18 0.19 0.18 0.18 0.19 0.19 0.20 0.22 0.24 0.26 0.28 0.32 0.47 0.56 0.57 0.58 0.58 0.58 0.59 0.59 0.59 0.59 0.59 0.59 0.60 0.60 0.61
0.44 0.41 0.41 0.42 0.40 0.37 0.34 0.33 0.31 0.30 0.28 0.25 0.23 0.21 0.21 0.20 0.19 0.18 0.18 0.18 0.17 0.17 0.17 0.18 0.18 0.19 0.20 0.22 0.24 0.27 0.32 0.49 0.56 0.57 0.58 0.58 0.58 0.58 0.58 0.58 0.58 0.59 0.59 0.59
0.37 0.38 0.39 0.41 0.42 0.37 0.33 0.31 0.28 0.24 0.22 0.20 0.19 0.21 0.21 0.20 0.18 0.18 0.18 0.17 0.17 0.17 0.17 0.18 0.18 0.18 0.18 0.19 0.22 0.23 0.25 0.25 0.31 0.45 0.55 0.56 0.57 0.57 0.57 0.58 0.58 0.58 0.59 0.59

GFSNGP_prec_pwat_093.txt.gz
Precipitable_Water
0.37 0.38 0.37 0.37 0.37 0.38 0.33 0.34 0.30 0.33 0.32 0.35 0.38 0.41 0.40 0.41 0.41 0.41 0.46 0.49 0.50 0.52 0.55 0.57 0.59 0.62 0.64 0.65 0.67 0.69 0.68 0.68 0.67 0.69 0.71 0.72 0.72 0.73 0.73 0.71 0.70 0.69 0.68 0.68
0.33 0.37 0.36 0.33 0.36 0.38 0.38 0.38 0.38 0.38 0.34 0.42 0.43 0.42 0.41 0.41 0.40 0.40 0.43 0.50 0.55 0.57 0.58 0.59 0.62 0.64 0.66 0.67 0.68 0.70 0.68 0.67 0.69 0.68 0.68 0.68 0.70 0.70 0.70 0.71 0.72 0.70 0.68 0.67
0.29 0.34 0.33 0.28 0.34 0.35 0.36 0.39 0.38 0.32 0.37 0.44 0.41 0.40 0.41 0.42 0.43 0.42 0.45 0.50 0.53 0.56 0.59 0.61 0.63 0.66 0.65 0.67 0.70 0.69 0.68 0.68 0.68 0.69 0.69 0.69 0.69 0.69 0.70 0.72 0.74 0.71 0.72 0.68
0.27 0.28 0.19 0.29 0.36 0.38 0.36 0.35 0.37 0.37 0.40 0.42 0.42 0.45 0.47 0.47 0.44 0.44 0.48 0.52 0.56 0.60 0.63 0.65 0.67 0.66 0.68 0.69 0.69 0.70 0.70 0.70 0.70 0.70 0.70 0.71 0.71 0.69 0.69 0.70 0.71 0.71 0.71 0.72
0.26 0.24 0.27 0.30 0.34 0.32 0.31 0.31 0.39 0.37 0.40 0.42 0.45 0.45 0.42 0.48 0.50 0.50 0.50 0.57 0.60 0.65 0.68 0.69 0.67 0.67 0.67 0.68 0.69 0.71 0.71 0.72 0.73 0.73 0.72 0.71 0.69 0.68 0.69 0.69 0.70 0.72 0.72 0.72
0.29 0.22 0.18 0.32 0.36 0.43 0.40 0.27 0.43 0.44 0.41 0.40 0.42 0.32 0.38 0.45 0.48 0.53 0.55 0.63 0.65 0.68 0.72 0.71 0.69 0.69 0.66 0.66 0.68 0.69 0.73 0.74 0.76 0.76 0.74 0.71 0.71 0.71 0.71 0.70 0.68 0.69 0.71 0.72
0.28 0.26 0.27 0.33 0.37 0.41 0.24 0.34 0.47 0.46 0.43 0.40 0.38 0.42 0.48 0.49 0.47 0.52 0.57 0.60 0.69 0.71 0.70 0.70 0.73 0.71 0.67 0.67 0.67 0.70 0.74 0.76 0.76 0.77 0.75 0.75 0.75 0.74 0.73 0.70 0.68 0.66 0.67 0.69
0.27 0.24 0.22 0.40 0.41 0.33 0.42 0.47 0.49 0.48 0.45 0.45 0.47 0.49 0.51 0.52 0.50 0.51 0.55 0.59 0.64 0.63 0.64 0.67 0.69 0.70 0.67 0.67 0.71 0.73 0.75 0.76 0.75 0.75 0.74 0.74 0.73 0.73 0.71 0.69 0.66 0.65 0.65 0.65
0.29 0.28 0.36 0.40 0.41 0.46 0.48 0.46 0.52 0.51 0.50 0.50 0.50 0.52 0.55 0.54 0.55 0.56 0.57 0.60 0.63 0.63 0.63 0.67 0.70 0.71 0.68 0.72 0.74 0.78 0.76 0.75 0.75 0.75 0.74 0.75 0.74 0.71 0.70 0.69 0.66 0.64 0.64 0.63
0.34 0.38 0.39 0.42 0.46 0.48 0.49 0.53 0.57 0.59 0.58 0.59 0.58 0.59 0.59 0.61 0.60 0.60 0.62 0.62 0.65 0.65 0.65 0.67 0.70 0.71 0.70 0.74 0.75 0.74 0.73 0.73 0.74 0.73 0.73 0.74 0.74 0.72 0.70 0.68 0.66 0.66 0.65 0.64
0.37 0.41 0.44 0.46 0.49 0.50 0.54 0.59 0.60 0.61 0.60 0.61 0.63 0.62 0.64 0.64 0.64 0.64 0.63 0.64 0.66 0.65 0.65 0.65 0.68 0.71 0.74 0.75 0.75 0.73 0.72 0.72 0.72 0.73 0.73 0.73 0.73 0.72 0.72 0.72 0.70 0.67 0.67 0.65
0.38 0.45 0.44 0.45 0.49 0.53 0.53 0.57 0.60 0.59 0.59 0.61 0.60 0.58 0.59 0.59 0.62 0.64 0.65 0.67 0.67 0.68 0.68 0.70 0.74 0.75 0.75 0.75 0.75 0.72 0.71 0.72 0.72 0.72 0.73 0.73 0.73 0.71 0.76 0.75 0.73 0.72 0.71 0.67
0.43 0.48 0.47 0.49 0.52 0.57 0.56 0.58 0.62 0.62 0.62 0.60 0.61 0.60 0.59 0.57 0.57 0.58 0.60 0.60 0.60 0.61 0.65 0.67 0.69 0.71 0.73 0.75 0.74 0.73 0.72 0.72 0.73 0.72 0.71 0.70 0.70 0.70 0.67 0.71 0.74 0.73 0.71 0.68
0.50 0.49 0.45 0.50 0.48 0.56 0.59 0.61 0.62 0.64 0.65 0.64 0.62 0.62 0.60 0.57 0.57 0.55 0.54 0.55 0.56 0.56 0.56 0.58 0.60 0.62 0.65 0.67 0.69 0.70 0.73 0.74 0.74 0.73 0.73 0.71 0.70 0.69 0.69 0.66 0.65 0.67 0.72 0.70
0.43 0.49 0.47 0.49 0.51 0.53 0.59 0.60 0.58 0.59 0.61 0.61 0.62 0.60 0.59 0.57 0.56 0.55 0.56 0.56 0.55 0.54 0.54 0.54 0.55 0.57 0.63 0.64 0.64 0.66 0.69 0.72 0.73 0.74 0.74 0.72 0.71 0.69 0.68 0.68 0.67 0.66 0.66 0.65
0.47 0.49 0.50 0.47 0.47 0.50 0.54 0.57 0.57 0.57 0.59 0.59 0.59 0.58 0.58 0.57 0.55 0.55 0.55 0.54 0.50 0.48 0.49 0.50 0.50 0.54 0.58 0.61 0.61 0.61 0.64 0.67 0.70 0.71 0.72 0.71 0.70 0.68 0.67 0.67 0.66 0.65 0.63 0.61
0.43 0.43 0.48 0.48 0.49 0.50 0.52 0.55 0.58 0.57 0.56 0.55 0.53 0.53 0.53 0.52 0.52 0.52 0.52 0.53 0.52 0.50 0.51 0.51 0.51 0.54 0.55 0.57 0.58 0.58 0.59 0.61 0.63 0.65 0.67 0.69 0.69 0.68 0.67 0.66 0.66 0.66 0.66 0.66
0.52 0.50 0.51 0.55 0.54 0.54 0.54 0.54 0.54 0.55 0.52 0.50 0.50 0.50 0.49 0.47 0.42 0.42 0.45 0.49 0.51 0.52 0.52 0.52 0.54 0.55 0.57 0.58 0.58 0.58 0.58 0.59 0.59 0.58 0.60 0.60 0.62 0.65 0.67 0.66 0.66 0.66 0.67 0.67
0.50 0.51 0.51 0.53 0.57 0.56 0.56 0.54 0.53 0.51 0.48 0.45 0.44 0.41 0.39 0.35 0.34 0.34 0.36 0.39 0.41 0.43 0.50 0.55 0.56 0.56 0.56 0.58 0.59 0.59 0.58 0.58 0.58 0.59 0.59 0.59 0.58 0.59 0.59 0.61 0.65 0.66 0.66 0.66
0.50 0.52 0.52 0.53 0.55 0.55 0.54 0.54 0.51 0.47 0.45 0.41 0.36 0.33 0.32 0.33 0.34 0.33 0.34 0.34 0.35 0.37 0.41 0.43 0.50 0.54 0.56 0.57 0.58 0.58 0.58 0.57 0.57 0.57 0.57 0.57 0.56 0.56 0.57 0.58 0.59 0.59 0.62 0.65
0.49 0.50 0.50 0.49 0.50 0.50 0.46 0.44 0.40 0.41 0.44 0.43 0.38 0.37 0.36 0.37 0.36 0.34 0.32 0.31 0.33 0.30 0.29 0.29 0.31 0.34 0.39 0.47 0.54 0.56 0.57 0.56 0.56 0.56 0.56 0.55 0.55 0.55 0.54 0.54 0.54 0.55 0.57 0.59
0.47 0.48 0.49 0.49 0.49 0.50 0.51 0.48 0.42 0.40 0.40 0.40 0.39 0.38 0.36 0.33 0.31 0.29 0.29 0.26 0.26 0.25 0.24 0.24 0.24 0.24 0.25 0.27 0.29 0.33 0.39 0.45 0.51 0.55 0.56 0.56 0.56 0.55 0.55 0.56 0.56 0.56 0.56 0.57
0.46 0.48 0.48 0.48 0.48 0.47 0.48 0.48 0.49 0.45 0.42 0.41 0.40 0.38 0.35 0.32 0.29 0.23 0.22 0.23 0.22 0.21 0.21 0.20 0.21 0.21 0.22 0.21 0.21 0.21 0.22 0.24 0.28 0.33 0.40 0.47 0.53 0.55 0.56 0.56 0.56 0.57 0.57 0.57
0.46 0.48 0.49 0.50 0.50 0.48 0.43 0.42 0.40 0.38 0.37 0.37 0.35 0.33 0.30 0.29 0.29 0.28 0.27 0.25 0.24 0.23 0.22 0.21 0.22 0.22 0.22 0.21 0.20 0.19 0.19 0.19 0.20 0.21 0.24 0.27 0.32 0.39 0.47 0.54 0.55 0.57 0.57 0.58
0.36 0.41 0.47 0.47 0.46 0.46 0.43 0.42 0.39 0.37 0.35 0.33 0.30 0.29 0.27 0.26 0.23 0.25 0.25 0.25 0.26 0.25 0.23 0.23 0.22 0.22 0.22 0.21 0.21 0.20 0.20 0.20 0.20 0.19 0.19 0.20 0.21 0.24 0.29 0.36 0.48 0.54 0.56 0.57
0.31 0.33 0.35 0.39 0.42 0.41 0.43 0.42 0.38 0.35 0.33 0.30 0.27 0.25 0.25 0.25 0.27 0.27 0.28 0.29 0.29 0.29 0.27 0.25 0.23 0.23 0.23 0.22 0.22 0.22 0.22 0.21 0.21 0.20 0.20 0.19 0.20 0.20 0.21 0.23 0.28 0.36 0.50 0.55
0.30 0.31 0.31 0.30 0.32 0.35 0.38 0.41 0.38 0.35 0.33 0.30 0.25 0.23 0.22 0.24 0.26 0.27 0.28 0.29 0.30 0.30 0.30 0.29 0.27 0.26 0.25 0.24 0.23 0.23 0.23 0.23 0.23 0.23 0.23 0.22 0.21 0.21 0.20 0.20 0.21 0.25 0.29 0.32

GFSNGP_prec_pwat_096.txt.gz
Precipitable_Water
0.39 0.39 0.38 0.35 0.34 0.37 0.35 0.35 0.30 0.36 0.34 0.39 0.41 0.42 0.42 0.44 0.45 0.44 0.44 0.46 0.49 0.50 0.53 0.56 0.57 0.59 0.60 0.61 0.63 0.65 0.65 0.66 0.67 0.69 0.70 0.71 0.70 0.71 0.73 0.73 0.75 0.77 0.75 0.74
0.34 0.38 0.38 0.36 0.39 0.38 0.37 0.37 0.35 0.36 0.35 0.46 0.48 0.47 0.45 0.44 0.43 0.42 0.45 0.48 0.52 0.54 0.56 0.57 0.59 0.60 0.61 0.63 0.65 0.67 0.66 0.66 0.68 0.68 0.68 0.69 0.69 0.70 0.69 0.68 0.69 0.71 0.72 0.73
0.29 0.35 0.34 0.29 0.34 0.38 0.39 0.41 0.39 0.33 0.41 0.47 0.45 0.45 0.45 0.46 0.47 0.45 0.46 0.50 0.52 0.56 0.59 0.60 0.62 0.64 0.63 0.66 0.68 0.67 0.67 0.68 0.69 0.69 0.69 0.70 0.71 0.70 0.69 0.69 0.70 0.68 0.68 0.70
0.28 0.30 0.20 0.32 0.38 0.39 0.37 0.38 0.40 0.40 0.43 0.45 0.45 0.46 0.49 0.51 0.48 0.47 0.50 0.53 0.56 0.58 0.60 0.61 0.64 0.66 0.67 0.66 0.65 0.65 0.65 0.66 0.69 0.70 0.70 0.72 0.72 0.71 0.71 0.70 0.68 0.68 0.66 0.67
0.26 0.24 0.28 0.29 0.33 0.31 0.31 0.32 0.40 0.38 0.42 0.44 0.45 0.46 0.45 0.51 0.52 0.50 0.51 0.56 0.60 0.63 0.64 0.66 0.67 0.67 0.66 0.64 0.64 0.65 0.66 0.68 0.70 0.72 0.72 0.72 0.71 0.71 0.72 0.70 0.69 0.69 0.70 0.68
0.29 0.23 0.19 0.33 0.36 0.42 0.40 0.27 0.43 0.43 0.42 0.40 0.41 0.33 0.41 0.51 0.51 0.51 0.56 0.62 0.65 0.68 0.69 0.70 0.69 0.69 0.65 0.63 0.63 0.63 0.67 0.70 0.73 0.74 0.73 0.73 0.74 0.72 0.72 0.71 0.70 0.71 0.69 0.68
0.29 0.26 0.28 0.36 0.38 0.43 0.25 0.34 0.51 0.49 0.43 0.42 0.39 0.43 0.50 0.54 0.52 0.51 0.52 0.60 0.69 0.73 0.72 0.74 0.75 0.70 0.66 0.65 0.65 0.69 0.71 0.72 0.73 0.74 0.73 0.74 0.75 0.74 0.73 0.71 0.71 0.71 0.69 0.68
0.27 0.25 0.23 0.43 0.41 0.32 0.43 0.53 0.52 0.49 0.46 0.44 0.48 0.50 0.52 0.54 0.52 0.53 0.52 0.56 0.65 0.69 0.72 0.75 0.74 0.71 0.67 0.66 0.70 0.71 0.71 0.72 0.72 0.76 0.77 0.76 0.74 0.72 0.70 0.71 0.70 0.69 0.67 0.65
0.30 0.31 0.39 0.43 0.43 0.47 0.47 0.44 0.50 0.52 0.52 0.50 0.50 0.51 0.54 0.54 0.56 0.57 0.56 0.57 0.62 0.63 0.64 0.66 0.68 0.68 0.65 0.68 0.71 0.72 0.72 0.74 0.75 0.76 0.76 0.75 0.74 0.72 0.71 0.71 0.69 0.67 0.67 0.64
0.35 0.40 0.41 0.43 0.47 0.49 0.50 0.52 0.56 0.58 0.57 0.57 0.55 0.59 0.59 0.60 0.62 0.61 0.62 0.62 0.64 0.63 0.63 0.63 0.68 0.70 0.72 0.75 0.75 0.72 0.72 0.72 0.73 0.73 0.73 0.73 0.74 0.73 0.72 0.70 0.69 0.68 0.66 0.65
0.37 0.44 0.47 0.48 0.49 0.50 0.53 0.57 0.58 0.61 0.61 0.62 0.62 0.59 0.61 0.60 0.61 0.62 0.62 0.63 0.64 0.65 0.65 0.66 0.69 0.69 0.71 0.71 0.72 0.72 0.72 0.72 0.72 0.73 0.73 0.72 0.73 0.73 0.72 0.74 0.73 0.69 0.69 0.68
0.37 0.46 0.46 0.46 0.51 0.54 0.53 0.55 0.60 0.59 0.59 0.63 0.62 0.59 0.58 0.57 0.59 0.60 0.61 0.64 0.65 0.64 0.64 0.66 0.69 0.69 0.71 0.74 0.74 0.73 0.71 0.70 0.70 0.71 0.72 0.72 0.71 0.71 0.75 0.75 0.75 0.74 0.74 0.72
0.44 0.51 0.49 0.51 0.53 0.57 0.56 0.58 0.61 0.61 0.62 0.60 0.62 0.61 0.60 0.58 0.58 0.58 0.56 0.56 0.57 0.58 0.60 0.61 0.61 0.65 0.70 0.71 0.72 0.71 0.69 0.68 0.69 0.72 0.71 0.71 0.70 0.69 0.67 0.72 0.75 0.75 0.74 0.73
0.50 0.49 0.48 0.50 0.47 0.54 0.56 0.60 0.62 0.63 0.64 0.65 0.66 0.65 0.62 0.59 0.59 0.57 0.55 0.55 0.56 0.56 0.57 0.57 0.57 0.57 0.61 0.64 0.64 0.63 0.63 0.65 0.67 0.69 0.71 0.71 0.71 0.70 0.69 0.67 0.65 0.67 0.73 0.72
0.47 0.49 0.47 0.49 0.52 0.51 0.54 0.55 0.55 0.58 0.61 0.61 0.63 0.62 0.61 0.59 0.57 0.57 0.58 0.57 0.57 0.56 0.55 0.54 0.53 0.55 0.59 0.60 0.60 0.62 0.63 0.63 0.63 0.65 0.68 0.70 0.70 0.70 0.69 0.67 0.66 0.66 0.68 0.70
0.44 0.47 0.51 0.49 0.50 0.51 0.51 0.52 0.51 0.54 0.59 0.61 0.61 0.60 0.59 0.58 0.56 0.56 0.55 0.55 0.52 0.51 0.53 0.54 0.54 0.55 0.56 0.56 0.56 0.58 0.60 0.61 0.60 0.60 0.62 0.63 0.65 0.66 0.66 0.66 0.65 0.65 0.65 0.65
0.41 0.41 0.44 0.44 0.48 0.52 0.53 0.55 0.55 0.54 0.57 0.58 0.56 0.55 0.53 0.51 0.51 0.51 0.49 0.49 0.51 0.52 0.55 0.55 0.54 0.54 0.55 0.55 0.55 0.55 0.56 0.56 0.57 0.57 0.58 0.58 0.58 0.60 0.63 0.63 0.64 0.65 0.66 0.68
0.47 0.47 0.48 0.50 0.49 0.51 0.54 0.55 0.56 0.56 0.53 0.52 0.54 0.53 0.48 0.44 0.41 0.37 0.36 0.38 0.41 0.45 0.48 0.51 0.55 0.55 0.55 0.55 0.56 0.56 0.56 0.56 0.56 0.55 0.57 0.56 0.55 0.56 0.55 0.56 0.57 0.59 0.63 0.67
0.47 0.48 0.49 0.50 0.51 0.52 0.54 0.55 0.56 0.56 0.53 0.49 0.43 0.40 0.39 0.37 0.34 0.33 0.34 0.35 0.35 0.34 0.39 0.43 0.45 0.47 0.53 0.56 0.57 0.58 0.57 0.56 0.56 0.56 0.56 0.56 0.56 0.56 0.56 0.56 0.55 0.56 0.58 0.59
0.42 0.46 0.48 0.50 0.52 0.51 0.51 0.53 0.54 0.53 0.50 0.45 0.40 0.36 0.33 0.33 0.35 0.35 0.36 0.35 0.36 0.35 0.32 0.32 0.31 0.33 0.38 0.41 0.46 0.52 0.55 0.55 0.55 0.55 0.55 0.55 0.55 0.55 0.55 0.55 0.54 0.54 0.55 0.55
0.37 0.41 0.44 0.46 0.48 0.49 0.49 0.48 0.45 0.44 0.46 0.46 0.42 0.39 0.38 0.39 0.39 0.36 0.32 0.31 0.33 0.31 0.29 0.28 0.29 0.27 0.26 0.26 0.26 0.28 0.33 0.37 0.42 0.47 0.51 0.53 0.54 0.54 0.54 0.54 0.54 0.54 0.54 0.55
0.38 0.40 0.42 0.44 0.46 0.47 0.50 0.50 0.48 0.45 0.46 0.48 0.47 0.45 0.42 0.39 0.36 0.33 0.32 0.29 0.28 0.26 0.25 0.23 0.23 0.23 0.22 0.23 0.21 0.21 0.20 0.21 0.22 0.24 0.28 0.33 0.38 0.43 0.48 0.51 0.53 0.55 0.55 0.56
0.36 0.40 0.43 0.43 0.43 0.45 0.48 0.50 0.50 0.49 0.44 0.41 0.39 0.38 0.36 0.33 0.32 0.29 0.26 0.30 0.27 0.25 0.24 0.22 0.22 0.23 0.22 0.22 0.20 0.20 0.20 0.19 0.19 0.20 0.20 0.21 0.22 0.24 0.27 0.30 0.37 0.43 0.49 0.54
0.31 0.35 0.37 0.43 0.46 0.45 0.44 0.48 0.46 0.44 0.41 0.39 0.36 0.34 0.31 0.27 0.26 0.26 0.26 0.26 0.26 0.28 0.28 0.27 0.26 0.26 0.25 0.23 0.23 0.22 0.22 0.22 0.22 0.21 0.21 0.21 0.20 0.20 0.21 0.22 0.23 0.26 0.31 0.38
0.30 0.32 0.34 0.36 0.37 0.39 0.44 0.47 0.44 0.42 0.39 0.38 0.37 0.34 0.31 0.29 0.26 0.26 0.28 0.29 0.30 0.31 0.32 0.33 0.34 0.35 0.33 0.30 0.28 0.26 0.24 0.24 0.24 0.24 0.24 0.23 0.21 0.21 0.20 0.20 0.21 0.21 0.23 0.25
0.29 0.29 0.32 0.34 0.35 0.37 0.38 0.35 0.37 0.41 0.39 0.35 0.34 0.33 0.29 0.27 0.26 0.27 0.27 0.27 0.29 0.30 0.30 0.31 0.31 0.31 0.31 0.29 0.28 0.27 0.26 0.25 0.25 0.24 0.25 0.24 0.24 0.23 0.23 0.23 0.22 0.22 0.21 0.22
0.26 0.28 0.29 0.29 0.31 0.32 0.33 0.33 0.32 0.35 0.37 0.36 0.34 0.30 0.27 0.24 0.23 0.25 0.26 0.26 0.26 0.27 0.29 0.30 0.31 0.31 0.31 0.29 0.28 0.27 0.26 0.26 0.25 0.25 0.25 0.25 0.25 0.25 0.25 0.25 0.24 0.25 0.26 0.25

GFSNGP_prec_pwat_099.txt.gz
Precipitable_Water
0.37 0.37 0.36 0.32 0.32 0.35 0.34 0.36 0.33 0.36 0.35 0.40 0.41 0.41 0.42 0.44 0.47 0.46 0.45 0.47 0.51 0.52 0.55 0.58 0.58 0.60 0.61 0.62 0.63 0.64 0.65 0.66 0.68 0.71 0.73 0.72 0.70 0.70 0.71 0.71 0.73 0.74 0.73 0.73
0.33 0.37 0.37 0.34 0.36 0.36 0.39 0.38 0.38 0.39 0.37 0.47 0.49 0.49 0.47 0.46 0.46 0.46 0.48 0.48 0.49 0.54 0.55 0.56 0.58 0.58 0.60 0.60 0.62 0.64 0.63 0.63 0.66 0.67 0.68 0.68 0.69 0.69 0.70 0.70 0.70 0.70 0.70 0.71
0.27 0.34 0.34 0.29 0.36 0.37 0.40 0.42 0.40 0.33 0.41 0.47 0.46 0.47 0.49 0.48 0.48 0.48 0.49 0.50 0.52 0.54 0.59 0.60 0.60 0.62 0.61 0.63 0.66 0.66 0.66 0.67 0.67 0.68 0.67 0.68 0.70 0.70 0.69 0.69 0.70 0.70 0.69 0.69
0.28 0.29 0.20 0.33 0.41 0.44 0.41 0.42 0.44 0.44 0.46 0.49 0.49 0.51 0.53 0.54 0.52 0.50 0.53 0.56 0.57 0.58 0.60 0.64 0.67 0.67 0.67 0.67 0.67 0.66 0.65 0.65 0.66 0.65 0.65 0.68 0.69 0.69 0.71 0.72 0.71 0.70 0.68 0.68
0.25 0.25 0.29 0.30 0.35 0.34 0.35 0.36 0.45 0.42 0.44 0.45 0.48 0.49 0.47 0.53 0.55 0.55 0.54 0.59 0.63 0.66 0.65 0.66 0.66 0.68 0.66 0.64 0.65 0.65 0.64 0.64 0.65 0.67 0.67 0.69 0.70 0.71 0.73 0.73 0.72 0.71 0.70 0.69
0.29 0.22 0.19 0.33 0.38 0.44 0.40 0.29 0.48 0.46 0.42 0.40 0.41 0.32 0.40 0.51 0.54 0.55 0.57 0.60 0.64 0.68 0.70 0.69 0.69 0.71 0.68 0.66 0.65 0.64 0.64 0.66 0.68 0.69 0.70 0.69 0.70 0.72 0.74 0.74 0.72 0.71 0.70 0.70
0.27 0.26 0.28 0.38 0.40 0.43 0.23 0.32 0.51 0.49 0.45 0.43 0.38 0.42 0.50 0.55 0.55 0.57 0.54 0.59 0.68 0.71 0.71 0.73 0.76 0.74 0.69 0.67 0.65 0.68 0.69 0.70 0.70 0.71 0.71 0.71 0.71 0.72 0.72 0.71 0.69 0.69 0.68 0.70
0.27 0.25 0.23 0.45 0.43 0.31 0.42 0.51 0.54 0.53 0.49 0.47 0.48 0.50 0.53 0.55 0.54 0.54 0.53 0.55 0.67 0.70 0.72 0.77 0.78 0.77 0.72 0.69 0.73 0.73 0.73 0.71 0.71 0.72 0.73 0.74 0.74 0.73 0.72 0.71 0.69 0.68 0.68 0.68
0.31 0.31 0.39 0.45 0.44 0.49 0.48 0.44 0.51 0.52 0.53 0.53 0.52 0.52 0.54 0.55 0.56 0.58 0.58 0.58 0.61 0.66 0.70 0.75 0.78 0.76 0.69 0.71 0.72 0.72 0.71 0.71 0.73 0.74 0.76 0.75 0.73 0.71 0.69 0.70 0.68 0.67 0.67 0.66
0.35 0.41 0.43 0.46 0.49 0.51 0.54 0.53 0.58 0.60 0.59 0.59 0.57 0.60 0.61 0.59 0.60 0.62 0.63 0.63 0.64 0.63 0.63 0.64 0.69 0.70 0.71 0.73 0.74 0.73 0.73 0.73 0.73 0.72 0.72 0.73 0.72 0.72 0.70 0.69 0.68 0.67 0.67 0.67
0.38 0.43 0.47 0.48 0.51 0.51 0.53 0.56 0.58 0.62 0.64 0.63 0.63 0.63 0.62 0.60 0.61 0.62 0.63 0.63 0.64 0.64 0.65 0.66 0.69 0.69 0.72 0.74 0.74 0.72 0.71 0.70 0.71 0.72 0.71 0.71 0.71 0.71 0.71 0.72 0.72 0.69 0.69 0.69
0.35 0.46 0.47 0.48 0.51 0.54 0.53 0.55 0.58 0.60 0.61 0.64 0.64 0.62 0.62 0.58 0.59 0.59 0.58 0.61 0.62 0.64 0.64 0.65 0.67 0.68 0.70 0.72 0.71 0.68 0.67 0.70 0.72 0.71 0.71 0.70 0.68 0.69 0.74 0.74 0.74 0.74 0.74 0.72
0.44 0.52 0.50 0.52 0.56 0.56 0.55 0.56 0.60 0.61 0.62 0.60 0.63 0.63 0.62 0.59 0.60 0.59 0.57 0.56 0.55 0.56 0.59 0.61 0.61 0.61 0.64 0.66 0.68 0.68 0.66 0.65 0.66 0.67 0.66 0.64 0.66 0.67 0.66 0.71 0.74 0.74 0.74 0.73
0.46 0.45 0.45 0.51 0.48 0.53 0.54 0.56 0.59 0.62 0.64 0.65 0.65 0.66 0.65 0.63 0.61 0.59 0.57 0.58 0.58 0.58 0.58 0.58 0.58 0.59 0.61 0.62 0.61 0.60 0.62 0.62 0.60 0.62 0.62 0.63 0.63 0.66 0.67 0.66 0.65 0.67 0.72 0.72
0.41 0.45 0.45 0.49 0.52 0.53 0.52 0.53 0.53 0.52 0.55 0.58 0.62 0.61 0.62 0.60 0.59 0.58 0.58 0.57 0.56 0.55 0.54 0.55 0.55 0.56 0.59 0.59 0.57 0.57 0.57 0.59 0.62 0.62 0.63 0.62 0.61 0.61 0.63 0.64 0.65 0.66 0.67 0.69
0.42 0.44 0.45 0.44 0.46 0.51 0.54 0.52 0.51 0.51 0.55 0.56 0.59 0.62 0.61 0.59 0.57 0.55 0.54 0.54 0.52 0.50 0.52 0.53 0.55 0.57 0.58 0.59 0.57 0.56 0.56 0.58 0.60 0.60 0.59 0.58 0.58 0.58 0.57 0.56 0.59 0.62 0.64 0.65
0.37 0.37 0.41 0.41 0.44 0.48 0.49 0.52 0.56 0.57 0.56 0.55 0.55 0.58 0.56 0.55 0.53 0.51 0.48 0.45 0.43 0.45 0.48 0.49 0.50 0.55 0.59 0.60 0.58 0.55 0.55 0.56 0.56 0.56 0.55 0.56 0.55 0.55 0.56 0.54 0.53 0.56 0.60 0.63
0.39 0.40 0.44 0.45 0.45 0.47 0.49 0.50 0.53 0.55 0.55 0.57 0.57 0.52 0.47 0.44 0.41 0.38 0.35 0.35 0.36 0.39 0.40 0.41 0.45 0.48 0.49 0.53 0.57 0.57 0.56 0.55 0.55 0.55 0.56 0.55 0.55 0.55 0.55 0.54 0.53 0.52 0.54 0.56
0.36 0.36 0.39 0.43 0.46 0.48 0.50 0.50 0.52 0.54 0.55 0.55 0.51 0.46 0.42 0.38 0.35 0.32 0.34 0.36 0.37 0.37 0.35 0.35 0.35 0.34 0.36 0.41 0.42 0.47 0.52 0.54 0.55 0.55 0.55 0.55 0.55 0.55 0.54 0.54 0.53 0.54 0.55 0.55
0.35 0.38 0.39 0.40 0.43 0.46 0.48 0.51 0.51 0.51 0.51 0.47 0.44 0.41 0.37 0.36 0.37 0.37 0.37 0.37 0.37 0.35 0.33 0.31 0.32 0.30 0.28 0.28 0.29 0.28 0.29 0.35 0.42 0.47 0.50 0.52 0.53 0.53 0.53 0.54 0.53 0.53 0.53 0.53
0.32 0.34 0.37 0.39 0.41 0.43 0.43 0.45 0.45 0.44 0.46 0.46 0.44 0.42 0.42 0.43 0.44 0.41 0.37 0.33 0.34 0.31 0.28 0.27 0.26 0.26 0.26 0.26 0.25 0.23 0.22 0.21 0.22 0.23 0.25 0.28 0.33 0.36 0.40 0.46 0.48 0.50 0.52 0.53
0.31 0.33 0.35 0.38 0.39 0.41 0.44 0.44 0.45 0.46 0.47 0.49 0.50 0.50 0.48 0.44 0.41 0.38 0.37 0.33 0.33 0.30 0.28 0.27 0.25 0.25 0.26 0.26 0.23 0.22 0.21 0.20 0.20 0.19 0.19 0.20 0.19 0.20 0.21 0.22 0.25 0.29 0.35 0.42
0.29 0.31 0.34 0.36 0.37 0.39 0.42 0.44 0.46 0.47 0.45 0.42 0.39 0.38 0.36 0.34 0.32 0.29 0.25 0.27 0.27 0.27 0.28 0.29 0.30 0.31 0.31 0.29 0.26 0.24 0.23 0.22 0.22 0.22 0.22 0.22 0.21 0.21 0.20 0.20 0.21 0.21 0.22 0.24
0.29 0.30 0.31 0.34 0.38 0.38 0.37 0.40 0.43 0.42 0.44 0.45 0.44 0.42 0.38 0.33 0.29 0.28 0.28 0.29 0.30 0.31 0.33 0.33 0.34 0.35 0.36 0.34 0.33 0.31 0.30 0.29 0.28 0.27 0.27 0.27 0.26 0.25 0.24 0.23 0.22 0.22 0.22 0.21
0.29 0.29 0.31 0.32 0.32 0.35 0.38 0.40 0.42 0.41 0.39 0.39 0.38 0.38 0.36 0.34 0.29 0.28 0.29 0.29 0.29 0.29 0.29 0.31 0.32 0.32 0.33 0.32 0.31 0.30 0.29 0.28 0.28 0.29 0.28 0.28 0.28 0.27 0.25 0.25 0.25 0.25 0.25 0.25
0.25 0.26 0.28 0.30 0.32 0.33 0.34 0.36 0.35 0.35 0.35 0.36 0.35 0.35 0.36 0.34 0.29 0.26 0.25 0.26 0.27 0.27 0.26 0.26 0.27 0.28 0.29 0.29 0.30 0.30 0.29 0.29 0.28 0.27 0.27 0.26 0.26 0.25 0.25 0.25 0.25 0.25 0.25 0.25
0.22 0.24 0.25 0.26 0.29 0.30 0.30 0.30 0.30 0.32 0.34 0.37 0.36 0.35 0.32 0.29 0.28 0.24 0.21 0.19 0.18 0.18 0.18 0.18 0.19 0.20 0.21 0.21 0.22 0.24 0.25 0.25 0.26 0.27 0.27 0.27 0.26 0.26 0.26 0.26 0.26 0.26 0.26 0.27

GFSNGP_prec_pwat_102.txt.gz
Precipitable_Water
0.35 0.36 0.34 0.32 0.31 0.34 0.34 0.36 0.30 0.35 0.34 0.39 0.39 0.40 0.42 0.45 0.44 0.42 0.42 0.45 0.49 0.54 0.57 0.63 0.68 0.70 0.71 0.72 0.73 0.72 0.69 0.68 0.70 0.74 0.77 0.78 0.76 0.76 0.76 0.73 0.70 0.69 0.68 0.69
0.30 0.35 0.36 0.31 0.33 0.35 0.39 0.38 0.39 0.42 0.39 0.49 0.49 0.48 0.46 0.46 0.47 0.46 0.45 0.44 0.47 0.55 0.58 0.58 0.59 0.61 0.65 0.65 0.66 0.66 0.64 0.65 0.68 0.69 0.69 0.68 0.68 0.68 0.67 0.67 0.69 0.70 0.70 0.70
0.25 0.33 0.33 0.28 0.35 0.35 0.38 0.43 0.41 0.34 0.42 0.48 0.47 0.46 0.46 0.48 0.50 0.49 0.50 0.51 0.52 0.51 0.56 0.60 0.62 0.64 0.63 0.63 0.65 0.63 0.63 0.63 0.64 0.64 0.65 0.66 0.67 0.67 0.67 0.67 0.69 0.68 0.69 0.69
0.27 0.29 0.20 0.34 0.42 0.46 0.41 0.43 0.46 0.45 0.47 0.49 0.50 0.53 0.54 0.56 0.53 0.51 0.53 0.55 0.56 0.59 0.61 0.64 0.68 0.68 0.67 0.66 0.66 0.66 0.65 0.66 0.67 0.66 0.66 0.66 0.66 0.65 0.66 0.67 0.68 0.69 0.70 0.71
0.26 0.25 0.29 0.32 0.38 0.38 0.39 0.39 0.49 0.46 0.48 0.49 0.50 0.51 0.50 0.57 0.59 0.58 0.59 0.59 0.61 0.64 0.65 0.66 0.69 0.70 0.70 0.69 0.68 0.67 0.65 0.65 0.66 0.66 0.65 0.66 0.65 0.66 0.69 0.69 0.70 0.70 0.71 0.71
0.29 0.23 0.20 0.35 0.39 0.45 0.43 0.31 0.50 0.49 0.45 0.44 0.45 0.34 0.41 0.53 0.55 0.56 0.59 0.63 0.64 0.69 0.70 0.70 0.70 0.71 0.69 0.68 0.67 0.64 0.65 0.67 0.69 0.68 0.68 0.67 0.68 0.68 0.69 0.70 0.70 0.70 0.68 0.70
0.26 0.25 0.29 0.39 0.42 0.46 0.26 0.31 0.52 0.50 0.47 0.45 0.40 0.42 0.50 0.56 0.56 0.57 0.58 0.61 0.66 0.69 0.70 0.73 0.77 0.76 0.71 0.70 0.68 0.71 0.71 0.70 0.69 0.70 0.69 0.69 0.69 0.70 0.70 0.70 0.70 0.69 0.69 0.70
0.26 0.23 0.21 0.45 0.44 0.33 0.42 0.52 0.54 0.52 0.50 0.48 0.49 0.51 0.53 0.55 0.56 0.55 0.56 0.58 0.65 0.67 0.71 0.75 0.77 0.77 0.74 0.73 0.75 0.74 0.73 0.72 0.71 0.71 0.71 0.71 0.71 0.73 0.73 0.71 0.68 0.67 0.67 0.68
0.30 0.30 0.40 0.46 0.44 0.50 0.50 0.47 0.51 0.52 0.53 0.53 0.52 0.52 0.54 0.56 0.58 0.59 0.58 0.58 0.63 0.67 0.71 0.76 0.79 0.79 0.76 0.78 0.77 0.76 0.76 0.74 0.73 0.73 0.74 0.75 0.73 0.70 0.68 0.68 0.66 0.66 0.66 0.66
0.33 0.40 0.42 0.46 0.49 0.51 0.55 0.54 0.58 0.61 0.61 0.58 0.55 0.58 0.59 0.59 0.60 0.61 0.62 0.63 0.63 0.62 0.63 0.67 0.74 0.77 0.77 0.76 0.76 0.74 0.72 0.72 0.74 0.74 0.73 0.73 0.70 0.69 0.68 0.67 0.66 0.66 0.66 0.66
0.35 0.41 0.44 0.47 0.50 0.53 0.54 0.57 0.57 0.62 0.64 0.63 0.64 0.64 0.65 0.62 0.60 0.61 0.62 0.63 0.64 0.64 0.65 0.66 0.68 0.69 0.72 0.74 0.75 0.72 0.72 0.72 0.72 0.72 0.71 0.68 0.69 0.70 0.69 0.69 0.69 0.66 0.67 0.68
0.31 0.43 0.45 0.47 0.55 0.55 0.53 0.55 0.59 0.60 0.60 0.65 0.66 0.63 0.63 0.60 0.60 0.59 0.58 0.59 0.59 0.61 0.62 0.63 0.66 0.68 0.71 0.73 0.73 0.71 0.69 0.68 0.68 0.67 0.68 0.71 0.70 0.70 0.74 0.73 0.72 0.72 0.72 0.71
0.39 0.47 0.49 0.51 0.53 0.57 0.53 0.55 0.58 0.61 0.63 0.61 0.64 0.64 0.62 0.60 0.60 0.61 0.59 0.57 0.55 0.56 0.57 0.59 0.60 0.62 0.64 0.65 0.65 0.65 0.65 0.68 0.69 0.70 0.67 0.64 0.63 0.62 0.60 0.65 0.69 0.71 0.73 0.72
0.41 0.40 0.37 0.43 0.45 0.52 0.52 0.54 0.58 0.59 0.62 0.63 0.64 0.66 0.65 0.63 0.65 0.62 0.59 0.59 0.59 0.59 0.58 0.58 0.58 0.58 0.61 0.63 0.62 0.61 0.60 0.60 0.60 0.62 0.62 0.60 0.59 0.61 0.60 0.59 0.57 0.61 0.69 0.71
0.37 0.40 0.41 0.43 0.45 0.46 0.51 0.54 0.51 0.51 0.55 0.57 0.58 0.57 0.60 0.59 0.59 0.60 0.60 0.58 0.57 0.55 0.54 0.55 0.55 0.55 0.58 0.59 0.58 0.58 0.57 0.57 0.58 0.58 0.59 0.61 0.61 0.60 0.59 0.58 0.57 0.57 0.60 0.64
0.37 0.39 0.41 0.41 0.42 0.45 0.47 0.48 0.48 0.52 0.54 0.55 0.56 0.57 0.60 0.62 0.62 0.58 0.56 0.55 0.51 0.49 0.49 0.50 0.50 0.51 0.54 0.57 0.57 0.58 0.57 0.58 0.58 0.57 0.57 0.58 0.58 0.58 0.55 0.54 0.54 0.55 0.54 0.55
0.32 0.30 0.33 0.36 0.39 0.42 0.45 0.47 0.49 0.51 0.51 0.54 0.56 0.58 0.59 0.58 0.57 0.53 0.50 0.49 0.45 0.42 0.41 0.41 0.44 0.49 0.52 0.52 0.52 0.56 0.58 0.57 0.58 0.58 0.56 0.56 0.56 0.55 0.53 0.53 0.53 0.54 0.55 0.56
0.35 0.33 0.34 0.35 0.36 0.39 0.42 0.47 0.49 0.50 0.49 0.52 0.56 0.56 0.54 0.50 0.46 0.42 0.37 0.37 0.38 0.39 0.39 0.38 0.39 0.40 0.42 0.44 0.45 0.45 0.49 0.55 0.57 0.57 0.56 0.55 0.55 0.55 0.54 0.54 0.53 0.53 0.54 0.55
0.33 0.32 0.34 0.36 0.38 0.39 0.41 0.43 0.46 0.49 0.51 0.52 0.52 0.51 0.52 0.49 0.43 0.38 0.36 0.36 0.37 0.36 0.35 0.36 0.37 0.35 0.33 0.32 0.33 0.31 0.33 0.36 0.46 0.49 0.52 0.54 0.55 0.55 0.54 0.53 0.53 0.53 0.53 0.53
0.31 0.32 0.33 0.34 0.38 0.39 0.40 0.43 0.44 0.44 0.47 0.48 0.47 0.46 0.43 0.41 0.40 0.38 0.38 0.38 0.40 0.39 0.36 0.32 0.31 0.31 0.30 0.29 0.30 0.27 0.26 0.25 0.24 0.25 0.29 0.37 0.41 0.44 0.47 0.48 0.49 0.50 0.52 0.53
0.29 0.30 0.30 0.32 0.34 0.37 0.38 0.38 0.38 0.39 0.39 0.41 0.42 0.42 0.42 0.44 0.49 0.48 0.44 0.41 0.44 0.41 0.35 0.31 0.28 0.27 0.28 0.29 0.28 0.25 0.24 0.23 0.22 0.21 0.21 0.21 0.22 0.22 0.23 0.24 0.27 0.30 0.32 0.36
0.27 0.27 0.29 0.31 0.33 0.35 0.38 0.39 0.38 0.38 0.40 0.42 0.44 0.45 0.46 0.45 0.42 0.39 0.37 0.33 0.35 0.33 0.30 0.28 0.29 0.31 0.32 0.32 0.29 0.26 0.25 0.24 0.23 0.22 0.21 0.21 0.21 0.21 0.21 0.21 0.21 0.21 0.22 0.23
0.27 0.28 0.29 0.31 0.32 0.34 0.37 0.38 0.39 0.40 0.40 0.41 0.39 0.37 0.37 0.36 0.35 0.30 0.27 0.30 0.30 0.29 0.31 0.32 0.33 0.35 0.36 0.35 0.34 0.33 0.32 0.31 0.30 0.29 0.29 0.28 0.28 0.27 0.26 0.25 0.25 0.24 0.23 0.23
0.28 0.28 0.29 0.32 0.34 0.34 0.33 0.36 0.39 0.40 0.40 0.40 0.42 0.43 0.40 0.38 0.37 0.37 0.36 0.35 0.35 0.33 0.32 0.32 0.32 0.33 0.34 0.33 0.33 0.32 0.32 0.32 0.31 0.30 0.30 0.30 0.29 0.29 0.28 0.28 0.27 0.27 0.26 0.26
0.28 0.28 0.29 0.29 0.30 0.31 0.35 0.38 0.39 0.40 0.41 0.41 0.39 0.37 0.36 0.35 0.33 0.32 0.30 0.29 0.28 0.27 0.27 0.29 0.29 0.29 0.28 0.27 0.27 0.27 0.28 0.28 0.29 0.29 0.28 0.28 0.27 0.27 0.27 0.27 0.26 0.26 0.27 0.27
0.25 0.25 0.27 0.29 0.29 0.31 0.32 0.33 0.33 0.36 0.36 0.33 0.35 0.37 0.35 0.35 0.35 0.33 0.30 0.27 0.25 0.24 0.22 0.20 0.19 0.19 0.21 0.22 0.22 0.22 0.22 0.23 0.23 0.23 0.23 0.24 0.24 0.25 0.25 0.26 0.26 0.26 0.26 0.27
0.22 0.22 0.22 0.22 0.25 0.28 0.29 0.30 0.29 0.28 0.30 0.31 0.32 0.38 0.37 0.36 0.31 0.29 0.26 0.22 0.19 0.18 0.17 0.17 0.18 0.20 0.22 0.22 0.22 0.21 0.21 0.21 0.21 0.21 0.22 0.22 0.22 0.22 0.22 0.22 0.23 0.23 0.24 0.24

GFSNGP_prec_pwat_105.txt.gz
Precipitable_Water
0.34 0.36 0.35 0.33 0.31 0.31 0.31 0.34 0.26 0.31 0.31 0.35 0.38 0.39 0.41 0.44 0.46 0.44 0.45 0.48 0.54 0.59 0.63 0.70 0.74 0.78 0.78 0.78 0.77 0.78 0.75 0.73 0.73 0.75 0.75 0.76 0.78 0.79 0.79 0.79 0.78 0.76 0.71 0.67
0.29 0.35 0.35 0.32 0.33 0.34 0.38 0.38 0.36 0.36 0.35 0.44 0.47 0.48 0.44 0.44 0.45 0.44 0.45 0.46 0.49 0.53 0.55 0.60 0.70 0.75 0.76 0.75 0.75 0.76 0.74 0.71 0.70 0.70 0.71 0.72 0.76 0.77 0.74 0.72 0.70 0.67 0.66 0.65
0.24 0.31 0.32 0.25 0.31 0.33 0.38 0.41 0.39 0.33 0.40 0.47 0.46 0.47 0.47 0.47 0.48 0.48 0.49 0.50 0.49 0.52 0.57 0.61 0.64 0.67 0.67 0.69 0.71 0.69 0.68 0.68 0.67 0.68 0.68 0.69 0.69 0.67 0.65 0.64 0.66 0.65 0.66 0.66
0.26 0.28 0.20 0.32 0.42 0.43 0.40 0.42 0.45 0.44 0.45 0.48 0.49 0.52 0.53 0.54 0.52 0.51 0.52 0.54 0.56 0.57 0.57 0.60 0.66 0.68 0.67 0.66 0.65 0.65 0.66 0.65 0.66 0.65 0.64 0.65 0.64 0.65 0.66 0.66 0.65 0.64 0.65 0.67
0.24 0.24 0.28 0.34 0.39 0.43 0.40 0.38 0.47 0.44 0.47 0.47 0.49 0.51 0.49 0.55 0.55 0.54 0.56 0.58 0.60 0.64 0.65 0.65 0.65 0.70 0.70 0.67 0.67 0.66 0.65 0.67 0.67 0.67 0.66 0.65 0.64 0.65 0.65 0.65 0.65 0.66 0.67 0.67
0.27 0.22 0.19 0.34 0.39 0.46 0.46 0.32 0.51 0.49 0.46 0.44 0.44 0.33 0.39 0.53 0.58 0.58 0.60 0.61 0.62 0.66 0.69 0.69 0.70 0.72 0.69 0.68 0.68 0.67 0.69 0.68 0.69 0.69 0.66 0.65 0.65 0.65 0.67 0.68 0.67 0.67 0.67 0.68
0.23 0.23 0.28 0.38 0.43 0.47 0.27 0.31 0.51 0.50 0.48 0.47 0.42 0.45 0.50 0.55 0.54 0.57 0.57 0.60 0.64 0.67 0.69 0.72 0.76 0.75 0.70 0.70 0.67 0.72 0.72 0.71 0.70 0.70 0.68 0.68 0.68 0.69 0.68 0.67 0.68 0.69 0.68 0.67
0.24 0.21 0.19 0.43 0.44 0.33 0.43 0.53 0.55 0.52 0.51 0.48 0.49 0.51 0.53 0.54 0.54 0.55 0.54 0.58 0.64 0.65 0.71 0.75 0.78 0.77 0.75 0.73 0.77 0.77 0.75 0.72 0.70 0.71 0.70 0.70 0.69 0.69 0.70 0.69 0.67 0.66 0.65 0.64
0.27 0.27 0.40 0.46 0.44 0.51 0.52 0.47 0.50 0.51 0.53 0.54 0.52 0.52 0.54 0.56 0.57 0.57 0.58 0.58 0.62 0.66 0.69 0.75 0.78 0.79 0.76 0.79 0.81 0.79 0.77 0.75 0.74 0.74 0.74 0.73 0.71 0.71 0.71 0.70 0.66 0.63 0.62 0.61
0.32 0.37 0.39 0.43 0.48 0.51 0.53 0.52 0.56 0.58 0.58 0.60 0.56 0.58 0.59 0.60 0.58 0.59 0.60 0.61 0.63 0.62 0.64 0.67 0.74 0.78 0.80 0.82 0.83 0.81 0.76 0.75 0.76 0.74 0.73 0.75 0.77 0.75 0.71 0.66 0.63 0.61 0.61 0.61
0.33 0.38 0.41 0.44 0.48 0.50 0.52 0.56 0.57 0.59 0.61 0.61 0.63 0.62 0.63 0.63 0.61 0.60 0.61 0.62 0.63 0.63 0.63 0.64 0.67 0.69 0.74 0.76 0.77 0.74 0.73 0.74 0.74 0.75 0.75 0.74 0.73 0.70 0.67 0.66 0.65 0.64 0.64 0.64
0.26 0.39 0.40 0.43 0.50 0.54 0.50 0.51 0.55 0.57 0.59 0.63 0.65 0.64 0.65 0.61 0.62 0.61 0.58 0.59 0.59 0.60 0.61 0.62 0.64 0.66 0.70 0.72 0.73 0.71 0.69 0.70 0.70 0.71 0.70 0.70 0.67 0.66 0.71 0.73 0.73 0.72 0.71 0.66
0.34 0.43 0.44 0.47 0.50 0.52 0.51 0.51 0.53 0.56 0.59 0.60 0.63 0.64 0.64 0.61 0.61 0.60 0.59 0.59 0.57 0.58 0.59 0.59 0.59 0.59 0.63 0.65 0.64 0.63 0.62 0.64 0.67 0.68 0.68 0.68 0.68 0.67 0.63 0.64 0.65 0.65 0.65 0.64
0.38 0.37 0.33 0.38 0.37 0.47 0.50 0.51 0.53 0.54 0.58 0.60 0.60 0.62 0.62 0.61 0.62 0.61 0.61 0.63 0.63 0.62 0.60 0.59 0.58 0.57 0.60 0.61 0.60 0.60 0.61 0.61 0.61 0.61 0.60 0.60 0.61 0.61 0.61 0.57 0.55 0.59 0.62 0.63
0.34 0.35 0.34 0.37 0.39 0.41 0.45 0.45 0.45 0.47 0.52 0.54 0.58 0.58 0.59 0.57 0.56 0.59 0.62 0.63 0.61 0.58 0.56 0.56 0.54 0.53 0.57 0.57 0.56 0.56 0.56 0.56 0.56 0.57 0.58 0.58 0.58 0.57 0.59 0.57 0.57 0.57 0.58 0.60
0.33 0.34 0.34 0.34 0.37 0.39 0.41 0.42 0.42 0.44 0.47 0.50 0.53 0.55 0.57 0.59 0.59 0.60 0.62 0.62 0.55 0.52 0.53 0.51 0.47 0.48 0.51 0.52 0.51 0.51 0.52 0.55 0.57 0.57 0.57 0.57 0.57 0.56 0.56 0.56 0.55 0.56 0.55 0.54
0.29 0.27 0.28 0.27 0.28 0.33 0.37 0.41 0.43 0.45 0.47 0.48 0.49 0.52 0.54 0.56 0.57 0.56 0.55 0.55 0.51 0.46 0.42 0.41 0.41 0.44 0.47 0.47 0.48 0.47 0.48 0.49 0.51 0.56 0.56 0.56 0.57 0.57 0.57 0.56 0.55 0.55 0.54 0.56
0.35 0.33 0.31 0.31 0.31 0.32 0.34 0.38 0.41 0.43 0.44 0.48 0.49 0.49 0.49 0.51 0.49 0.49 0.46 0.46 0.46 0.41 0.39 0.37 0.37 0.39 0.39 0.38 0.40 0.40 0.39 0.41 0.43 0.46 0.52 0.54 0.56 0.57 0.57 0.55 0.54 0.53 0.54 0.56
0.35 0.31 0.30 0.30 0.33 0.34 0.36 0.38 0.40 0.42 0.44 0.45 0.45 0.46 0.48 0.49 0.49 0.48 0.46 0.43 0.41 0.37 0.38 0.37 0.38 0.37 0.35 0.34 0.35 0.32 0.30 0.28 0.28 0.30 0.38 0.46 0.48 0.50 0.51 0.52 0.53 0.54 0.54 0.53
0.33 0.31 0.30 0.30 0.33 0.34 0.35 0.39 0.40 0.40 0.41 0.42 0.42 0.42 0.41 0.42 0.43 0.43 0.43 0.41 0.42 0.42 0.41 0.37 0.36 0.34 0.32 0.31 0.31 0.28 0.27 0.26 0.25 0.24 0.24 0.24 0.24 0.27 0.32 0.37 0.40 0.41 0.42 0.43
0.31 0.30 0.28 0.29 0.30 0.33 0.35 0.35 0.35 0.36 0.37 0.36 0.36 0.36 0.36 0.37 0.40 0.45 0.45 0.44 0.47 0.49 0.45 0.41 0.36 0.33 0.32 0.32 0.30 0.28 0.26 0.25 0.24 0.22 0.22 0.21 0.21 0.21 0.21 0.21 0.22 0.22 0.23 0.24
0.30 0.28 0.27 0.28 0.29 0.31 0.34 0.36 0.35 0.34 0.35 0.37 0.39 0.40 0.40 0.39 0.38 0.37 0.38 0.37 0.37 0.39 0.34 0.31 0.31 0.33 0.36 0.38 0.37 0.36 0.35 0.34 0.32 0.30 0.28 0.27 0.26 0.25 0.25 0.25 0.24 0.25 0.25 0.24
0.28 0.28 0.29 0.29 0.30 0.31 0.34 0.35 0.36 0.37 0.37 0.38 0.39 0.38 0.35 0.32 0.32 0.30 0.30 0.33 0.35 0.35 0.33 0.35 0.36 0.36 0.36 0.35 0.34 0.34 0.34 0.33 0.32 0.32 0.32 0.31 0.31 0.31 0.30 0.29 0.28 0.29 0.28 0.27
0.28 0.29 0.29 0.31 0.32 0.32 0.31 0.35 0.37 0.38 0.39 0.40 0.40 0.40 0.40 0.38 0.35 0.34 0.32 0.33 0.35 0.37 0.37 0.37 0.35 0.35 0.34 0.33 0.31 0.30 0.29 0.29 0.30 0.30 0.31 0.31 0.31 0.30 0.29 0.29 0.29 0.28 0.28 0.27
0.30 0.30 0.29 0.28 0.27 0.28 0.31 0.34 0.37 0.38 0.39 0.40 0.41 0.42 0.41 0.37 0.34 0.33 0.31 0.31 0.31 0.31 0.29 0.27 0.27 0.28 0.24 0.21 0.21 0.22 0.23 0.23 0.23 0.24 0.24 0.24 0.23 0.23 0.24 0.24 0.24 0.25 0.26 0.26
0.28 0.27 0.27 0.28 0.28 0.30 0.31 0.32 0.31 0.34 0.35 0.35 0.37 0.35 0.35 0.36 0.35 0.35 0.34 0.32 0.30 0.28 0.26 0.23 0.20 0.19 0.19 0.20 0.22 0.23 0.22 0.21 0.21 0.21 0.21 0.22 0.22 0.22 0.22 0.22 0.22 0.22 0.22 0.22
0.26 0.25 0.23 0.22 0.24 0.25 0.26 0.27 0.26 0.26 0.28 0.27 0.26 0.29 0.30 0.33 0.33 0.32 0.28 0.24 0.22 0.21 0.20 0.19 0.18 0.18 0.18 0.20 0.21 0.21 0.20 0.20 0.20 0.20 0.21 0.21 0.21 0.21 0.22 0.21 0.21 0.21 0.21 0.21

GFSNGP_prec_pwat_108.txt.gz
Precipitable_Water
0.34 0.35 0.35 0.33 0.31 0.33 0.30 0.32 0.25 0.30 0.31 0.36 0.40 0.42 0.43 0.46 0.46 0.46 0.48 0.51 0.54 0.61 0.64 0.67 0.70 0.73 0.79 0.82 0.84 0.83 0.80 0.79 0.78 0.80 0.83 0.82 0.82 0.82 0.79 0.78 0.76 0.77 0.77 0.77
0.29 0.34 0.35 0.30 0.33 0.36 0.36 0.34 0.33 0.33 0.32 0.42 0.45 0.47 0.45 0.45 0.46 0.45 0.45 0.47 0.51 0.57 0.65 0.68 0.73 0.76 0.79 0.79 0.81 0.84 0.80 0.77 0.77 0.76 0.74 0.73 0.73 0.72 0.72 0.73 0.75 0.75 0.74 0.70
0.22 0.30 0.31 0.24 0.30 0.32 0.36 0.39 0.37 0.29 0.38 0.45 0.43 0.44 0.45 0.46 0.47 0.46 0.48 0.50 0.49 0.52 0.57 0.65 0.69 0.76 0.76 0.80 0.83 0.82 0.79 0.76 0.75 0.74 0.70 0.68 0.69 0.69 0.69 0.70 0.71 0.68 0.67 0.65
0.23 0.26 0.17 0.29 0.42 0.41 0.39 0.41 0.44 0.44 0.46 0.47 0.47 0.50 0.52 0.54 0.51 0.51 0.51 0.53 0.54 0.54 0.54 0.58 0.64 0.66 0.70 0.74 0.75 0.77 0.73 0.70 0.70 0.67 0.65 0.66 0.66 0.66 0.66 0.67 0.65 0.66 0.66 0.66
0.22 0.22 0.26 0.33 0.38 0.42 0.37 0.37 0.47 0.45 0.47 0.48 0.50 0.50 0.49 0.56 0.56 0.55 0.55 0.56 0.59 0.63 0.65 0.64 0.64 0.65 0.65 0.65 0.65 0.64 0.63 0.63 0.64 0.66 0.65 0.65 0.64 0.64 0.65 0.66 0.67 0.67 0.67 0.65
0.25 0.20 0.18 0.32 0.39 0.45 0.48 0.32 0.51 0.49 0.45 0.45 0.46 0.35 0.41 0.54 0.57 0.58 0.60 0.61 0.61 0.65 0.69 0.70 0.70 0.70 0.65 0.63 0.65 0.65 0.66 0.68 0.70 0.70 0.69 0.67 0.68 0.69 0.68 0.68 0.67 0.68 0.66 0.66
0.22 0.20 0.25 0.36 0.42 0.47 0.26 0.30 0.51 0.51 0.49 0.47 0.42 0.46 0.53 0.56 0.56 0.58 0.59 0.62 0.66 0.65 0.66 0.72 0.76 0.74 0.70 0.70 0.67 0.70 0.73 0.74 0.72 0.72 0.71 0.70 0.70 0.70 0.69 0.68 0.67 0.65 0.65 0.66
0.22 0.19 0.17 0.40 0.40 0.31 0.41 0.52 0.54 0.53 0.51 0.49 0.51 0.52 0.53 0.56 0.57 0.58 0.58 0.60 0.64 0.63 0.68 0.77 0.79 0.77 0.74 0.72 0.75 0.76 0.75 0.74 0.73 0.74 0.74 0.72 0.70 0.69 0.68 0.67 0.65 0.66 0.65 0.64
0.24 0.24 0.38 0.45 0.44 0.49 0.51 0.46 0.49 0.50 0.53 0.54 0.53 0.53 0.55 0.57 0.59 0.60 0.60 0.60 0.63 0.65 0.67 0.74 0.79 0.80 0.76 0.79 0.81 0.80 0.78 0.77 0.77 0.76 0.76 0.75 0.72 0.70 0.68 0.69 0.68 0.66 0.65 0.63
0.28 0.33 0.36 0.41 0.46 0.49 0.52 0.50 0.52 0.56 0.55 0.56 0.54 0.57 0.59 0.60 0.60 0.59 0.60 0.61 0.63 0.63 0.63 0.66 0.73 0.76 0.79 0.82 0.83 0.82 0.80 0.80 0.79 0.77 0.76 0.76 0.75 0.73 0.72 0.72 0.70 0.67 0.65 0.62
0.28 0.34 0.37 0.40 0.44 0.46 0.49 0.52 0.53 0.55 0.57 0.56 0.57 0.57 0.59 0.60 0.62 0.61 0.60 0.61 0.62 0.61 0.61 0.63 0.66 0.69 0.74 0.78 0.79 0.78 0.79 0.78 0.78 0.75 0.75 0.74 0.75 0.76 0.75 0.76 0.72 0.67 0.65 0.64
0.22 0.34 0.35 0.38 0.46 0.49 0.47 0.47 0.49 0.51 0.52 0.57 0.60 0.59 0.62 0.60 0.61 0.59 0.58 0.59 0.58 0.58 0.58 0.60 0.62 0.64 0.68 0.71 0.73 0.72 0.71 0.73 0.73 0.73 0.74 0.74 0.72 0.72 0.75 0.73 0.70 0.71 0.71 0.70
0.32 0.40 0.41 0.43 0.46 0.48 0.46 0.48 0.49 0.49 0.54 0.54 0.58 0.60 0.61 0.60 0.60 0.60 0.59 0.58 0.58 0.59 0.60 0.60 0.60 0.60 0.62 0.64 0.64 0.63 0.62 0.63 0.65 0.67 0.69 0.68 0.67 0.66 0.64 0.69 0.72 0.71 0.69 0.66
0.38 0.37 0.34 0.37 0.34 0.42 0.44 0.46 0.48 0.49 0.51 0.54 0.56 0.58 0.58 0.57 0.59 0.59 0.60 0.63 0.64 0.64 0.63 0.62 0.60 0.58 0.60 0.61 0.60 0.60 0.59 0.60 0.60 0.61 0.61 0.61 0.61 0.61 0.61 0.58 0.57 0.60 0.65 0.63
0.34 0.36 0.34 0.36 0.36 0.37 0.41 0.42 0.40 0.40 0.43 0.45 0.50 0.52 0.55 0.56 0.56 0.56 0.58 0.58 0.61 0.62 0.62 0.60 0.57 0.56 0.58 0.57 0.55 0.54 0.54 0.54 0.56 0.56 0.57 0.57 0.57 0.56 0.57 0.57 0.56 0.56 0.60 0.61
0.34 0.34 0.33 0.32 0.32 0.34 0.36 0.38 0.37 0.38 0.41 0.44 0.45 0.46 0.49 0.52 0.53 0.55 0.57 0.59 0.56 0.56 0.60 0.57 0.52 0.51 0.51 0.50 0.50 0.50 0.50 0.51 0.51 0.50 0.50 0.52 0.55 0.54 0.54 0.54 0.55 0.55 0.57 0.57
0.28 0.27 0.29 0.29 0.27 0.28 0.30 0.34 0.36 0.37 0.39 0.41 0.44 0.47 0.49 0.49 0.50 0.49 0.52 0.55 0.57 0.55 0.52 0.48 0.43 0.42 0.42 0.41 0.43 0.44 0.45 0.46 0.47 0.46 0.47 0.47 0.51 0.54 0.55 0.55 0.55 0.56 0.57 0.60
0.35 0.34 0.32 0.30 0.28 0.28 0.30 0.34 0.36 0.38 0.39 0.42 0.44 0.45 0.44 0.44 0.43 0.45 0.46 0.46 0.47 0.47 0.47 0.46 0.43 0.40 0.38 0.37 0.37 0.35 0.35 0.34 0.33 0.34 0.37 0.42 0.45 0.49 0.50 0.52 0.54 0.54 0.55 0.58
0.37 0.34 0.33 0.30 0.29 0.30 0.31 0.34 0.36 0.38 0.39 0.41 0.40 0.40 0.41 0.42 0.43 0.43 0.43 0.41 0.41 0.43 0.45 0.44 0.40 0.38 0.37 0.37 0.37 0.35 0.32 0.30 0.29 0.28 0.28 0.28 0.29 0.35 0.43 0.46 0.46 0.48 0.50 0.51
0.36 0.35 0.33 0.29 0.30 0.29 0.30 0.34 0.36 0.37 0.38 0.38 0.37 0.38 0.38 0.38 0.38 0.37 0.36 0.35 0.38 0.42 0.46 0.45 0.42 0.38 0.37 0.36 0.36 0.33 0.29 0.28 0.26 0.25 0.25 0.24 0.24 0.24 0.24 0.24 0.25 0.27 0.28 0.30
0.35 0.35 0.31 0.29 0.28 0.29 0.30 0.32 0.32 0.32 0.35 0.35 0.33 0.33 0.33 0.34 0.35 0.38 0.37 0.36 0.39 0.39 0.41 0.40 0.36 0.34 0.35 0.38 0.40 0.39 0.35 0.33 0.32 0.31 0.29 0.27 0.25 0.24 0.23 0.23 0.23 0.23 0.22 0.23
0.36 0.32 0.30 0.28 0.27 0.28 0.31 0.32 0.33 0.32 0.31 0.33 0.34 0.36 0.37 0.37 0.37 0.36 0.33 0.30 0.30 0.31 0.33 0.35 0.33 0.36 0.38 0.40 0.39 0.37 0.36 0.35 0.35 0.35 0.35 0.35 0.34 0.33 0.32 0.32 0.31 0.30 0.30 0.30
0.35 0.31 0.29 0.29 0.29 0.30 0.32 0.32 0.33 0.35 0.34 0.35 0.35 0.37 0.37 0.36 0.34 0.31 0.32 0.34 0.33 0.33 0.33 0.34 0.37 0.39 0.40 0.39 0.36 0.34 0.32 0.31 0.31 0.31 0.32 0.32 0.32 0.32 0.32 0.32 0.32 0.32 0.31 0.30
0.33 0.30 0.30 0.31 0.32 0.31 0.29 0.31 0.33 0.35 0.36 0.37 0.39 0.40 0.39 0.37 0.39 0.41 0.37 0.34 0.33 0.31 0.30 0.31 0.32 0.34 0.35 0.32 0.30 0.27 0.25 0.26 0.27 0.26 0.25 0.26 0.26 0.26 0.26 0.26 0.26 0.26 0.26 0.26
0.32 0.31 0.32 0.31 0.29 0.28 0.29 0.30 0.32 0.34 0.35 0.37 0.39 0.41 0.42 0.42 0.39 0.38 0.34 0.33 0.32 0.32 0.30 0.29 0.29 0.30 0.27 0.24 0.21 0.20 0.23 0.25 0.24 0.23 0.22 0.22 0.22 0.22 0.23 0.23 0.23 0.23 0.23 0.23
0.32 0.30 0.31 0.31 0.30 0.29 0.30 0.30 0.28 0.30 0.32 0.32 0.34 0.35 0.37 0.35 0.33 0.34 0.34 0.33 0.33 0.29 0.26 0.24 0.24 0.22 0.21 0.20 0.20 0.21 0.22 0.22 0.21 0.20 0.20 0.20 0.21 0.21 0.21 0.21 0.21 0.21 0.21 0.21
0.32 0.32 0.29 0.26 0.25 0.25 0.25 0.25 0.24 0.24 0.25 0.25 0.25 0.26 0.26 0.26 0.26 0.27 0.28 0.26 0.24 0.22 0.21 0.20 0.20 0.19 0.19 0.20 0.20 0.21 0.21 0.20 0.19 0.19 0.20 0.19 0.19 0.19 0.19 0.19 0.19 0.19 0.19 0.19

GFSNGP_prec_pwat_111.txt.gz
Precipitable_Water
0.33 0.35 0.34 0.32 0.32 0.33 0.29 0.32 0.26 0.31 0.33 0.39 0.42 0.43 0.46 0.49 0.49 0.50 0.53 0.57 0.63 0.67 0.70 0.73 0.76 0.79 0.83 0.88 0.93 0.95 0.94 0.94 0.91 0.91 0.95 0.98 0.99 0.98 0.97 0.94 0.89 0.86 0.81 0.77
0.29 0.34 0.32 0.28 0.33 0.34 0.35 0.35 0.33 0.34 0.32 0.44 0.46 0.48 0.45 0.46 0.46 0.46 0.48 0.53 0.57 0.63 0.69 0.71 0.72 0.75 0.79 0.83 0.88 0.92 0.90 0.87 0.85 0.83 0.81 0.80 0.79 0.79 0.80 0.79 0.76 0.75 0.74 0.75
0.21 0.30 0.30 0.22 0.29 0.32 0.34 0.38 0.37 0.30 0.38 0.45 0.42 0.44 0.46 0.47 0.48 0.47 0.48 0.49 0.52 0.56 0.62 0.72 0.77 0.80 0.78 0.81 0.85 0.85 0.84 0.82 0.80 0.78 0.76 0.76 0.75 0.72 0.70 0.71 0.72 0.71 0.73 0.72
0.22 0.24 0.15 0.29 0.42 0.40 0.38 0.40 0.41 0.41 0.43 0.45 0.46 0.49 0.49 0.51 0.49 0.48 0.48 0.49 0.51 0.54 0.58 0.62 0.72 0.77 0.81 0.83 0.83 0.84 0.82 0.82 0.81 0.78 0.76 0.76 0.73 0.70 0.68 0.68 0.69 0.69 0.68 0.65
0.20 0.20 0.25 0.31 0.37 0.39 0.35 0.36 0.45 0.42 0.42 0.44 0.46 0.46 0.45 0.54 0.54 0.51 0.52 0.54 0.55 0.56 0.57 0.59 0.61 0.65 0.66 0.68 0.72 0.75 0.77 0.78 0.78 0.77 0.73 0.70 0.67 0.66 0.66 0.65 0.65 0.67 0.69 0.70
0.23 0.18 0.16 0.29 0.37 0.46 0.47 0.31 0.48 0.45 0.43 0.43 0.43 0.32 0.39 0.51 0.52 0.52 0.56 0.58 0.58 0.60 0.62 0.64 0.65 0.66 0.63 0.62 0.62 0.63 0.64 0.65 0.66 0.66 0.65 0.64 0.65 0.65 0.66 0.67 0.67 0.71 0.71 0.72
0.20 0.19 0.24 0.34 0.40 0.44 0.23 0.29 0.50 0.49 0.48 0.46 0.40 0.44 0.50 0.54 0.54 0.55 0.55 0.56 0.63 0.63 0.61 0.67 0.72 0.72 0.68 0.67 0.64 0.66 0.68 0.69 0.69 0.70 0.68 0.68 0.68 0.69 0.69 0.69 0.71 0.72 0.72 0.71
0.20 0.17 0.16 0.38 0.38 0.29 0.38 0.49 0.52 0.49 0.48 0.47 0.49 0.51 0.51 0.54 0.56 0.56 0.56 0.58 0.61 0.61 0.64 0.69 0.73 0.74 0.71 0.70 0.74 0.74 0.74 0.71 0.71 0.73 0.73 0.72 0.70 0.71 0.71 0.71 0.70 0.69 0.67 0.67
0.22 0.21 0.35 0.42 0.41 0.47 0.48 0.45 0.47 0.48 0.51 0.51 0.51 0.51 0.54 0.55 0.56 0.57 0.58 0.59 0.62 0.63 0.65 0.71 0.74 0.77 0.74 0.76 0.79 0.79 0.77 0.75 0.74 0.74 0.74 0.75 0.73 0.71 0.70 0.70 0.69 0.69 0.69 0.67
0.26 0.31 0.35 0.39 0.44 0.47 0.49 0.47 0.50 0.53 0.52 0.52 0.50 0.54 0.55 0.56 0.58 0.59 0.59 0.59 0.62 0.63 0.62 0.65 0.72 0.74 0.75 0.79 0.82 0.81 0.79 0.79 0.79 0.78 0.78 0.77 0.77 0.76 0.74 0.74 0.73 0.71 0.71 0.69
0.26 0.32 0.36 0.38 0.41 0.44 0.47 0.49 0.50 0.52 0.53 0.53 0.54 0.53 0.55 0.57 0.58 0.60 0.60 0.60 0.61 0.60 0.61 0.62 0.66 0.68 0.73 0.75 0.79 0.79 0.80 0.81 0.80 0.80 0.79 0.79 0.80 0.79 0.78 0.78 0.77 0.75 0.75 0.73
0.19 0.31 0.32 0.34 0.43 0.46 0.45 0.44 0.47 0.48 0.50 0.55 0.55 0.55 0.58 0.58 0.60 0.59 0.58 0.59 0.59 0.60 0.59 0.59 0.61 0.63 0.65 0.68 0.70 0.70 0.72 0.73 0.75 0.76 0.77 0.77 0.77 0.76 0.81 0.81 0.80 0.80 0.78 0.74
0.29 0.36 0.37 0.41 0.43 0.46 0.44 0.45 0.47 0.46 0.48 0.49 0.53 0.55 0.57 0.56 0.57 0.58 0.59 0.59 0.60 0.60 0.62 0.62 0.62 0.61 0.63 0.64 0.64 0.62 0.61 0.63 0.64 0.66 0.68 0.71 0.71 0.70 0.68 0.73 0.76 0.76 0.75 0.74
0.37 0.37 0.34 0.38 0.36 0.41 0.41 0.43 0.45 0.45 0.45 0.47 0.49 0.51 0.52 0.53 0.55 0.55 0.56 0.58 0.60 0.62 0.63 0.64 0.64 0.63 0.64 0.63 0.61 0.60 0.59 0.60 0.60 0.60 0.61 0.61 0.62 0.62 0.62 0.61 0.61 0.63 0.69 0.68
0.33 0.36 0.34 0.36 0.36 0.36 0.38 0.38 0.36 0.36 0.39 0.40 0.44 0.45 0.47 0.47 0.49 0.51 0.55 0.57 0.57 0.56 0.56 0.59 0.59 0.60 0.62 0.61 0.58 0.56 0.55 0.54 0.54 0.54 0.55 0.55 0.55 0.54 0.56 0.56 0.56 0.58 0.60 0.61
0.32 0.34 0.34 0.31 0.31 0.32 0.32 0.31 0.30 0.32 0.36 0.38 0.39 0.40 0.43 0.45 0.46 0.47 0.50 0.51 0.50 0.50 0.53 0.54 0.53 0.56 0.59 0.53 0.49 0.49 0.49 0.50 0.50 0.49 0.49 0.49 0.50 0.49 0.49 0.52 0.54 0.55 0.56 0.57
0.27 0.27 0.28 0.28 0.29 0.28 0.27 0.30 0.31 0.33 0.35 0.36 0.37 0.41 0.42 0.43 0.44 0.45 0.46 0.47 0.48 0.49 0.49 0.49 0.49 0.51 0.51 0.46 0.42 0.39 0.37 0.37 0.40 0.43 0.44 0.45 0.45 0.46 0.46 0.49 0.51 0.53 0.55 0.58
0.33 0.32 0.34 0.32 0.29 0.27 0.27 0.30 0.32 0.34 0.34 0.37 0.39 0.40 0.39 0.39 0.38 0.39 0.40 0.39 0.40 0.42 0.43 0.42 0.41 0.42 0.42 0.40 0.40 0.37 0.35 0.34 0.33 0.32 0.32 0.33 0.36 0.39 0.42 0.45 0.48 0.48 0.50 0.54
0.35 0.35 0.35 0.33 0.32 0.29 0.28 0.30 0.32 0.34 0.36 0.37 0.37 0.36 0.38 0.38 0.39 0.40 0.40 0.38 0.36 0.35 0.38 0.40 0.39 0.39 0.41 0.43 0.44 0.43 0.39 0.35 0.33 0.33 0.31 0.30 0.29 0.30 0.29 0.30 0.33 0.39 0.44 0.46
0.36 0.37 0.36 0.34 0.32 0.30 0.29 0.31 0.32 0.33 0.35 0.36 0.36 0.35 0.34 0.36 0.36 0.36 0.34 0.32 0.33 0.35 0.39 0.39 0.39 0.40 0.39 0.40 0.42 0.41 0.37 0.35 0.33 0.32 0.31 0.29 0.27 0.26 0.26 0.26 0.25 0.25 0.26 0.26
0.36 0.36 0.35 0.34 0.31 0.30 0.29 0.30 0.30 0.31 0.34 0.35 0.33 0.32 0.33 0.33 0.34 0.34 0.35 0.34 0.37 0.37 0.34 0.34 0.34 0.29 0.29 0.31 0.36 0.38 0.39 0.38 0.36 0.35 0.35 0.35 0.33 0.32 0.30 0.29 0.27 0.26 0.26 0.26
0.36 0.35 0.35 0.33 0.30 0.29 0.30 0.31 0.32 0.32 0.32 0.32 0.33 0.33 0.34 0.36 0.37 0.38 0.38 0.33 0.31 0.31 0.30 0.30 0.31 0.31 0.33 0.36 0.36 0.36 0.35 0.35 0.34 0.33 0.33 0.33 0.33 0.33 0.34 0.35 0.35 0.35 0.34 0.33
0.35 0.35 0.34 0.32 0.30 0.30 0.32 0.32 0.33 0.33 0.33 0.33 0.33 0.34 0.35 0.37 0.39 0.35 0.33 0.38 0.36 0.33 0.33 0.33 0.32 0.33 0.35 0.38 0.36 0.34 0.32 0.31 0.30 0.31 0.34 0.32 0.29 0.29 0.31 0.31 0.32 0.32 0.32 0.32
0.35 0.34 0.32 0.33 0.33 0.32 0.29 0.31 0.33 0.34 0.34 0.35 0.36 0.38 0.38 0.37 0.39 0.42 0.42 0.41 0.37 0.34 0.32 0.31 0.31 0.30 0.30 0.30 0.29 0.28 0.26 0.25 0.24 0.25 0.28 0.28 0.27 0.26 0.26 0.27 0.26 0.25 0.25 0.25
0.35 0.33 0.34 0.33 0.31 0.30 0.31 0.31 0.32 0.32 0.33 0.34 0.36 0.38 0.40 0.41 0.39 0.40 0.40 0.38 0.34 0.32 0.31 0.32 0.31 0.28 0.26 0.24 0.22 0.22 0.21 0.23 0.24 0.25 0.24 0.22 0.22 0.22 0.23 0.23 0.23 0.23 0.24 0.23
0.35 0.33 0.34 0.34 0.32 0.31 0.31 0.30 0.28 0.29 0.29 0.28 0.30 0.33 0.34 0.34 0.34 0.35 0.32 0.30 0.30 0.29 0.28 0.25 0.22 0.21 0.20 0.20 0.20 0.22 0.22 0.22 0.23 0.21 0.21 0.21 0.21 0.21 0.21 0.21 0.20 0.20 0.20 0.20
0.37 0.36 0.34 0.32 0.31 0.29 0.27 0.25 0.24 0.24 0.27 0.26 0.24 0.26 0.27 0.26 0.26 0.26 0.26 0.26 0.26 0.26 0.24 0.22 0.21 0.20 0.20 0.19 0.19 0.19 0.20 0.21 0.21 0.20 0.20 0.19 0.19 0.19 0.19 0.19 0.19 0.19 0.19 0.19

GFSNGP_prec_pwat_114.txt.gz
Precipitable_Water
0.34 0.36 0.38 0.35 0.34 0.34 0.31 0.32 0.27 0.32 0.33 0.39 0.44 0.46 0.48 0.51 0.55 0.58 0.61 0.70 0.73 0.79 0.84 0.87 0.89 0.93 0.98 1.08 1.11 1.10 1.08 1.08 1.06 1.06 1.07 1.10 1.12 1.13 1.12 1.12 1.10 1.06 1.01 0.94
0.29 0.33 0.34 0.31 0.35 0.35 0.35 0.35 0.34 0.35 0.34 0.45 0.48 0.50 0.48 0.49 0.50 0.51 0.53 0.58 0.66 0.72 0.75 0.78 0.82 0.84 0.90 0.98 1.05 1.08 1.04 1.01 1.01 0.99 0.97 0.97 0.99 1.01 1.04 1.04 1.00 0.96 0.90 0.86
0.22 0.29 0.28 0.23 0.30 0.33 0.35 0.37 0.36 0.29 0.36 0.45 0.42 0.43 0.44 0.46 0.47 0.48 0.50 0.53 0.56 0.61 0.68 0.76 0.78 0.79 0.79 0.85 0.94 0.97 0.98 1.00 0.99 0.97 0.92 0.90 0.91 0.90 0.86 0.84 0.83 0.79 0.77 0.77
0.21 0.23 0.15 0.31 0.42 0.40 0.36 0.38 0.40 0.39 0.40 0.42 0.43 0.46 0.47 0.49 0.47 0.48 0.50 0.52 0.53 0.56 0.60 0.65 0.75 0.81 0.83 0.82 0.84 0.86 0.88 0.89 0.92 0.91 0.88 0.86 0.83 0.81 0.80 0.78 0.75 0.73 0.73 0.74
0.19 0.19 0.24 0.30 0.36 0.38 0.35 0.34 0.42 0.39 0.41 0.42 0.43 0.44 0.44 0.49 0.50 0.49 0.51 0.53 0.55 0.58 0.59 0.60 0.63 0.70 0.75 0.79 0.82 0.82 0.81 0.84 0.87 0.88 0.86 0.85 0.80 0.78 0.79 0.77 0.73 0.71 0.72 0.71
0.22 0.17 0.15 0.25 0.37 0.45 0.44 0.27 0.44 0.42 0.41 0.40 0.40 0.31 0.38 0.49 0.51 0.50 0.53 0.57 0.57 0.58 0.60 0.63 0.64 0.65 0.61 0.62 0.66 0.68 0.73 0.78 0.82 0.82 0.81 0.80 0.78 0.75 0.73 0.73 0.70 0.70 0.69 0.71
0.19 0.17 0.22 0.32 0.38 0.41 0.22 0.28 0.46 0.46 0.45 0.43 0.38 0.43 0.48 0.53 0.52 0.54 0.54 0.55 0.58 0.61 0.59 0.64 0.69 0.69 0.65 0.65 0.63 0.66 0.69 0.70 0.71 0.72 0.71 0.71 0.71 0.71 0.70 0.70 0.69 0.70 0.70 0.72
0.19 0.16 0.14 0.36 0.36 0.27 0.36 0.48 0.49 0.47 0.47 0.45 0.48 0.50 0.52 0.54 0.53 0.54 0.53 0.56 0.59 0.59 0.61 0.67 0.71 0.70 0.67 0.67 0.72 0.73 0.71 0.70 0.70 0.71 0.71 0.72 0.72 0.72 0.73 0.72 0.70 0.69 0.69 0.70
0.20 0.20 0.33 0.39 0.38 0.44 0.46 0.44 0.46 0.46 0.48 0.48 0.48 0.49 0.52 0.53 0.55 0.56 0.55 0.55 0.58 0.60 0.62 0.66 0.70 0.73 0.70 0.72 0.75 0.75 0.75 0.74 0.76 0.76 0.75 0.75 0.72 0.71 0.71 0.72 0.71 0.70 0.69 0.68
0.25 0.29 0.35 0.39 0.43 0.45 0.46 0.44 0.47 0.49 0.48 0.48 0.45 0.48 0.47 0.48 0.50 0.53 0.56 0.56 0.59 0.60 0.60 0.60 0.66 0.69 0.71 0.75 0.78 0.77 0.76 0.77 0.77 0.76 0.77 0.77 0.77 0.77 0.74 0.73 0.71 0.71 0.70 0.70
0.24 0.30 0.35 0.37 0.40 0.43 0.44 0.46 0.46 0.48 0.49 0.48 0.48 0.47 0.48 0.50 0.51 0.53 0.54 0.55 0.56 0.55 0.55 0.58 0.62 0.65 0.68 0.72 0.76 0.76 0.77 0.77 0.78 0.78 0.77 0.77 0.78 0.78 0.78 0.79 0.79 0.75 0.75 0.74
0.18 0.28 0.30 0.32 0.38 0.42 0.41 0.41 0.44 0.45 0.45 0.49 0.50 0.48 0.51 0.49 0.51 0.51 0.51 0.53 0.54 0.55 0.56 0.57 0.58 0.59 0.61 0.64 0.65 0.65 0.66 0.69 0.73 0.76 0.77 0.78 0.77 0.77 0.83 0.81 0.81 0.81 0.81 0.79
0.25 0.32 0.35 0.38 0.40 0.42 0.41 0.42 0.44 0.43 0.44 0.44 0.48 0.50 0.49 0.48 0.49 0.50 0.50 0.52 0.52 0.54 0.57 0.59 0.60 0.61 0.64 0.63 0.62 0.60 0.59 0.61 0.62 0.62 0.64 0.66 0.68 0.70 0.69 0.75 0.79 0.79 0.78 0.78
0.34 0.34 0.31 0.36 0.34 0.41 0.41 0.41 0.42 0.41 0.42 0.42 0.44 0.47 0.47 0.46 0.47 0.46 0.47 0.49 0.53 0.53 0.53 0.54 0.55 0.58 0.64 0.65 0.65 0.63 0.61 0.60 0.59 0.59 0.60 0.60 0.60 0.61 0.62 0.62 0.62 0.65 0.71 0.72
0.32 0.34 0.34 0.37 0.38 0.37 0.37 0.36 0.34 0.33 0.35 0.37 0.41 0.41 0.43 0.42 0.44 0.45 0.49 0.50 0.50 0.49 0.49 0.50 0.50 0.51 0.55 0.58 0.59 0.60 0.61 0.59 0.59 0.57 0.55 0.55 0.55 0.55 0.55 0.54 0.53 0.54 0.59 0.63
0.33 0.34 0.34 0.32 0.32 0.32 0.31 0.30 0.29 0.30 0.33 0.35 0.36 0.38 0.39 0.40 0.42 0.43 0.45 0.46 0.44 0.44 0.46 0.45 0.45 0.45 0.46 0.48 0.49 0.52 0.53 0.52 0.51 0.51 0.51 0.50 0.50 0.49 0.49 0.49 0.49 0.50 0.52 0.54
0.28 0.27 0.29 0.29 0.29 0.29 0.29 0.29 0.28 0.29 0.32 0.35 0.36 0.39 0.41 0.40 0.40 0.41 0.43 0.45 0.46 0.45 0.44 0.43 0.41 0.42 0.43 0.42 0.43 0.44 0.44 0.42 0.41 0.39 0.38 0.38 0.42 0.46 0.47 0.47 0.46 0.48 0.51 0.55
0.33 0.34 0.34 0.32 0.31 0.30 0.28 0.28 0.29 0.31 0.32 0.36 0.38 0.39 0.38 0.38 0.38 0.39 0.39 0.39 0.38 0.40 0.41 0.41 0.39 0.37 0.35 0.33 0.34 0.35 0.34 0.36 0.38 0.36 0.35 0.34 0.34 0.34 0.35 0.38 0.45 0.45 0.48 0.52
0.35 0.33 0.34 0.35 0.34 0.32 0.30 0.29 0.30 0.32 0.35 0.36 0.36 0.35 0.37 0.37 0.37 0.38 0.39 0.38 0.36 0.35 0.36 0.39 0.37 0.35 0.34 0.34 0.36 0.38 0.37 0.35 0.36 0.38 0.38 0.37 0.36 0.34 0.32 0.31 0.30 0.33 0.38 0.43
0.34 0.35 0.36 0.35 0.36 0.33 0.31 0.31 0.32 0.32 0.34 0.35 0.36 0.35 0.35 0.35 0.36 0.36 0.35 0.33 0.33 0.34 0.39 0.39 0.37 0.36 0.37 0.33 0.33 0.34 0.33 0.33 0.32 0.32 0.34 0.35 0.35 0.34 0.33 0.31 0.29 0.27 0.27 0.27
0.34 0.35 0.35 0.34 0.34 0.34 0.32 0.32 0.31 0.30 0.33 0.35 0.34 0.34 0.33 0.34 0.34 0.34 0.33 0.33 0.38 0.39 0.37 0.35 0.34 0.34 0.30 0.28 0.31 0.34 0.33 0.32 0.31 0.31 0.33 0.33 0.33 0.34 0.35 0.35 0.34 0.33 0.30 0.29
0.36 0.35 0.35 0.34 0.33 0.31 0.33 0.33 0.32 0.32 0.33 0.33 0.34 0.34 0.32 0.33 0.35 0.36 0.38 0.37 0.36 0.35 0.34 0.32 0.32 0.31 0.30 0.32 0.35 0.35 0.34 0.33 0.32 0.31 0.29 0.31 0.34 0.35 0.34 0.35 0.36 0.36 0.37 0.37
0.37 0.36 0.35 0.33 0.30 0.32 0.34 0.35 0.35 0.34 0.34 0.34 0.34 0.33 0.33 0.35 0.37 0.36 0.35 0.38 0.39 0.38 0.35 0.33 0.32 0.32 0.31 0.33 0.35 0.33 0.30 0.29 0.26 0.25 0.25 0.26 0.29 0.33 0.35 0.34 0.31 0.31 0.33 0.34
0.38 0.37 0.35 0.33 0.34 0.34 0.32 0.34 0.35 0.35 0.35 0.35 0.36 0.37 0.36 0.35 0.37 0.41 0.42 0.43 0.42 0.40 0.36 0.33 0.31 0.31 0.31 0.30 0.28 0.26 0.25 0.23 0.22 0.23 0.26 0.28 0.29 0.27 0.25 0.26 0.27 0.28 0.30 0.29
0.38 0.36 0.34 0.33 0.33 0.34 0.34 0.35 0.34 0.34 0.34 0.34 0.34 0.36 0.37 0.38 0.37 0.40 0.40 0.40 0.40 0.37 0.34 0.32 0.31 0.31 0.29 0.26 0.23 0.22 0.21 0.20 0.21 0.22 0.24 0.24 0.23 0.23 0.25 0.25 0.24 0.25 0.25 0.26
0.36 0.35 0.35 0.36 0.36 0.36 0.35 0.33 0.30 0.31 0.30 0.29 0.30 0.31 0.33 0.34 0.34 0.34 0.33 0.34 0.34 0.30 0.28 0.28 0.28 0.26 0.24 0.22 0.21 0.20 0.19 0.20 0.21 0.22 0.23 0.22 0.22 0.22 0.21 0.22 0.22 0.22 0.22 0.21
0.38 0.39 0.38 0.37 0.37 0.36 0.34 0.32 0.29 0.26 0.27 0.27 0.26 0.29 0.29 0.28 0.28 0.27 0.26 0.26 0.26 0.26 0.27 0.27 0.26 0.24 0.23 0.21 0.21 0.20 0.20 0.20 0.20 0.20 0.21 0.21 0.20 0.19 0.19 0.20 0.20 0.20 0.20 0.20

GFSNGP_prec_pwat_117.txt.gz
Precipitable_Water
0.36 0.36 0.37 0.38 0.36 0.36 0.33 0.36 0.30 0.35 0.35 0.42 0.47 0.49 0.52 0.54 0.59 0.65 0.70 0.80 0.86 0.87 0.86 0.91 1.04 1.13 1.16 1.17 1.19 1.21 1.17 1.17 1.15 1.18 1.19 1.21 1.23 1.26 1.29 1.30 1.29 1.25 1.17 1.11
0.29 0.34 0.34 0.32 0.37 0.37 0.36 0.37 0.37 0.38 0.37 0.48 0.51 0.51 0.49 0.51 0.52 0.53 0.58 0.65 0.76 0.84 0.90 0.91 0.91 0.94 1.06 1.13 1.14 1.16 1.12 1.07 1.10 1.10 1.10 1.09 1.08 1.11 1.16 1.17 1.15 1.12 1.07 1.03
0.23 0.29 0.28 0.24 0.32 0.34 0.36 0.39 0.38 0.32 0.39 0.46 0.44 0.46 0.47 0.48 0.49 0.50 0.52 0.57 0.63 0.70 0.78 0.82 0.85 0.89 0.89 0.98 1.08 1.08 1.06 1.08 1.08 1.07 1.04 1.02 1.02 1.04 1.05 1.05 1.07 1.07 1.06 1.02
0.22 0.24 0.16 0.30 0.42 0.41 0.36 0.38 0.40 0.39 0.41 0.42 0.43 0.46 0.49 0.51 0.49 0.50 0.52 0.54 0.57 0.62 0.68 0.77 0.84 0.84 0.87 0.89 0.94 0.99 1.02 1.06 1.08 1.07 1.04 1.01 0.97 0.96 0.94 0.95 0.95 0.94 0.89 0.86
0.22 0.20 0.25 0.30 0.37 0.38 0.36 0.33 0.40 0.37 0.39 0.41 0.43 0.47 0.44 0.50 0.51 0.51 0.53 0.56 0.58 0.61 0.64 0.65 0.68 0.78 0.84 0.86 0.87 0.85 0.86 0.91 0.97 0.99 0.97 0.96 0.94 0.93 0.91 0.88 0.84 0.82 0.81 0.78
0.24 0.19 0.16 0.26 0.37 0.43 0.43 0.27 0.42 0.41 0.39 0.39 0.40 0.32 0.37 0.50 0.51 0.51 0.54 0.57 0.57 0.61 0.64 0.66 0.67 0.68 0.66 0.69 0.76 0.84 0.87 0.87 0.89 0.90 0.90 0.90 0.91 0.90 0.91 0.87 0.83 0.82 0.79 0.78
0.20 0.18 0.23 0.32 0.39 0.44 0.25 0.29 0.44 0.44 0.42 0.41 0.36 0.40 0.47 0.52 0.52 0.52 0.52 0.55 0.60 0.60 0.62 0.66 0.72 0.73 0.69 0.68 0.65 0.68 0.70 0.73 0.77 0.81 0.82 0.83 0.84 0.85 0.83 0.80 0.77 0.75 0.73 0.74
0.18 0.16 0.15 0.37 0.37 0.29 0.37 0.46 0.45 0.44 0.43 0.41 0.43 0.45 0.48 0.49 0.49 0.50 0.49 0.51 0.56 0.57 0.58 0.65 0.69 0.71 0.69 0.68 0.74 0.74 0.73 0.71 0.70 0.71 0.71 0.72 0.72 0.72 0.72 0.71 0.69 0.68 0.68 0.69
0.20 0.20 0.31 0.37 0.37 0.43 0.45 0.45 0.44 0.44 0.44 0.44 0.43 0.44 0.46 0.45 0.47 0.49 0.51 0.52 0.55 0.55 0.56 0.59 0.62 0.65 0.64 0.68 0.74 0.76 0.75 0.74 0.74 0.75 0.74 0.74 0.71 0.70 0.70 0.70 0.69 0.68 0.68 0.69
0.22 0.26 0.31 0.36 0.41 0.43 0.44 0.41 0.43 0.45 0.44 0.44 0.41 0.44 0.44 0.44 0.44 0.45 0.48 0.48 0.51 0.52 0.53 0.54 0.59 0.62 0.65 0.70 0.72 0.73 0.72 0.74 0.75 0.74 0.75 0.77 0.78 0.77 0.75 0.73 0.72 0.71 0.70 0.70
0.21 0.27 0.31 0.34 0.37 0.39 0.40 0.42 0.42 0.44 0.45 0.43 0.43 0.42 0.43 0.44 0.45 0.46 0.48 0.49 0.50 0.49 0.49 0.50 0.53 0.56 0.59 0.62 0.65 0.67 0.69 0.72 0.75 0.76 0.77 0.77 0.77 0.78 0.77 0.78 0.78 0.75 0.76 0.76
0.16 0.23 0.26 0.29 0.35 0.39 0.38 0.37 0.40 0.41 0.41 0.45 0.45 0.44 0.46 0.45 0.46 0.45 0.45 0.48 0.47 0.49 0.50 0.51 0.52 0.54 0.57 0.59 0.60 0.60 0.59 0.62 0.65 0.70 0.73 0.73 0.74 0.75 0.80 0.80 0.80 0.80 0.81 0.80
0.22 0.28 0.30 0.33 0.36 0.38 0.36 0.38 0.40 0.40 0.42 0.41 0.43 0.45 0.45 0.43 0.44 0.43 0.43 0.44 0.44 0.46 0.49 0.49 0.50 0.51 0.55 0.57 0.58 0.59 0.58 0.58 0.60 0.61 0.61 0.61 0.63 0.66 0.66 0.72 0.77 0.77 0.78 0.78
0.30 0.30 0.28 0.32 0.30 0.36 0.38 0.40 0.41 0.40 0.40 0.40 0.41 0.43 0.44 0.43 0.43 0.42 0.42 0.44 0.46 0.47 0.46 0.47 0.47 0.47 0.50 0.50 0.51 0.52 0.55 0.59 0.60 0.59 0.60 0.60 0.59 0.59 0.60 0.60 0.60 0.64 0.72 0.73
0.30 0.31 0.31 0.34 0.35 0.36 0.38 0.38 0.34 0.33 0.33 0.34 0.37 0.37 0.39 0.38 0.39 0.40 0.43 0.45 0.45 0.45 0.45 0.45 0.44 0.44 0.46 0.46 0.45 0.46 0.47 0.49 0.52 0.55 0.58 0.59 0.58 0.57 0.56 0.54 0.53 0.54 0.57 0.59
0.31 0.32 0.32 0.31 0.33 0.34 0.34 0.32 0.29 0.29 0.31 0.32 0.33 0.34 0.36 0.37 0.39 0.38 0.40 0.42 0.40 0.39 0.42 0.42 0.41 0.42 0.41 0.41 0.39 0.40 0.40 0.39 0.39 0.41 0.41 0.46 0.50 0.52 0.52 0.50 0.49 0.50 0.50 0.50
0.26 0.26 0.29 0.29 0.31 0.31 0.30 0.31 0.30 0.30 0.31 0.31 0.33 0.36 0.37 0.37 0.38 0.38 0.39 0.41 0.42 0.42 0.42 0.41 0.39 0.40 0.39 0.37 0.34 0.34 0.34 0.34 0.36 0.36 0.36 0.35 0.37 0.39 0.40 0.42 0.43 0.47 0.51 0.52
0.33 0.34 0.34 0.33 0.32 0.31 0.31 0.32 0.31 0.30 0.30 0.33 0.35 0.36 0.36 0.35 0.35 0.37 0.38 0.39 0.37 0.36 0.39 0.41 0.41 0.39 0.37 0.35 0.33 0.33 0.32 0.33 0.33 0.32 0.33 0.32 0.34 0.36 0.37 0.38 0.37 0.37 0.42 0.49
0.34 0.34 0.35 0.34 0.34 0.34 0.34 0.33 0.32 0.33 0.34 0.34 0.35 0.34 0.36 0.36 0.36 0.37 0.38 0.36 0.35 0.35 0.36 0.38 0.38 0.36 0.34 0.34 0.34 0.35 0.35 0.32 0.30 0.30 0.30 0.30 0.31 0.31 0.32 0.34 0.36 0.36 0.36 0.33
0.34 0.35 0.35 0.35 0.36 0.35 0.33 0.34 0.35 0.35 0.36 0.35 0.35 0.34 0.35 0.36 0.37 0.36 0.36 0.34 0.35 0.34 0.35 0.37 0.38 0.36 0.34 0.35 0.32 0.30 0.31 0.29 0.29 0.30 0.31 0.31 0.31 0.29 0.29 0.30 0.32 0.34 0.34 0.32
0.34 0.35 0.35 0.36 0.35 0.35 0.35 0.34 0.33 0.33 0.35 0.35 0.34 0.34 0.35 0.37 0.36 0.35 0.33 0.32 0.35 0.40 0.40 0.38 0.36 0.34 0.34 0.32 0.29 0.30 0.33 0.32 0.30 0.29 0.30 0.30 0.30 0.30 0.32 0.33 0.33 0.34 0.34 0.35
0.36 0.35 0.36 0.36 0.35 0.34 0.34 0.32 0.33 0.34 0.35 0.35 0.35 0.36 0.35 0.35 0.34 0.34 0.36 0.36 0.39 0.41 0.37 0.35 0.35 0.34 0.33 0.31 0.29 0.31 0.34 0.33 0.31 0.30 0.29 0.27 0.24 0.24 0.25 0.28 0.33 0.33 0.34 0.37
0.39 0.39 0.39 0.37 0.36 0.33 0.32 0.33 0.35 0.36 0.36 0.35 0.35 0.36 0.36 0.35 0.35 0.34 0.34 0.41 0.42 0.40 0.39 0.38 0.37 0.34 0.33 0.32 0.30 0.31 0.33 0.31 0.26 0.25 0.23 0.22 0.23 0.26 0.27 0.28 0.29 0.29 0.32 0.35
0.41 0.41 0.40 0.40 0.37 0.32 0.31 0.34 0.36 0.38 0.37 0.37 0.37 0.37 0.37 0.35 0.35 0.38 0.39 0.41 0.42 0.42 0.41 0.41 0.39 0.34 0.32 0.32 0.31 0.30 0.28 0.25 0.23 0.21 0.21 0.20 0.23 0.24 0.26 0.27 0.26 0.26 0.27 0.29
0.43 0.42 0.41 0.37 0.32 0.32 0.35 0.37 0.38 0.37 0.35 0.35 0.35 0.36 0.36 0.36 0.34 0.35 0.37 0.38 0.40 0.40 0.39 0.39 0.37 0.34 0.30 0.29 0.28 0.27 0.24 0.23 0.21 0.20 0.21 0.22 0.22 0.23 0.24 0.23 0.23 0.26 0.26 0.26
0.43 0.41 0.39 0.37 0.36 0.37 0.38 0.38 0.36 0.34 0.33 0.30 0.31 0.32 0.33 0.33 0.33 0.33 0.33 0.33 0.33 0.31 0.31 0.32 0.30 0.29 0.29 0.29 0.27 0.25 0.23 0.22 0.21 0.20 0.21 0.21 0.21 0.22 0.21 0.21 0.23 0.22 0.23 0.23
0.43 0.42 0.40 0.39 0.40 0.40 0.39 0.39 0.36 0.33 0.33 0.31 0.28 0.29 0.30 0.30 0.30 0.30 0.29 0.28 0.27 0.27 0.26 0.27 0.28 0.28 0.27 0.26 0.24 0.23 0.22 0.22 0.22 0.22 0.21 0.21 0.21 0.20 0.21 0.21 0.20 0.21 0.21 0.21

GFSNGP_prec_pwat_123.txt.gz
Precipitable_Water
0.38 0.40 0.40 0.39 0.38 0.39 0.35 0.37 0.30 0.35 0.36 0.45 0.50 0.54 0.59 0.65 0.72 0.78 0.81 0.88 0.97 1.03 1.05 1.11 1.14 1.15 1.17 1.19 1.27 1.34 1.31 1.29 1.28 1.29 1.30 1.32 1.35 1.35 1.39 1.39 1.39 1.45 1.43 1.43
0.30 0.35 0.37 0.35 0.38 0.38 0.37 0.37 0.37 0.36 0.35 0.50 0.54 0.56 0.59 0.63 0.69 0.73 0.79 0.86 0.92 0.96 1.02 1.04 1.08 1.09 1.14 1.17 1.20 1.27 1.25 1.24 1.28 1.28 1.31 1.32 1.32 1.30 1.30 1.32 1.34 1.34 1.31 1.30
0.22 0.29 0.28 0.23 0.33 0.33 0.35 0.37 0.36 0.29 0.38 0.47 0.44 0.47 0.53 0.59 0.62 0.69 0.78 0.83 0.87 0.91 0.95 0.97 1.04 1.11 1.10 1.10 1.15 1.15 1.15 1.16 1.19 1.21 1.20 1.22 1.23 1.25 1.25 1.25 1.26 1.24 1.25 1.26
0.21 0.24 0.14 0.30 0.43 0.39 0.35 0.37 0.39 0.40 0.42 0.44 0.44 0.47 0.49 0.55 0.55 0.59 0.64 0.66 0.74 0.83 0.86 0.90 0.95 0.99 1.01 1.06 1.06 1.07 1.07 1.08 1.09 1.09 1.08 1.09 1.08 1.07 1.10 1.17 1.20 1.22 1.19 1.23
0.17 0.19 0.26 0.31 0.36 0.36 0.32 0.31 0.39 0.37 0.42 0.43 0.45 0.44 0.44 0.49 0.52 0.52 0.57 0.63 0.64 0.67 0.70 0.77 0.81 0.83 0.83 0.85 0.88 0.92 0.92 0.95 0.99 1.02 1.03 1.04 1.02 1.01 1.01 1.01 1.04 1.09 1.13 1.14
0.20 0.16 0.14 0.28 0.37 0.44 0.43 0.23 0.41 0.39 0.36 0.40 0.37 0.27 0.35 0.47 0.50 0.52 0.54 0.55 0.58 0.62 0.63 0.62 0.62 0.65 0.65 0.71 0.76 0.76 0.81 0.86 0.92 0.98 1.00 0.99 1.00 0.97 0.98 1.00 1.01 1.05 1.07 1.10
0.19 0.16 0.20 0.32 0.38 0.42 0.23 0.26 0.42 0.38 0.36 0.35 0.32 0.39 0.44 0.48 0.47 0.51 0.52 0.53 0.56 0.56 0.54 0.57 0.62 0.63 0.60 0.61 0.59 0.63 0.67 0.72 0.77 0.83 0.85 0.88 0.91 0.94 0.96 0.95 0.94 0.95 0.96 0.98
0.17 0.14 0.13 0.34 0.35 0.27 0.35 0.42 0.41 0.38 0.37 0.34 0.37 0.39 0.41 0.43 0.44 0.45 0.45 0.49 0.52 0.51 0.51 0.55 0.58 0.57 0.53 0.53 0.59 0.64 0.66 0.65 0.65 0.66 0.68 0.69 0.73 0.78 0.82 0.83 0.83 0.84 0.87 0.89
0.17 0.16 0.30 0.35 0.35 0.41 0.43 0.40 0.39 0.38 0.39 0.39 0.36 0.33 0.35 0.35 0.37 0.40 0.42 0.42 0.44 0.44 0.47 0.49 0.52 0.53 0.50 0.54 0.59 0.59 0.57 0.57 0.59 0.63 0.67 0.70 0.69 0.68 0.67 0.69 0.68 0.69 0.72 0.75
0.18 0.20 0.25 0.32 0.38 0.41 0.44 0.42 0.41 0.42 0.43 0.43 0.38 0.38 0.38 0.38 0.37 0.38 0.40 0.40 0.41 0.40 0.39 0.40 0.43 0.44 0.46 0.47 0.50 0.52 0.51 0.53 0.56 0.57 0.58 0.59 0.61 0.66 0.68 0.70 0.69 0.69 0.69 0.68
0.18 0.24 0.27 0.31 0.35 0.38 0.40 0.40 0.41 0.43 0.43 0.42 0.41 0.40 0.41 0.40 0.39 0.37 0.37 0.38 0.39 0.39 0.39 0.39 0.42 0.41 0.43 0.46 0.46 0.43 0.44 0.46 0.46 0.49 0.52 0.55 0.58 0.60 0.62 0.67 0.70 0.70 0.73 0.74
0.11 0.21 0.21 0.23 0.33 0.39 0.36 0.36 0.39 0.39 0.40 0.44 0.44 0.42 0.43 0.41 0.41 0.41 0.39 0.40 0.38 0.38 0.38 0.38 0.39 0.40 0.42 0.43 0.41 0.40 0.39 0.40 0.42 0.44 0.46 0.47 0.49 0.52 0.60 0.62 0.66 0.69 0.73 0.74
0.19 0.25 0.28 0.29 0.35 0.39 0.36 0.37 0.39 0.39 0.41 0.38 0.41 0.42 0.42 0.40 0.41 0.41 0.42 0.42 0.42 0.42 0.42 0.41 0.40 0.43 0.45 0.43 0.40 0.38 0.36 0.38 0.40 0.42 0.42 0.43 0.43 0.44 0.43 0.50 0.57 0.60 0.63 0.67
0.27 0.28 0.27 0.31 0.30 0.38 0.38 0.38 0.40 0.40 0.40 0.39 0.38 0.40 0.39 0.37 0.38 0.37 0.37 0.40 0.42 0.43 0.43 0.43 0.42 0.42 0.43 0.42 0.40 0.40 0.39 0.38 0.38 0.38 0.39 0.40 0.41 0.42 0.42 0.42 0.42 0.47 0.53 0.56
0.28 0.29 0.29 0.33 0.36 0.37 0.39 0.38 0.36 0.35 0.35 0.33 0.35 0.34 0.34 0.33 0.34 0.35 0.39 0.41 0.41 0.40 0.40 0.41 0.41 0.40 0.42 0.41 0.38 0.37 0.37 0.37 0.36 0.35 0.36 0.35 0.34 0.33 0.34 0.35 0.36 0.38 0.42 0.47
0.29 0.30 0.30 0.30 0.32 0.35 0.36 0.36 0.34 0.34 0.33 0.33 0.33 0.33 0.33 0.35 0.36 0.37 0.38 0.39 0.36 0.36 0.39 0.39 0.38 0.39 0.39 0.38 0.36 0.35 0.34 0.32 0.31 0.30 0.29 0.29 0.29 0.28 0.29 0.30 0.30 0.31 0.32 0.34
0.24 0.25 0.28 0.28 0.30 0.32 0.34 0.37 0.37 0.35 0.34 0.34 0.34 0.35 0.35 0.36 0.36 0.36 0.37 0.38 0.38 0.39 0.40 0.39 0.38 0.39 0.38 0.38 0.35 0.32 0.32 0.31 0.31 0.32 0.32 0.31 0.30 0.29 0.30 0.30 0.30 0.31 0.31 0.34
0.27 0.28 0.31 0.31 0.30 0.32 0.34 0.36 0.36 0.35 0.34 0.34 0.34 0.35 0.34 0.33 0.33 0.35 0.37 0.38 0.38 0.39 0.39 0.38 0.39 0.39 0.38 0.36 0.34 0.33 0.33 0.32 0.32 0.31 0.29 0.28 0.28 0.29 0.29 0.29 0.29 0.28 0.28 0.29
0.30 0.29 0.31 0.33 0.34 0.34 0.34 0.34 0.34 0.35 0.35 0.34 0.33 0.32 0.34 0.35 0.35 0.36 0.37 0.37 0.37 0.35 0.37 0.38 0.37 0.37 0.36 0.37 0.36 0.34 0.33 0.33 0.31 0.30 0.29 0.29 0.29 0.29 0.29 0.29 0.28 0.27 0.27 0.28
0.31 0.32 0.32 0.33 0.35 0.34 0.33 0.35 0.35 0.35 0.35 0.35 0.33 0.33 0.33 0.34 0.36 0.37 0.37 0.37 0.38 0.37 0.38 0.37 0.36 0.36 0.37 0.37 0.35 0.34 0.34 0.31 0.29 0.30 0.29 0.28 0.28 0.28 0.28 0.26 0.22 0.22 0.22 0.23
0.32 0.32 0.32 0.32 0.33 0.35 0.35 0.37 0.36 0.34 0.35 0.34 0.32 0.32 0.33 0.36 0.37 0.37 0.36 0.35 0.39 0.38 0.38 0.38 0.38 0.38 0.36 0.35 0.35 0.34 0.33 0.30 0.29 0.29 0.29 0.28 0.29 0.29 0.24 0.22 0.21 0.20 0.21 0.23
0.33 0.33 0.33 0.33 0.33 0.34 0.37 0.38 0.37 0.36 0.34 0.34 0.34 0.34 0.34 0.35 0.37 0.38 0.39 0.36 0.38 0.38 0.40 0.39 0.39 0.39 0.38 0.37 0.36 0.35 0.33 0.31 0.29 0.29 0.29 0.28 0.29 0.27 0.23 0.20 0.19 0.20 0.21 0.22
0.36 0.37 0.37 0.37 0.35 0.36 0.38 0.38 0.37 0.35 0.34 0.35 0.34 0.35 0.35 0.37 0.38 0.35 0.34 0.38 0.38 0.38 0.38 0.37 0.38 0.38 0.38 0.37 0.37 0.37 0.34 0.30 0.29 0.27 0.27 0.27 0.25 0.22 0.20 0.19 0.19 0.20 0.21 0.22
0.40 0.41 0.41 0.42 0.41 0.39 0.37 0.39 0.38 0.37 0.37 0.37 0.38 0.39 0.38 0.36 0.37 0.38 0.38 0.38 0.38 0.37 0.35 0.35 0.35 0.35 0.36 0.36 0.35 0.34 0.32 0.30 0.28 0.27 0.28 0.27 0.24 0.22 0.21 0.20 0.20 0.20 0.21 0.22
0.44 0.44 0.44 0.42 0.40 0.41 0.42 0.41 0.38 0.38 0.38 0.39 0.40 0.40 0.41 0.41 0.37 0.36 0.37 0.36 0.36 0.35 0.33 0.34 0.34 0.34 0.33 0.32 0.31 0.30 0.31 0.29 0.27 0.28 0.27 0.25 0.23 0.22 0.22 0.22 0.22 0.22 0.21 0.20
0.47 0.45 0.44 0.45 0.46 0.46 0.44 0.42 0.38 0.39 0.39 0.39 0.40 0.41 0.41 0.40 0.39 0.38 0.36 0.35 0.33 0.33 0.32 0.31 0.30 0.30 0.29 0.28 0.28 0.29 0.29 0.29 0.29 0.28 0.26 0.25 0.23 0.22 0.22 0.23 0.22 0.22 0.21 0.20
0.50 0.50 0.49 0.48 0.49 0.49 0.46 0.43 0.41 0.41 0.43 0.42 0.41 0.42 0.40 0.38 0.37 0.36 0.35 0.33 0.31 0.30 0.29 0.28 0.28 0.27 0.27 0.28 0.28 0.29 0.28 0.28 0.27 0.25 0.24 0.23 0.23 0.24 0.24 0.24 0.23 0.22 0.21 0.20

GFSNGP_prec_pwat_126.txt.gz
Precipitable_Water
0.39 0.41 0.40 0.39 0.37 0.37 0.34 0.36 0.32 0.36 0.37 0.45 0.51 0.54 0.59 0.65 0.71 0.76 0.80 0.85 0.94 0.99 1.04 1.12 1.13 1.17 1.22 1.28 1.27 1.31 1.28 1.26 1.26 1.32 1.36 1.40 1.39 1.41 1.43 1.46 1.48 1.44 1.37 1.39
0.31 0.37 0.35 0.32 0.35 0.36 0.34 0.35 0.37 0.39 0.39 0.52 0.56 0.60 0.62 0.65 0.70 0.74 0.79 0.85 0.91 1.00 1.02 1.04 1.09 1.12 1.16 1.21 1.24 1.28 1.22 1.23 1.26 1.23 1.25 1.27 1.30 1.33 1.36 1.36 1.35 1.38 1.39 1.41
0.21 0.28 0.26 0.22 0.30 0.31 0.35 0.37 0.36 0.32 0.42 0.48 0.46 0.51 0.61 0.66 0.71 0.75 0.79 0.84 0.87 0.93 0.96 1.03 1.06 1.11 1.11 1.15 1.21 1.21 1.20 1.20 1.20 1.22 1.24 1.25 1.26 1.26 1.27 1.28 1.31 1.31 1.33 1.35
0.20 0.23 0.13 0.28 0.40 0.38 0.33 0.37 0.38 0.39 0.44 0.46 0.45 0.50 0.53 0.60 0.62 0.68 0.76 0.81 0.87 0.90 0.93 0.97 1.00 1.04 1.06 1.06 1.07 1.08 1.08 1.10 1.13 1.15 1.13 1.15 1.16 1.15 1.19 1.21 1.22 1.23 1.23 1.25
0.17 0.17 0.22 0.27 0.33 0.32 0.28 0.29 0.38 0.34 0.38 0.40 0.45 0.47 0.45 0.54 0.57 0.59 0.61 0.64 0.69 0.75 0.82 0.85 0.88 0.92 0.92 0.89 0.92 0.95 0.97 0.98 1.01 1.02 1.02 1.05 1.04 1.04 1.09 1.08 1.10 1.15 1.17 1.17
0.19 0.14 0.11 0.23 0.33 0.41 0.37 0.20 0.37 0.35 0.34 0.34 0.36 0.28 0.38 0.48 0.52 0.52 0.56 0.58 0.59 0.60 0.62 0.61 0.62 0.66 0.68 0.69 0.73 0.75 0.79 0.83 0.88 0.91 0.94 0.97 0.98 0.97 1.00 1.00 0.98 0.99 1.02 1.07
0.16 0.14 0.16 0.28 0.34 0.39 0.20 0.20 0.36 0.34 0.34 0.32 0.27 0.34 0.41 0.46 0.46 0.50 0.51 0.51 0.53 0.54 0.50 0.52 0.57 0.57 0.53 0.55 0.53 0.58 0.61 0.64 0.67 0.72 0.74 0.77 0.81 0.86 0.88 0.89 0.91 0.93 0.93 0.96
0.16 0.12 0.09 0.30 0.31 0.23 0.30 0.38 0.35 0.33 0.34 0.32 0.34 0.36 0.37 0.39 0.39 0.42 0.43 0.46 0.49 0.48 0.47 0.49 0.51 0.51 0.48 0.47 0.53 0.56 0.57 0.57 0.57 0.59 0.59 0.60 0.61 0.64 0.67 0.68 0.69 0.73 0.81 0.87
0.16 0.14 0.26 0.31 0.30 0.36 0.37 0.35 0.34 0.33 0.35 0.34 0.32 0.33 0.35 0.34 0.36 0.37 0.38 0.39 0.39 0.38 0.38 0.42 0.43 0.44 0.42 0.45 0.51 0.49 0.48 0.48 0.50 0.51 0.53 0.55 0.55 0.56 0.59 0.61 0.59 0.58 0.60 0.63
0.17 0.19 0.24 0.30 0.35 0.35 0.36 0.34 0.34 0.35 0.36 0.36 0.32 0.33 0.35 0.36 0.36 0.37 0.37 0.35 0.38 0.39 0.40 0.38 0.42 0.42 0.40 0.41 0.42 0.42 0.43 0.43 0.44 0.46 0.48 0.50 0.52 0.53 0.52 0.52 0.53 0.55 0.57 0.58
0.16 0.21 0.25 0.28 0.34 0.36 0.37 0.38 0.35 0.36 0.35 0.34 0.33 0.33 0.34 0.33 0.34 0.35 0.35 0.36 0.37 0.36 0.36 0.37 0.40 0.40 0.40 0.39 0.39 0.36 0.35 0.37 0.39 0.41 0.42 0.44 0.47 0.48 0.49 0.52 0.53 0.52 0.54 0.56
0.10 0.17 0.19 0.21 0.31 0.37 0.36 0.34 0.35 0.35 0.35 0.37 0.36 0.33 0.34 0.33 0.35 0.34 0.33 0.35 0.35 0.37 0.37 0.37 0.38 0.37 0.38 0.40 0.38 0.36 0.32 0.32 0.33 0.35 0.38 0.40 0.41 0.42 0.47 0.49 0.51 0.53 0.55 0.56
0.15 0.22 0.25 0.27 0.32 0.37 0.36 0.36 0.37 0.36 0.37 0.36 0.39 0.39 0.38 0.34 0.35 0.36 0.35 0.36 0.36 0.36 0.36 0.36 0.36 0.35 0.39 0.40 0.37 0.35 0.32 0.33 0.33 0.34 0.34 0.35 0.37 0.38 0.39 0.45 0.47 0.48 0.50 0.52
0.24 0.26 0.25 0.28 0.26 0.36 0.38 0.37 0.39 0.40 0.41 0.40 0.41 0.42 0.41 0.39 0.40 0.39 0.38 0.39 0.40 0.40 0.40 0.40 0.39 0.38 0.40 0.39 0.37 0.36 0.35 0.36 0.35 0.34 0.33 0.33 0.32 0.31 0.33 0.32 0.33 0.38 0.45 0.48
0.24 0.27 0.26 0.30 0.35 0.36 0.38 0.38 0.35 0.36 0.37 0.38 0.40 0.38 0.39 0.37 0.37 0.37 0.40 0.42 0.43 0.42 0.41 0.41 0.40 0.40 0.42 0.41 0.38 0.35 0.35 0.35 0.34 0.32 0.32 0.32 0.31 0.31 0.31 0.30 0.30 0.30 0.31 0.33
0.26 0.28 0.29 0.29 0.31 0.34 0.35 0.35 0.33 0.35 0.37 0.37 0.36 0.37 0.37 0.38 0.38 0.39 0.40 0.41 0.38 0.37 0.40 0.41 0.40 0.42 0.41 0.39 0.37 0.35 0.34 0.32 0.31 0.30 0.29 0.31 0.31 0.30 0.30 0.30 0.29 0.29 0.29 0.30
0.23 0.24 0.27 0.28 0.31 0.32 0.32 0.35 0.36 0.37 0.38 0.37 0.35 0.36 0.36 0.36 0.37 0.37 0.38 0.41 0.40 0.40 0.42 0.43 0.41 0.41 0.41 0.39 0.37 0.34 0.32 0.32 0.32 0.32 0.30 0.30 0.29 0.28 0.28 0.28 0.27 0.27 0.27 0.29
0.27 0.27 0.28 0.27 0.28 0.31 0.33 0.36 0.37 0.38 0.37 0.36 0.37 0.36 0.34 0.33 0.32 0.34 0.37 0.41 0.41 0.40 0.42 0.42 0.41 0.41 0.40 0.38 0.36 0.35 0.34 0.33 0.32 0.31 0.31 0.29 0.29 0.30 0.29 0.27 0.27 0.26 0.26 0.26
0.30 0.29 0.30 0.31 0.33 0.33 0.34 0.35 0.36 0.38 0.37 0.36 0.35 0.33 0.33 0.34 0.34 0.36 0.38 0.38 0.38 0.38 0.41 0.42 0.40 0.39 0.38 0.38 0.38 0.36 0.33 0.32 0.32 0.30 0.29 0.29 0.29 0.28 0.27 0.27 0.27 0.24 0.22 0.21
0.31 0.32 0.33 0.33 0.35 0.35 0.34 0.37 0.38 0.37 0.37 0.37 0.35 0.34 0.32 0.34 0.36 0.37 0.39 0.37 0.40 0.42 0.43 0.41 0.40 0.39 0.39 0.38 0.38 0.36 0.33 0.31 0.31 0.29 0.27 0.28 0.28 0.27 0.26 0.28 0.26 0.24 0.22 0.21
0.32 0.33 0.33 0.33 0.34 0.36 0.37 0.38 0.37 0.35 0.37 0.37 0.35 0.32 0.32 0.36 0.37 0.38 0.37 0.36 0.42 0.43 0.41 0.40 0.40 0.40 0.40 0.38 0.36 0.34 0.33 0.31 0.30 0.28 0.26 0.27 0.27 0.26 0.27 0.28 0.26 0.24 0.22 0.21
0.37 0.36 0.35 0.35 0.35 0.36 0.39 0.39 0.38 0.38 0.37 0.37 0.36 0.35 0.35 0.35 0.37 0.38 0.40 0.39 0.43 0.42 0.40 0.41 0.41 0.41 0.40 0.39 0.37 0.35 0.33 0.32 0.31 0.29 0.28 0.28 0.27 0.25 0.25 0.25 0.22 0.20 0.19 0.20
0.41 0.40 0.39 0.38 0.37 0.37 0.40 0.40 0.40 0.38 0.38 0.37 0.36 0.36 0.36 0.37 0.39 0.37 0.36 0.42 0.42 0.41 0.40 0.40 0.40 0.40 0.39 0.37 0.35 0.34 0.34 0.33 0.32 0.30 0.29 0.28 0.27 0.26 0.25 0.23 0.21 0.20 0.20 0.20
0.46 0.45 0.44 0.44 0.44 0.42 0.39 0.40 0.41 0.40 0.39 0.39 0.39 0.40 0.39 0.38 0.39 0.42 0.43 0.43 0.42 0.41 0.40 0.39 0.38 0.37 0.36 0.34 0.32 0.31 0.31 0.30 0.30 0.30 0.29 0.28 0.28 0.27 0.25 0.23 0.21 0.21 0.21 0.21
0.47 0.47 0.47 0.46 0.45 0.44 0.43 0.43 0.42 0.41 0.41 0.40 0.42 0.43 0.43 0.44 0.42 0.42 0.43 0.42 0.41 0.40 0.39 0.38 0.37 0.36 0.34 0.32 0.31 0.30 0.29 0.30 0.30 0.30 0.28 0.28 0.27 0.26 0.24 0.23 0.22 0.22 0.22 0.23
0.45 0.46 0.48 0.48 0.48 0.48 0.47 0.46 0.42 0.42 0.42 0.41 0.43 0.44 0.45 0.46 0.46 0.45 0.43 0.41 0.40 0.38 0.36 0.36 0.34 0.32 0.31 0.29 0.29 0.28 0.28 0.28 0.29 0.29 0.29 0.28 0.27 0.25 0.23 0.23 0.23 0.23 0.23 0.23
0.44 0.46 0.48 0.50 0.53 0.51 0.48 0.47 0.44 0.42 0.42 0.43 0.43 0.46 0.47 0.46 0.45 0.43 0.40 0.39 0.37 0.35 0.33 0.32 0.30 0.29 0.28 0.28 0.27 0.27 0.28 0.28 0.28 0.28 0.27 0.25 0.24 0.24 0.24 0.25 0.25 0.25 0.24 0.22

GFSNGP_prec_pwat_132.txt.gz
Precipitable_Water
0.36 0.37 0.35 0.33 0.31 0.33 0.32 0.35 0.30 0.36 0.38 0.45 0.53 0.57 0.61 0.66 0.70 0.73 0.76 0.78 0.82 0.85 0.90 0.96 0.98 1.00 1.08 1.13 1.16 1.20 1.17 1.18 1.19 1.27 1.31 1.30 1.30 1.36 1.38 1.41 1.44 1.44 1.42 1.42
0.29 0.34 0.32 0.28 0.31 0.32 0.33 0.36 0.36 0.40 0.39 0.53 0.59 0.64 0.64 0.67 0.69 0.71 0.76 0.80 0.84 0.89 0.93 0.96 1.01 1.06 1.11 1.12 1.16 1.17 1.16 1.17 1.22 1.22 1.25 1.30 1.34 1.35 1.37 1.39 1.37 1.38 1.40 1.39
0.21 0.28 0.26 0.20 0.27 0.30 0.32 0.36 0.35 0.32 0.40 0.50 0.53 0.61 0.63 0.66 0.70 0.72 0.77 0.82 0.87 0.90 0.93 0.97 1.01 1.06 1.05 1.09 1.13 1.12 1.13 1.16 1.19 1.21 1.21 1.23 1.28 1.30 1.32 1.30 1.34 1.29 1.29 1.31
0.19 0.21 0.12 0.24 0.36 0.37 0.34 0.35 0.38 0.40 0.43 0.44 0.50 0.58 0.64 0.69 0.70 0.71 0.75 0.79 0.83 0.87 0.91 0.96 1.01 1.02 1.04 1.05 1.07 1.07 1.07 1.09 1.12 1.11 1.12 1.16 1.19 1.19 1.22 1.25 1.26 1.23 1.24 1.27
0.15 0.15 0.18 0.23 0.28 0.30 0.29 0.27 0.36 0.37 0.40 0.42 0.45 0.47 0.50 0.58 0.65 0.63 0.65 0.68 0.71 0.74 0.75 0.78 0.82 0.85 0.86 0.91 0.95 0.95 0.97 1.00 1.03 1.07 1.06 1.07 1.05 1.06 1.08 1.11 1.13 1.12 1.12 1.15
0.16 0.11 0.08 0.18 0.28 0.38 0.38 0.21 0.34 0.34 0.34 0.34 0.36 0.24 0.32 0.49 0.54 0.53 0.56 0.57 0.56 0.56 0.57 0.54 0.55 0.58 0.58 0.60 0.62 0.61 0.65 0.67 0.73 0.76 0.77 0.79 0.84 0.89 0.92 0.94 0.94 0.99 1.01 1.05
0.15 0.13 0.13 0.22 0.30 0.37 0.18 0.19 0.31 0.30 0.28 0.26 0.24 0.28 0.34 0.39 0.39 0.42 0.42 0.41 0.42 0.42 0.40 0.41 0.44 0.45 0.42 0.44 0.44 0.50 0.53 0.54 0.55 0.55 0.55 0.56 0.59 0.62 0.64 0.64 0.67 0.69 0.72 0.77
0.15 0.12 0.07 0.25 0.28 0.19 0.21 0.30 0.28 0.27 0.25 0.24 0.27 0.31 0.32 0.34 0.34 0.35 0.35 0.36 0.38 0.36 0.35 0.37 0.38 0.37 0.35 0.35 0.41 0.44 0.45 0.44 0.44 0.47 0.48 0.49 0.48 0.49 0.50 0.50 0.50 0.50 0.51 0.53
0.14 0.11 0.18 0.26 0.25 0.30 0.31 0.29 0.29 0.27 0.28 0.27 0.27 0.28 0.31 0.31 0.33 0.33 0.34 0.35 0.37 0.35 0.35 0.36 0.37 0.36 0.32 0.33 0.35 0.36 0.35 0.35 0.37 0.40 0.42 0.43 0.41 0.41 0.41 0.43 0.43 0.44 0.44 0.44
0.14 0.14 0.16 0.21 0.27 0.31 0.33 0.31 0.32 0.32 0.31 0.31 0.27 0.30 0.30 0.31 0.31 0.32 0.34 0.34 0.35 0.34 0.32 0.33 0.35 0.35 0.36 0.36 0.35 0.34 0.32 0.31 0.32 0.32 0.33 0.35 0.37 0.38 0.38 0.37 0.38 0.38 0.38 0.38
0.14 0.15 0.17 0.19 0.23 0.27 0.31 0.34 0.33 0.33 0.33 0.32 0.32 0.31 0.32 0.31 0.31 0.32 0.33 0.35 0.37 0.36 0.35 0.35 0.36 0.35 0.36 0.36 0.35 0.32 0.31 0.30 0.30 0.30 0.31 0.32 0.33 0.35 0.35 0.38 0.38 0.35 0.36 0.38
0.08 0.12 0.13 0.14 0.20 0.27 0.29 0.30 0.33 0.31 0.31 0.35 0.35 0.32 0.33 0.32 0.34 0.35 0.35 0.37 0.37 0.37 0.37 0.37 0.37 0.36 0.38 0.38 0.36 0.34 0.32 0.31 0.31 0.30 0.30 0.29 0.28 0.28 0.33 0.36 0.37 0.38 0.38 0.38
0.12 0.15 0.16 0.18 0.22 0.26 0.28 0.32 0.34 0.34 0.34 0.34 0.37 0.37 0.36 0.35 0.36 0.37 0.38 0.38 0.37 0.37 0.38 0.39 0.38 0.37 0.39 0.39 0.37 0.34 0.31 0.30 0.30 0.29 0.28 0.27 0.26 0.25 0.24 0.27 0.30 0.29 0.30 0.31
0.21 0.21 0.17 0.18 0.17 0.25 0.29 0.33 0.36 0.36 0.36 0.36 0.37 0.38 0.37 0.37 0.38 0.38 0.37 0.39 0.40 0.39 0.39 0.39 0.38 0.37 0.39 0.39 0.36 0.33 0.33 0.32 0.31 0.30 0.29 0.27 0.28 0.28 0.28 0.27 0.25 0.25 0.28 0.29
0.19 0.23 0.22 0.23 0.24 0.25 0.31 0.33 0.31 0.31 0.33 0.34 0.37 0.37 0.38 0.36 0.35 0.36 0.37 0.38 0.38 0.38 0.38 0.39 0.39 0.39 0.42 0.41 0.38 0.36 0.35 0.34 0.34 0.31 0.31 0.31 0.31 0.29 0.28 0.27 0.26 0.26 0.27 0.28
0.23 0.23 0.24 0.22 0.22 0.26 0.28 0.31 0.30 0.31 0.33 0.33 0.35 0.36 0.38 0.38 0.36 0.35 0.35 0.35 0.32 0.31 0.35 0.37 0.38 0.42 0.44 0.43 0.41 0.39 0.38 0.37 0.36 0.34 0.33 0.33 0.32 0.29 0.28 0.28 0.27 0.26 0.25 0.25
0.20 0.20 0.22 0.22 0.23 0.24 0.26 0.29 0.30 0.31 0.32 0.33 0.32 0.36 0.36 0.34 0.32 0.30 0.31 0.33 0.34 0.34 0.35 0.36 0.36 0.42 0.45 0.44 0.42 0.41 0.40 0.38 0.37 0.36 0.34 0.34 0.32 0.29 0.29 0.28 0.27 0.26 0.25 0.26
0.23 0.24 0.26 0.25 0.26 0.27 0.28 0.30 0.32 0.33 0.33 0.35 0.37 0.37 0.36 0.33 0.29 0.29 0.30 0.32 0.33 0.34 0.36 0.39 0.42 0.44 0.45 0.46 0.45 0.44 0.41 0.39 0.38 0.36 0.36 0.35 0.31 0.30 0.29 0.28 0.27 0.25 0.26 0.26
0.28 0.26 0.27 0.29 0.29 0.29 0.31 0.32 0.33 0.35 0.38 0.39 0.38 0.36 0.36 0.36 0.34 0.33 0.33 0.32 0.32 0.32 0.35 0.42 0.44 0.46 0.47 0.47 0.46 0.44 0.42 0.41 0.40 0.37 0.35 0.34 0.32 0.30 0.28 0.27 0.26 0.26 0.26 0.25
0.28 0.29 0.29 0.30 0.34 0.34 0.32 0.35 0.36 0.37 0.41 0.42 0.41 0.39 0.37 0.37 0.37 0.36 0.35 0.32 0.34 0.36 0.41 0.42 0.44 0.46 0.47 0.47 0.46 0.45 0.43 0.42 0.39 0.36 0.35 0.33 0.31 0.29 0.28 0.27 0.27 0.26 0.26 0.25
0.29 0.31 0.32 0.33 0.34 0.37 0.37 0.38 0.38 0.38 0.40 0.42 0.40 0.38 0.38 0.40 0.38 0.36 0.33 0.30 0.34 0.40 0.42 0.45 0.45 0.47 0.48 0.47 0.46 0.45 0.43 0.41 0.38 0.36 0.34 0.32 0.30 0.29 0.28 0.27 0.27 0.26 0.25 0.24
0.39 0.36 0.32 0.32 0.32 0.33 0.37 0.39 0.39 0.41 0.42 0.43 0.43 0.43 0.41 0.39 0.37 0.35 0.35 0.33 0.36 0.39 0.40 0.42 0.45 0.48 0.49 0.49 0.47 0.45 0.43 0.41 0.38 0.35 0.32 0.32 0.30 0.29 0.27 0.27 0.25 0.25 0.25 0.25
0.41 0.44 0.44 0.41 0.37 0.35 0.39 0.39 0.40 0.42 0.43 0.44 0.43 0.43 0.42 0.41 0.38 0.34 0.31 0.36 0.37 0.38 0.41 0.43 0.46 0.51 0.51 0.49 0.47 0.45 0.43 0.40 0.37 0.34 0.33 0.32 0.30 0.29 0.28 0.26 0.25 0.26 0.25 0.23
0.42 0.44 0.46 0.48 0.51 0.47 0.41 0.40 0.44 0.45 0.46 0.48 0.50 0.51 0.48 0.42 0.39 0.40 0.39 0.38 0.38 0.39 0.40 0.43 0.50 0.53 0.50 0.48 0.46 0.44 0.41 0.38 0.35 0.34 0.33 0.31 0.30 0.29 0.28 0.26 0.26 0.26 0.24 0.22
0.40 0.42 0.45 0.47 0.46 0.45 0.45 0.45 0.44 0.45 0.48 0.49 0.51 0.52 0.51 0.49 0.43 0.42 0.41 0.40 0.40 0.40 0.42 0.49 0.56 0.51 0.50 0.47 0.44 0.41 0.38 0.37 0.34 0.33 0.31 0.30 0.29 0.28 0.27 0.27 0.26 0.25 0.23 0.24
0.43 0.43 0.43 0.46 0.48 0.51 0.50 0.51 0.48 0.48 0.47 0.44 0.49 0.51 0.48 0.45 0.44 0.44 0.44 0.43 0.41 0.44 0.48 0.56 0.53 0.50 0.46 0.44 0.40 0.38 0.36 0.34 0.32 0.31 0.30 0.28 0.28 0.28 0.27 0.26 0.24 0.24 0.24 0.24
0.40 0.40 0.39 0.39 0.43 0.49 0.53 0.53 0.51 0.50 0.52 0.50 0.47 0.48 0.45 0.44 0.44 0.45 0.45 0.45 0.47 0.50 0.53 0.53 0.49 0.46 0.43 0.38 0.36 0.34 0.32 0.31 0.30 0.29 0.28 0.28 0.28 0.27 0.25 0.24 0.25 0.25 0.24 0.23

GFSNGP_prec_pwat_135.txt.gz
Precipitable_Water
0.34 0.33 0.34 0.32 0.32 0.34 0.33 0.37 0.32 0.36 0.39 0.48 0.56 0.59 0.63 0.69 0.74 0.75 0.75 0.78 0.80 0.84 0.89 0.92 0.93 0.94 0.96 1.01 1.02 1.01 0.96 0.91 0.92 0.91 0.95 0.98 1.04 0.96 0.98 1.08 1.09 1.07 1.12 1.25
0.26 0.30 0.31 0.27 0.31 0.34 0.34 0.37 0.39 0.38 0.38 0.55 0.61 0.66 0.66 0.69 0.72 0.73 0.76 0.79 0.83 0.87 0.90 0.93 0.95 0.97 0.99 1.02 1.01 1.06 1.00 0.95 0.99 0.98 1.03 1.08 1.19 1.26 1.18 1.16 1.18 1.28 1.26 1.28
0.18 0.26 0.25 0.18 0.24 0.29 0.32 0.37 0.39 0.30 0.39 0.48 0.51 0.59 0.62 0.66 0.70 0.72 0.75 0.79 0.82 0.85 0.87 0.92 0.95 0.99 0.99 1.03 1.05 1.01 0.97 0.96 1.01 1.07 1.10 1.14 1.18 1.21 1.24 1.26 1.29 1.28 1.29 1.34
0.18 0.20 0.12 0.19 0.33 0.36 0.34 0.35 0.42 0.37 0.38 0.43 0.47 0.55 0.59 0.62 0.62 0.66 0.67 0.70 0.73 0.78 0.81 0.86 0.93 0.95 0.99 1.01 1.02 1.04 1.05 1.06 1.09 1.11 1.12 1.16 1.20 1.19 1.20 1.23 1.20 1.19 1.20 1.23
0.16 0.14 0.16 0.19 0.25 0.28 0.28 0.27 0.39 0.37 0.35 0.39 0.45 0.47 0.49 0.58 0.58 0.55 0.55 0.54 0.56 0.58 0.57 0.60 0.64 0.71 0.75 0.77 0.82 0.86 0.91 0.97 1.01 1.05 1.06 1.09 1.10 1.10 1.12 1.17 1.13 1.13 1.16 1.15
0.17 0.12 0.09 0.17 0.29 0.36 0.37 0.22 0.36 0.32 0.31 0.31 0.33 0.24 0.33 0.44 0.46 0.43 0.43 0.42 0.40 0.40 0.41 0.42 0.43 0.47 0.46 0.46 0.49 0.51 0.57 0.62 0.69 0.72 0.76 0.82 0.85 0.87 0.91 0.94 0.95 0.96 0.95 0.96
0.15 0.13 0.13 0.21 0.31 0.37 0.19 0.18 0.32 0.28 0.25 0.24 0.21 0.25 0.32 0.37 0.36 0.38 0.37 0.37 0.38 0.36 0.33 0.34 0.35 0.35 0.32 0.35 0.34 0.41 0.45 0.47 0.48 0.50 0.50 0.52 0.54 0.56 0.58 0.60 0.62 0.63 0.63 0.66
0.14 0.11 0.07 0.23 0.26 0.18 0.20 0.28 0.26 0.24 0.23 0.22 0.25 0.29 0.30 0.32 0.32 0.33 0.34 0.35 0.35 0.33 0.32 0.33 0.33 0.30 0.28 0.26 0.32 0.33 0.34 0.35 0.37 0.39 0.40 0.43 0.43 0.44 0.46 0.46 0.45 0.46 0.46 0.47
0.13 0.10 0.16 0.22 0.22 0.28 0.28 0.25 0.24 0.23 0.25 0.24 0.24 0.26 0.28 0.29 0.30 0.31 0.32 0.33 0.34 0.32 0.32 0.32 0.33 0.32 0.29 0.31 0.33 0.32 0.30 0.29 0.30 0.32 0.34 0.36 0.35 0.35 0.35 0.37 0.35 0.35 0.35 0.35
0.13 0.12 0.14 0.18 0.24 0.27 0.30 0.29 0.29 0.28 0.27 0.27 0.24 0.27 0.28 0.29 0.29 0.30 0.32 0.32 0.34 0.33 0.31 0.30 0.32 0.32 0.32 0.33 0.33 0.31 0.28 0.28 0.30 0.31 0.31 0.33 0.34 0.34 0.33 0.33 0.33 0.33 0.33 0.33
0.13 0.13 0.15 0.16 0.18 0.23 0.28 0.31 0.31 0.31 0.30 0.28 0.28 0.27 0.28 0.28 0.30 0.31 0.32 0.34 0.35 0.34 0.33 0.33 0.35 0.35 0.36 0.37 0.36 0.32 0.31 0.30 0.30 0.30 0.29 0.29 0.31 0.32 0.32 0.35 0.34 0.31 0.32 0.32
0.09 0.13 0.13 0.12 0.16 0.20 0.23 0.26 0.30 0.29 0.29 0.32 0.32 0.29 0.31 0.31 0.33 0.34 0.34 0.35 0.36 0.36 0.36 0.37 0.37 0.37 0.37 0.38 0.36 0.33 0.30 0.30 0.30 0.29 0.28 0.27 0.26 0.27 0.32 0.32 0.32 0.33 0.33 0.32
0.15 0.19 0.19 0.20 0.21 0.22 0.22 0.27 0.31 0.31 0.32 0.30 0.33 0.34 0.33 0.33 0.35 0.36 0.36 0.37 0.37 0.37 0.38 0.39 0.38 0.38 0.39 0.39 0.37 0.35 0.32 0.31 0.30 0.29 0.28 0.27 0.28 0.28 0.26 0.29 0.30 0.30 0.31 0.31
0.19 0.19 0.17 0.20 0.18 0.22 0.25 0.29 0.34 0.34 0.35 0.34 0.35 0.37 0.36 0.35 0.36 0.36 0.35 0.37 0.38 0.38 0.38 0.39 0.39 0.39 0.42 0.41 0.38 0.36 0.35 0.34 0.32 0.31 0.30 0.31 0.30 0.29 0.28 0.27 0.26 0.26 0.29 0.30
0.19 0.21 0.20 0.23 0.25 0.24 0.28 0.31 0.31 0.31 0.33 0.33 0.36 0.35 0.36 0.34 0.34 0.35 0.37 0.38 0.37 0.36 0.36 0.37 0.38 0.39 0.43 0.42 0.40 0.38 0.37 0.36 0.36 0.34 0.34 0.34 0.32 0.30 0.30 0.29 0.28 0.28 0.28 0.28
0.24 0.25 0.23 0.21 0.22 0.26 0.27 0.30 0.30 0.31 0.33 0.34 0.34 0.35 0.35 0.37 0.38 0.38 0.37 0.36 0.32 0.30 0.33 0.35 0.36 0.39 0.41 0.42 0.41 0.40 0.39 0.39 0.38 0.37 0.36 0.35 0.34 0.32 0.31 0.30 0.29 0.29 0.28 0.27
0.25 0.21 0.22 0.22 0.23 0.25 0.27 0.30 0.31 0.32 0.34 0.35 0.35 0.37 0.38 0.38 0.37 0.36 0.35 0.35 0.33 0.31 0.33 0.35 0.35 0.38 0.40 0.42 0.42 0.41 0.40 0.40 0.41 0.40 0.38 0.38 0.36 0.33 0.32 0.31 0.30 0.29 0.29 0.29
0.29 0.29 0.28 0.26 0.25 0.25 0.27 0.30 0.33 0.36 0.36 0.36 0.39 0.39 0.38 0.36 0.34 0.36 0.36 0.35 0.32 0.31 0.33 0.35 0.36 0.39 0.40 0.42 0.43 0.43 0.42 0.43 0.42 0.41 0.41 0.39 0.38 0.36 0.33 0.32 0.31 0.29 0.29 0.29
0.27 0.26 0.27 0.28 0.29 0.31 0.29 0.28 0.31 0.35 0.38 0.41 0.42 0.40 0.39 0.39 0.39 0.39 0.39 0.34 0.30 0.28 0.29 0.34 0.36 0.38 0.40 0.43 0.45 0.45 0.45 0.44 0.45 0.45 0.43 0.41 0.39 0.36 0.34 0.32 0.31 0.30 0.29 0.28
0.31 0.30 0.30 0.31 0.32 0.32 0.31 0.35 0.35 0.33 0.36 0.38 0.41 0.43 0.42 0.42 0.43 0.41 0.41 0.36 0.33 0.32 0.34 0.33 0.34 0.34 0.37 0.41 0.43 0.43 0.43 0.45 0.47 0.46 0.44 0.41 0.39 0.37 0.35 0.34 0.32 0.30 0.29 0.28
0.31 0.33 0.34 0.35 0.35 0.36 0.38 0.40 0.40 0.37 0.37 0.39 0.38 0.39 0.40 0.43 0.45 0.44 0.41 0.37 0.37 0.37 0.35 0.34 0.34 0.35 0.38 0.41 0.43 0.44 0.45 0.48 0.48 0.45 0.43 0.41 0.38 0.37 0.36 0.34 0.32 0.30 0.29 0.27
0.34 0.35 0.38 0.40 0.40 0.40 0.41 0.40 0.38 0.39 0.41 0.42 0.42 0.42 0.42 0.43 0.45 0.46 0.46 0.42 0.42 0.39 0.38 0.36 0.36 0.38 0.39 0.40 0.42 0.45 0.51 0.50 0.47 0.45 0.42 0.39 0.37 0.36 0.35 0.34 0.32 0.30 0.28 0.27
0.34 0.35 0.37 0.39 0.41 0.42 0.45 0.46 0.45 0.43 0.38 0.37 0.38 0.39 0.42 0.45 0.48 0.46 0.44 0.49 0.46 0.43 0.40 0.39 0.40 0.40 0.40 0.40 0.43 0.49 0.52 0.50 0.47 0.45 0.42 0.40 0.38 0.36 0.34 0.32 0.31 0.29 0.27 0.27
0.34 0.35 0.36 0.38 0.39 0.40 0.41 0.46 0.48 0.49 0.49 0.49 0.46 0.43 0.43 0.43 0.46 0.50 0.50 0.48 0.44 0.43 0.41 0.41 0.42 0.43 0.43 0.46 0.47 0.52 0.54 0.49 0.46 0.44 0.41 0.39 0.37 0.35 0.33 0.31 0.30 0.29 0.28 0.26
0.34 0.35 0.36 0.36 0.36 0.36 0.38 0.40 0.43 0.47 0.49 0.50 0.52 0.53 0.51 0.48 0.48 0.52 0.53 0.48 0.42 0.39 0.39 0.42 0.42 0.45 0.49 0.49 0.53 0.53 0.50 0.47 0.44 0.42 0.39 0.36 0.35 0.33 0.32 0.30 0.29 0.28 0.26 0.24
0.39 0.39 0.38 0.37 0.36 0.36 0.37 0.38 0.37 0.40 0.42 0.44 0.49 0.53 0.56 0.58 0.57 0.52 0.50 0.48 0.44 0.41 0.39 0.39 0.40 0.44 0.51 0.54 0.53 0.50 0.48 0.44 0.42 0.39 0.36 0.35 0.33 0.32 0.31 0.30 0.28 0.26 0.25 0.24
0.35 0.34 0.32 0.30 0.30 0.31 0.32 0.33 0.32 0.31 0.36 0.38 0.40 0.47 0.51 0.54 0.58 0.58 0.53 0.45 0.42 0.42 0.43 0.45 0.46 0.48 0.50 0.51 0.49 0.46 0.42 0.40 0.38 0.35 0.34 0.33 0.32 0.31 0.30 0.27 0.26 0.26 0.25 0.23